Date StartTime U_cm/s V_cm/s W_cm/s Ustd_cm/s Vstd_cm/s Wstd_cm/s Uvar_(cm/s)^2 Vvar_(cm/s)^2 Wvar_(cm/s)^2 KE_(m/s)^2 TurbulentKE_(m/s)^2 HorizWindSpeed_cm/s FrictionSpeec_cm/s DragCoef SpeedOfSound_m/s SonicTemperature_C Pressure_mb 
10/22/2013  00:00:00      -80.937      -58.683        3.816       43.710       33.467       27.081     1910.601     1120.064      733.356        0.689        0.188       99.973       25.291        0.064      337.357        9.277      864.936
10/22/2013  00:01:00      -98.243      -70.380       -2.628       37.149       26.403       22.382     1380.036      697.143      500.935        0.859        0.129      120.851       16.796        0.019      337.374        9.304      864.946
10/22/2013  00:02:00     -108.893      -67.874        0.430       36.893       25.622       23.461     1361.104      656.490      550.416        0.952        0.128      128.315       18.873        0.022      337.394        9.338      864.940
10/22/2013  00:03:00     -108.734      -67.561        0.904       38.291       26.602       22.307     1466.228      707.692      497.608        0.953        0.134      128.014       18.981        0.022      337.397        9.344      864.942
10/22/2013  00:04:00      -86.793      -62.018       -0.093       29.784       28.563       18.486      887.065      815.866      341.738        0.671        0.102      106.673       11.788        0.012      337.421        9.383      864.955
10/22/2013  00:05:00     -111.817      -68.913       -3.579       24.282       27.052       20.635      589.609      731.805      425.806        0.951        0.087      131.347       20.057        0.023      337.414        9.370      864.950
10/22/2013  00:06:00      -63.275      -42.776        2.387       28.380       27.036       19.728      805.436      730.939      389.187        0.388        0.096       76.377       16.700        0.048      337.379        9.313      864.954
10/22/2013  00:07:00      -86.608      -54.148       -0.319       33.351       25.142       17.712     1112.290      632.144      313.717        0.625        0.103      102.142       15.329        0.023      337.415        9.373      864.954
10/22/2013  00:08:00     -104.779      -60.340       -5.826       15.659       15.255        9.765      245.208      232.713       95.354        0.761        0.029      120.911        8.192        0.005      337.330        9.231      864.950
10/22/2013  00:09:00      -71.487      -45.953        2.872       29.862       22.014       16.968      891.733      484.594      287.915        0.445        0.083       84.982       18.439        0.047      337.294        9.172      864.973
10/22/2013  00:10:00      -76.650      -60.521        0.124       25.319       21.504       18.071      641.039      462.414      326.573        0.548        0.072       97.663       12.433        0.016      337.348        9.260      864.978
10/22/2013  00:11:00     -104.035      -46.691        5.869       24.292       25.294       16.913      590.112      639.803      286.051        0.728        0.076      114.032       13.744        0.015      337.266        9.126      864.984
10/22/2013  00:12:00      -85.153      -53.149        2.064       33.112       25.757       18.585     1096.417      663.416      345.386        0.609        0.105      100.378       16.329        0.026      337.256        9.107      864.993
10/22/2013  00:13:00      -98.673      -63.196       -6.363       26.832       22.744       20.005      719.977      517.275      400.203        0.770        0.082      117.176       12.843        0.012      337.256        9.108      864.998
10/22/2013  00:14:00     -106.817      -64.142       -9.358       14.745       14.052       13.114      217.421      197.450      171.987        0.810        0.029      124.596        6.840        0.003      337.200        9.013      864.998
10/22/2013  00:15:00      -94.544      -49.682      -12.991       21.097       18.004       16.720      445.074      324.159      279.565        0.631        0.052      106.803        9.272        0.008      337.199        9.012      865.007
10/22/2013  00:16:00     -113.267      -36.676       -8.823       13.309       14.442       12.035      177.135      208.564      144.851        0.739        0.027      119.057        5.037        0.002      337.209        9.029      865.017
10/22/2013  00:17:00     -112.105      -52.259       -9.586       18.460       14.508       13.622      340.774      210.477      185.560        0.806        0.037      123.687        9.067        0.005      337.160        8.945      865.017
10/22/2013  00:18:00     -116.166      -54.663       -7.585       18.655       18.552       13.028      348.017      344.185      169.738        0.870        0.043      128.385       10.491        0.007      337.173        8.969      865.026
10/22/2013  00:19:00     -120.504      -48.471      -11.174        9.808       18.279       11.444       96.197      334.107      130.961        0.878        0.028      129.887        9.213        0.005      337.159        8.945      865.036
10/22/2013  00:20:00     -113.964      -44.132      -10.373       11.877       15.546       10.131      141.067      241.675      102.635        0.776        0.024      122.210        5.388        0.002      337.163        8.952      865.024
10/22/2013  00:21:00     -131.922      -42.350      -13.130       12.959       11.504       10.037      167.924      132.353      100.751        0.989        0.020      138.553        7.975        0.003      337.223        9.052      865.028
10/22/2013  00:22:00     -110.002      -38.384      -13.828       10.689       15.815        9.122      114.263      250.100       83.216        0.711        0.022      116.506        5.243        0.002      337.213        9.035      865.037
10/22/2013  00:23:00     -107.448      -34.133      -13.235       11.279       17.265       10.267      127.206      298.084      105.417        0.671        0.027      112.739        6.864        0.004      337.247        9.091      865.042
10/22/2013  00:24:00      -88.179      -31.163      -16.488       18.266       17.968       10.600      333.645      322.863      112.358        0.489        0.038       93.524       11.189        0.014      337.247        9.091      865.046
10/22/2013  00:25:00      -75.975      -28.127       -8.736       16.793       22.073       11.344      282.016      487.197      128.695        0.377        0.045       81.014        7.426        0.008      337.208        9.028      865.043
10/22/2013  00:26:00      -76.333      -30.080      -12.208       17.205       20.746       13.189      296.006      430.386      173.955        0.389        0.045       82.046       10.549        0.017      337.248        9.096      865.053
10/22/2013  00:27:00      -88.983      -40.342      -11.542       14.234       16.350       11.245      202.618      267.323      126.456        0.514        0.030       97.700        7.022        0.005      337.216        9.041      865.054
10/22/2013  00:28:00      -98.778      -45.208      -11.611       17.293       16.655       11.600      299.052      277.382      134.566        0.632        0.036      108.631        6.593        0.004      337.168        8.959      865.054
10/22/2013  00:29:00     -113.324      -45.230      -15.587       10.548        9.808       11.413      111.255       96.192      130.268        0.773        0.017      122.017        8.441        0.005      337.122        8.883      865.057
10/22/2013  00:30:00      -97.911      -43.904      -14.066       11.862       10.753        8.695      140.708      115.628       75.606        0.602        0.017      107.303        2.414        0.001      337.083        8.816      865.066
10/22/2013  00:31:00     -123.832      -40.378      -13.590        9.376       12.689        7.941       87.905      161.003       63.058        0.873        0.016      130.248        3.785        0.001      337.131        8.897      865.057
10/22/2013  00:32:00     -124.969      -48.831      -14.731       12.622       17.550       11.294      159.320      308.007      127.562        0.941        0.030      134.171        7.434        0.003      337.139        8.910      865.053
10/22/2013  00:33:00     -120.697      -49.656       -8.000       16.013       20.441       10.369      256.428      417.829      107.506        0.894        0.039      130.513        8.373        0.004      337.146        8.924      865.048
10/22/2013  00:34:00      -70.577      -38.010        5.260       38.563       25.601       18.878     1487.103      655.436      356.394        0.448        0.125       80.162       18.139        0.051      337.082        8.817      865.059
10/22/2013  00:35:00     -117.357      -40.232       -6.186       16.654       12.914       11.452      277.362      166.776      131.157        0.800        0.029      124.062        4.965        0.002      337.024        8.718      865.061
10/22/2013  00:36:00      -98.764      -40.651       -0.425       23.520       17.264       15.428      553.210      298.054      238.012        0.625        0.054      106.803       15.562        0.021      336.956        8.604      865.066
10/22/2013  00:37:00     -105.327      -39.997       -4.326       20.559       12.670       12.331      422.678      160.524      152.048        0.672        0.037      112.666       10.061        0.008      336.904        8.517      865.070
10/22/2013  00:38:00      -93.676      -45.368        1.697       24.512       19.285       14.184      600.818      371.923      201.193        0.600        0.059      104.084       13.472        0.017      336.908        8.525      865.081
10/22/2013  00:39:00     -103.412      -57.868       -4.176       12.423       15.984       12.180      154.321      255.493      148.353        0.731        0.028      118.502        8.246        0.005      336.843        8.416      865.076
10/22/2013  00:40:00      -78.218      -54.528       -2.689       27.232       22.037       18.215      741.596      485.623      331.779        0.533        0.078       95.349       11.623        0.015      336.897        8.505      865.079
10/22/2013  00:41:00      -70.901      -48.464        2.629       37.107       20.610       18.574     1376.917      424.753      345.001        0.476        0.107       85.882       21.152        0.061      336.908        8.526      865.081
10/22/2013  00:42:00      -99.242      -50.616       -3.857       32.570       24.241       14.862     1060.782      587.650      220.865        0.715        0.093      111.405       15.387        0.019      336.958        8.608      865.083
10/22/2013  00:43:00      -96.844      -56.859       -3.191       35.052       17.756       17.085     1228.671      315.292      291.901        0.723        0.092      112.302       19.099        0.029      336.947        8.588      865.083
10/22/2013  00:44:00      -91.220      -51.461        3.216       25.285       21.719       14.659      639.331      471.722      214.879        0.615        0.066      104.734       11.720        0.013      336.951        8.597      865.076
10/22/2013  00:45:00      -53.981      -38.568        8.859       37.121       24.023       22.907     1377.953      577.122      524.721        0.348        0.124       66.343       23.244        0.123      336.873        8.468      865.081
10/22/2013  00:46:00      -68.178      -38.663        4.459       28.533       28.550       17.271      814.155      815.096      298.272        0.404        0.096       78.377       16.860        0.046      336.877        8.473      865.085
10/22/2013  00:47:00     -105.463      -52.227       -8.105       21.543       15.937       11.031      464.116      253.976      121.680        0.738        0.042      117.687       11.671        0.010      336.886        8.487      865.083
10/22/2013  00:48:00     -113.815      -50.238      -14.104       10.234       13.502        8.107      104.735      182.298       65.721        0.801        0.018      124.410        7.037        0.003      336.909        8.527      865.085
10/22/2013  00:49:00     -111.208      -44.486      -15.498       11.076        9.861        9.343      122.686       97.233       87.290        0.745        0.015      119.776        5.407        0.002      336.856        8.441      865.095
10/22/2013  00:50:00     -117.419      -51.677       -5.713       12.518       15.486       10.448      156.698      239.823      109.155        0.850        0.025      128.288        7.338        0.003      336.876        8.472      865.105
10/22/2013  00:51:00     -124.257      -53.035      -14.283        9.072       11.012       10.050       82.303      121.257      100.994        0.938        0.015      135.102        6.790        0.003      336.888        8.491      865.108
10/22/2013  00:52:00     -110.224      -50.585      -12.396       11.068       11.050        9.649      122.498      122.098       93.108        0.760        0.017      121.278        5.432        0.002      336.849        8.426      865.124
10/22/2013  00:53:00     -100.160      -48.176       -6.029       10.105        9.393        7.712      102.116       88.225       59.472        0.632        0.012      111.144        5.481        0.002      336.870        8.461      865.125
10/22/2013  00:54:00     -112.677      -53.533       -8.984       10.298       10.234        6.423      106.039      104.736       41.250        0.795        0.013      124.747        2.422        0.000      336.846        8.421      865.131
10/22/2013  00:55:00      -94.692      -48.180        3.278       34.278       23.235       17.687     1174.958      539.864      312.847        0.666        0.101      106.244       18.974        0.032      336.729        8.227      865.134
10/22/2013  00:56:00     -107.359      -43.163       -1.885       19.254       22.765       16.795      370.718      518.255      282.086        0.728        0.059      115.711       12.548        0.012      336.677        8.140      865.153
10/22/2013  00:57:00      -87.171      -56.783        0.637       38.984       21.117       25.324     1519.789      445.917      641.318        0.671        0.130      104.034       24.446        0.055      336.660        8.111      865.169
10/22/2013  00:58:00      -79.243      -50.977       -0.051       34.932       20.507       18.812     1220.226      420.548      353.874        0.544        0.100       94.224       20.953        0.049      336.682        8.148      865.177
10/22/2013  00:59:00      -69.286      -43.853       -2.780       38.044       20.728       19.800     1447.383      429.649      392.053        0.450        0.113       81.998       15.593        0.036      336.770        8.295      865.183
10/22/2013  01:00:00      -84.861      -70.117       -3.516       38.843       30.386       21.759     1508.759      923.299      473.459        0.752        0.145      110.081       19.262        0.031      336.791        8.331      865.184
10/22/2013  01:01:00     -133.316      -70.942      -10.402       22.144       19.803       15.088      490.362      392.144      227.652        1.201        0.056      151.016       10.807        0.005      336.832        8.399      865.172
10/22/2013  01:02:00     -136.457      -54.796       -7.903       17.262       17.533       12.115      297.974      307.422      146.783        1.122        0.038      147.048       10.402        0.005      336.721        8.214      865.165
10/22/2013  01:03:00     -106.018      -41.620       -4.280       32.427       20.063       12.619     1051.494      402.509      159.248        0.730        0.081      113.895       14.408        0.016      336.672        8.132      865.187
10/22/2013  01:04:00     -106.373      -50.124       -0.869       28.644       28.225       18.741      820.482      796.654      351.220        0.790        0.098      117.591       13.594        0.013      336.738        8.241      865.199
10/22/2013  01:05:00      -75.146      -33.531        1.477       29.523       27.835       14.281      871.612      774.782      203.961        0.431        0.093       82.288       15.890        0.037      336.711        8.197      865.204
10/22/2013  01:06:00      -64.748      -24.136        3.921       36.872       23.326       16.116     1359.530      544.083      259.729        0.348        0.108       69.100       14.907        0.047      336.705        8.187      865.205
10/22/2013  01:07:00      -80.490      -21.674        3.846       34.276       20.664       15.498     1174.825      427.013      240.182        0.440        0.092       83.357       16.815        0.041      336.743        8.251      865.212
10/22/2013  01:08:00     -101.785      -23.484       -2.722       26.515       22.750       15.106      703.035      517.547      228.202        0.618        0.072      104.459       11.734        0.013      336.707        8.191      865.200
10/22/2013  01:09:00     -100.610      -29.252       -3.595       28.842       20.564       15.676      831.848      422.865      245.725        0.625        0.075      104.776       14.637        0.020      336.718        8.209      865.201
10/22/2013  01:10:00     -101.172      -35.116       -6.276       18.017       18.453       11.706      324.598      340.510      137.026        0.616        0.040      107.092        7.864        0.005      336.691        8.164      865.213
10/22/2013  01:11:00      -71.218      -26.864        3.666       27.869       19.390       13.249      776.683      375.988      175.533        0.357        0.066       76.117       14.069        0.034      336.683        8.152      865.226
10/22/2013  01:12:00      -82.368      -26.309        1.368       30.933       20.493       13.266      956.824      419.953      175.983        0.452        0.078       86.468       13.079        0.023      336.695        8.171      865.218
10/22/2013  01:13:00      -98.026      -30.169       -0.463       22.254       20.016       15.819      495.249      400.642      250.237        0.583        0.057      102.564       11.507        0.013      336.658        8.109      865.212
10/22/2013  01:14:00     -104.038      -36.959        0.733       22.290       18.426       15.321      496.860      339.516      234.746        0.663        0.054      110.408       14.815        0.018      336.620        8.046      865.222
10/22/2013  01:15:00     -100.126      -31.323       -4.763       16.954       17.084       11.176      287.443      291.848      124.893        0.587        0.035      104.911        7.624        0.005      336.701        8.179      865.212
10/22/2013  01:16:00      -96.288      -46.794       -2.322       25.823       18.674       15.625      666.818      348.724      244.131        0.636        0.063      107.056       16.824        0.025      336.713        8.200      865.208
10/22/2013  01:17:00      -62.036      -37.022        6.583       38.740       21.991       22.458     1500.825      483.617      504.354        0.388        0.124       72.244       22.154        0.094      336.597        8.006      865.211
10/22/2013  01:18:00     -111.172      -47.693       -6.260       12.869       12.665        9.671      165.610      160.398       93.529        0.755        0.021      120.970        6.054        0.003      336.582        7.981      865.218
10/22/2013  01:19:00     -110.935      -49.862       -9.008       11.041       11.695        8.467      121.895      136.778       71.697        0.760        0.017      121.626        5.275        0.002      336.590        7.996      865.217
10/22/2013  01:20:00     -122.881      -32.359       -9.059       13.831       15.260        9.752      191.308      232.871       95.104        0.837        0.026      127.070        4.908        0.001      336.620        8.045      865.214
10/22/2013  01:21:00     -134.189      -43.918       -8.472       13.057       11.721        8.571      170.473      137.390       73.459        1.019        0.019      141.193        3.624        0.001      336.602        8.016      865.212
10/22/2013  01:22:00     -127.861      -25.465      -10.117       26.889       15.934       11.987      723.043      253.897      143.684        0.911        0.056      130.372       12.153        0.009      336.580        7.980      865.219
10/22/2013  01:23:00     -119.029      -21.663       -5.344       31.074       19.576       18.991      965.609      383.222      360.659        0.819        0.085      120.985       16.887        0.019      336.581        7.981      865.212
10/22/2013  01:24:00     -121.643      -24.408       -6.244       32.333       14.877       14.284     1045.402      221.311      204.036        0.845        0.074      124.068       11.040        0.008      336.504        7.851      865.206
10/22/2013  01:25:00     -134.730      -17.836       -8.466       36.954       23.025       15.604     1365.627      530.158      243.493        1.034        0.107      135.905       17.267        0.016      336.448        7.756      865.208
10/22/2013  01:26:00     -121.195      -26.080       -6.606       27.755       18.098       16.480      770.319      327.520      271.601        0.839        0.068      123.970       15.210        0.015      336.440        7.742      865.214
10/22/2013  01:27:00     -137.279      -29.217      -15.054       13.159       15.995       13.124      173.170      255.827      172.250        1.026        0.030      140.353        6.527        0.002      336.492        7.831      865.216
10/22/2013  01:28:00      -99.372      -50.430       -9.925       22.716       16.960       12.323      516.023      287.644      151.855        0.674        0.048      111.436        9.926        0.008      336.546        7.921      865.211
10/22/2013  01:29:00      -74.180      -51.467       -3.717       24.310       16.016       13.669      590.968      256.500      186.853        0.460        0.052       90.286        8.676        0.009      336.551        7.929      865.207
10/22/2013  01:30:00      -50.000      -37.453        2.991       29.028       22.915       19.100      842.603      525.102      364.792        0.282        0.087       62.471       13.026        0.043      336.519        7.875      865.207
10/22/2013  01:31:00      -61.303      -48.837        1.221       25.325       21.209       19.726      641.340      449.828      389.100        0.381        0.074       78.378       14.428        0.034      336.534        7.901      865.211
10/22/2013  01:32:00      -83.257      -50.604      -13.298       31.759       22.485       23.141     1008.657      505.591      535.490        0.586        0.102       97.429       20.374        0.044      336.482        7.815      865.199
10/22/2013  01:33:00     -103.836      -68.566      -13.549       18.149       27.974       13.858      329.387      782.526      192.058        0.849        0.065      124.431        9.690        0.006      336.402        7.680      865.188
10/22/2013  01:34:00      -98.997      -58.371      -11.160       28.558       19.275       16.522      815.555      371.525      272.974        0.740        0.073      114.924        9.313        0.007      336.338        7.572      865.182
10/22/2013  01:35:00      -88.953      -29.042      -10.223       35.485       30.567       20.725     1259.172      934.332      429.506        0.574        0.131       93.574       17.171        0.034      336.348        7.590      865.187
10/22/2013  01:36:00      -71.252      -35.126       -8.096       24.338       26.146       18.261      592.346      683.592      333.459        0.399        0.080       79.440        7.341        0.009      336.395        7.669      865.183
10/22/2013  01:37:00      -73.081      -34.298      -17.657       32.723       28.701       14.393     1070.769      823.765      207.163        0.446        0.105       80.729        6.173        0.006      336.447        7.755      865.185
10/22/2013  01:38:00      -86.191        0.348      -17.398       20.704       18.774       14.268      428.640      352.466      203.564        0.436        0.049       86.192       12.607        0.021      336.578        7.974      865.190
10/22/2013  01:39:00      -68.452        2.482      -14.444       13.743       11.163       12.405      188.865      124.613      153.885        0.268        0.023       68.497        7.448        0.012      336.606        8.021      865.191
10/22/2013  01:40:00      -52.836      -11.225       -8.010       11.658       11.374        8.292      135.917      129.378       68.751        0.166        0.017       54.015        4.753        0.008      336.755        8.270      865.185
10/22/2013  01:41:00      -51.875      -29.646       -4.019       14.503       13.282       11.752      210.332      176.412      138.112        0.206        0.026       59.749        7.092        0.014      336.770        8.295      865.182
10/22/2013  01:42:00      -67.447      -33.209      -16.400       15.753       15.874       10.998      248.145      251.975      120.954        0.327        0.031       75.179        3.586        0.002      336.628        8.057      865.187
10/22/2013  01:43:00      -76.753      -37.346       -9.604       24.284       12.408       10.291      589.725      153.963      105.905        0.411        0.042       85.357        5.647        0.004      336.409        7.691      865.197
10/22/2013  01:44:00      -54.577      -44.766      -13.083       31.527       17.389       15.342      993.949      302.372      235.368        0.334        0.077       70.588        9.358        0.018      336.473        7.798      865.206
10/22/2013  01:45:00      -96.401      -55.544       -6.331       31.611       18.703       13.328      999.224      349.784      177.637        0.697        0.076      111.258        6.200        0.003      336.385        7.651      865.208
10/22/2013  01:46:00      -80.574      -48.231        3.969       29.866       24.334       18.489      891.950      592.125      341.835        0.533        0.091       93.907       17.316        0.034      336.400        7.676      865.227
10/22/2013  01:47:00      -80.709      -41.425       -4.351       26.836       22.450       17.160      720.196      504.016      294.471        0.488        0.076       90.719       13.277        0.021      336.428        7.722      865.226
10/22/2013  01:48:00     -102.388      -87.263       -7.911       27.320       30.918       20.451      746.395      955.948      418.245        1.014        0.106      134.530       20.408        0.023      336.664        8.121      865.218
10/22/2013  01:49:00     -107.173      -54.307       -2.528       23.918       37.324       17.060      572.079     1393.050      291.035        0.835        0.113      120.147       10.196        0.007      336.550        7.927      865.211
10/22/2013  01:50:00      -98.114      -55.284        2.260       47.306       29.939       21.411     2237.853      896.354      458.439        0.814        0.180      112.617       25.321        0.051      336.477        7.805      865.215
10/22/2013  01:51:00      -81.429      -54.115        4.101       42.197       28.657       25.576     1780.618      821.225      654.142        0.642        0.163       97.770       22.624        0.054      336.398        7.673      865.224
10/22/2013  01:52:00      -89.819      -40.601       -0.704       32.001       24.339       16.346     1024.093      592.407      267.179        0.580        0.094       98.569       14.405        0.021      336.346        7.586      865.221
10/22/2013  01:53:00      -95.663      -41.670        4.080       27.584       21.716       19.469      760.886      471.589      379.052        0.626        0.081      104.345       16.057        0.024      336.384        7.649      865.218
10/22/2013  01:54:00     -103.643      -49.156       -8.114       15.720       12.678       12.993      247.131      160.728      168.812        0.690        0.029      114.709        6.641        0.003      336.417        7.705      865.219
10/22/2013  01:55:00      -86.272      -46.516       -5.552       28.108       23.129       17.464      790.043      534.970      305.000        0.563        0.082       98.013       16.219        0.027      336.369        7.625      865.227
10/22/2013  01:56:00     -107.484      -29.594       -1.217       20.439       18.226       13.600      417.740      332.192      184.959        0.668        0.047      111.484       11.864        0.011      336.353        7.596      865.230
10/22/2013  01:57:00     -105.718      -28.610       -7.342       18.634       18.440       13.458      347.243      340.034      181.119        0.646        0.043      109.521        8.906        0.007      336.351        7.593      865.221
10/22/2013  01:58:00     -111.368      -26.870       -0.632       26.030       16.005       14.887      677.576      256.164      221.635        0.714        0.058      114.563       14.541        0.016      336.244        7.415      865.214
10/22/2013  01:59:00     -102.220      -30.197       -0.750       24.942       18.725       13.736      622.105      350.627      188.666        0.626        0.058      106.586       11.302        0.011      336.251        7.428      865.216
10/22/2013  02:00:00     -112.513      -36.668       -0.075       27.254       22.025       15.024      742.780      485.108      225.712        0.773        0.073      118.338       12.663        0.011      336.162        7.280      865.217
10/22/2013  02:01:00     -103.705      -45.707       -0.693       30.936       23.982       14.958      957.015      575.135      223.731        0.730        0.088      113.331       13.045        0.013      336.231        7.395      865.218
10/22/2013  02:02:00     -103.967      -37.430       -1.954       26.703       25.942       17.870      713.062      672.968      319.323        0.696        0.085      110.499       14.977        0.018      336.233        7.398      865.217
10/22/2013  02:03:00      -91.728      -43.997        8.473       45.518       27.904       20.660     2071.880      778.645      426.818        0.685        0.164      101.734       19.011        0.035      336.303        7.514      865.220
10/22/2013  02:04:00      -99.464      -37.026        2.417       54.089       29.451       18.538     2925.660      867.360      343.673        0.770        0.207      106.132       22.034        0.043      336.319        7.541      865.224
10/22/2013  02:05:00     -134.556      -52.041        4.029       23.858       22.602       17.588      569.208      510.861      309.335        1.111        0.069      144.269       15.632        0.012      336.327        7.553      865.215
10/22/2013  02:06:00     -127.996      -52.742       -4.234       28.081       22.543       17.435      788.560      508.187      303.978        1.039        0.080      138.436       15.061        0.012      336.231        7.394      865.208
10/22/2013  02:07:00     -106.277      -36.207        1.808       44.334       25.310       18.111     1965.529      640.581      328.007        0.777        0.147      112.276       18.705        0.028      336.246        7.420      865.198
10/22/2013  02:08:00      -76.710      -28.794        2.153       27.615       21.742       13.898      762.576      472.733      193.146        0.407        0.071       81.936       13.318        0.026      336.251        7.426      865.199
10/22/2013  02:09:00      -76.167      -32.640       -1.115       20.999       18.540       14.764      440.942      343.736      217.984        0.394        0.050       82.866       13.258        0.026      336.228        7.390      865.209
10/22/2013  02:10:00      -86.063      -41.015       -2.442       19.629       17.082       11.115      385.283      291.790      123.545        0.495        0.040       95.337        8.965        0.009      336.263        7.448      865.199
10/22/2013  02:11:00      -89.934      -40.364       -1.822       22.008       17.666       11.497      484.357      312.072      132.176        0.532        0.046       98.576        9.597        0.009      336.283        7.481      865.197
10/22/2013  02:12:00     -113.558      -39.569       -9.144       12.108       11.885        8.461      146.601      141.248       71.595        0.745        0.018      120.254        5.089        0.002      336.249        7.424      865.200
10/22/2013  02:13:00     -123.559      -39.701       -5.292       11.982       15.601       10.032      143.578      243.404      100.639        0.868        0.024      129.781        4.836        0.001      336.187        7.321      865.211
10/22/2013  02:14:00     -112.945      -34.423       -7.073       16.490       20.498       12.105      271.924      420.177      146.533        0.741        0.042      118.074        9.793        0.007      336.111        7.193      865.218
10/22/2013  02:15:00      -65.170      -32.885        2.544       41.012       20.901       19.712     1681.995      436.834      388.554        0.392        0.125       72.997       24.046        0.109      336.013        7.029      865.226
10/22/2013  02:16:00      -57.964      -27.372        5.380       39.824       32.793       21.679     1585.915     1075.375      469.958        0.363        0.157       64.101       25.068        0.153      336.085        7.150      865.232
10/22/2013  02:17:00      -44.101      -34.581       12.000       40.899       23.316       18.404     1672.739      543.628      338.721        0.292        0.128       56.042       20.242        0.130      336.117        7.203      865.249
10/22/2013  02:18:00      -75.153      -56.339        9.145       35.343       29.190       23.072     1249.133      852.033      532.305        0.577        0.132       93.926       21.779        0.054      336.121        7.209      865.255
10/22/2013  02:19:00     -100.181      -57.770       -5.789       26.538       13.458       18.331      704.287      181.107      336.010        0.731        0.061      115.645       16.185        0.020      336.103        7.180      865.258
10/22/2013  02:20:00     -110.302      -44.010       -1.631       18.396       16.565       10.800      338.405      274.401      116.649        0.742        0.036      118.758       10.694        0.008      336.143        7.247      865.267
10/22/2013  02:21:00     -119.329      -43.578       -4.950       21.108       16.934       12.323      445.541      286.755      151.858        0.852        0.044      127.037        9.218        0.005      336.140        7.241      865.279
10/22/2013  02:22:00      -81.589      -35.195        5.365       36.778       28.385       16.323     1352.616      805.714      266.436        0.517        0.121       88.857       13.063        0.022      336.133        7.231      865.280
10/22/2013  02:23:00     -125.400      -52.766        2.552       35.040       18.475       16.402     1227.781      341.312      269.012        1.018        0.092      136.049       18.414        0.018      336.127        7.221      865.270
10/22/2013  02:24:00     -116.985      -42.789       -1.149       23.175       25.766       14.103      537.058      663.874      198.907        0.846        0.070      124.565       12.074        0.009      336.105        7.182      865.266
10/22/2013  02:25:00      -89.913      -45.557        6.281       34.615       24.280       19.970     1198.229      589.499      398.815        0.619        0.109      100.796       21.005        0.043      336.145        7.250      865.269
10/22/2013  02:26:00      -86.079      -53.400       -1.456       30.450       25.013       20.742      927.210      625.635      430.221        0.612        0.099      101.297       20.112        0.039      336.208        7.356      865.268
10/22/2013  02:27:00      -54.960      -46.411        5.051       41.488       26.811       19.344     1721.283      718.853      374.195        0.401        0.141       71.934       20.726        0.083      336.199        7.339      865.268
10/22/2013  02:28:00      -50.520      -37.822        3.666       31.124       20.906       16.085      968.711      437.073      258.742        0.283        0.083       63.109       17.200        0.074      336.186        7.320      865.268
10/22/2013  02:29:00      -67.955      -40.812        1.449       23.655       22.296       16.891      559.560      497.116      285.309        0.381        0.067       79.268       14.646        0.034      336.167        7.286      865.278
10/22/2013  02:30:00     -111.276      -41.626       -2.556       22.390       16.728       10.940      501.315      279.816      119.674        0.751        0.045      118.806        8.301        0.005      336.130        7.223      865.279
10/22/2013  02:31:00     -122.399      -51.334       -0.984       20.564       17.829       15.619      422.865      317.872      243.965        0.930        0.049      132.727       10.632        0.006      336.085        7.149      865.277
10/22/2013  02:32:00     -111.810      -43.089        3.409       30.492       23.293       16.981      929.736      542.578      288.361        0.806        0.088      119.825       16.395        0.019      336.054        7.099      865.271
10/22/2013  02:33:00      -78.468      -53.527        3.881       32.677       20.963       17.548     1067.792      439.430      307.922        0.543        0.091       94.986       13.034        0.019      336.025        7.049      865.272
10/22/2013  02:34:00      -73.459      -34.640        2.859       28.085       16.487       14.196      788.783      271.822      201.534        0.393        0.063       81.217       13.565        0.028      336.030        7.056      865.275
10/22/2013  02:35:00      -79.583      -38.999       -0.102       25.024       21.924       15.247      626.196      480.646      232.477        0.460        0.067       88.625       13.410        0.023      335.997        7.001      865.271
10/22/2013  02:36:00      -53.352      -23.046        8.022       35.579       25.344       18.666     1265.846      642.325      348.424        0.285        0.113       58.117       15.490        0.071      335.975        6.967      865.266
10/22/2013  02:37:00      -84.534      -38.202        4.253       31.782       17.860       18.743     1010.099      318.985      351.316        0.515        0.084       92.765       18.569        0.040      335.917        6.869      865.250
10/22/2013  02:38:00      -64.637      -26.676       10.426       47.134       27.319       21.170     2221.644      746.353      448.182        0.421        0.171       69.926       23.891        0.117      335.908        6.854      865.249
10/22/2013  02:39:00      -52.993      -38.546        8.428       39.577       18.598       20.326     1566.314      345.896      413.154        0.334        0.116       65.529       22.151        0.114      335.951        6.925      865.244
10/22/2013  02:40:00      -50.354      -26.624        4.582       28.694       19.769       18.007      823.343      390.829      324.264        0.240        0.077       56.960       13.717        0.058      335.977        6.968      865.236
10/22/2013  02:41:00      -65.165      -42.563        7.127       32.313       30.368       17.741     1044.107      922.232      314.754        0.419        0.114       77.833       18.380        0.056      335.975        6.966      865.225
10/22/2013  02:42:00     -100.763      -44.218        2.906       26.727       20.468       14.759      714.358      418.947      217.828        0.673        0.068      110.038       14.788        0.018      335.958        6.937      865.226
10/22/2013  02:43:00     -114.665      -44.191       -0.454       16.676       13.586       11.412      278.088      184.584      130.241        0.785        0.030      122.886        9.344        0.006      336.002        7.011      865.217
10/22/2013  02:44:00      -80.454      -42.950        3.681       36.354       28.554       18.855     1321.628      815.334      355.494        0.541        0.125       91.200       16.867        0.034      335.951        6.926      865.204
10/22/2013  02:45:00      -95.534      -54.279       -1.399       30.630       21.518       17.835      938.215      463.018      318.101        0.690        0.086      109.877       14.549        0.018      335.889        6.822      865.194
10/22/2013  02:46:00     -121.689      -42.235       -3.596       19.955       21.723       13.775      398.194      471.889      189.740        0.883        0.053      128.809       12.793        0.010      335.919        6.872      865.190
10/22/2013  02:47:00      -99.102      -33.276        3.398       23.500       23.551       16.414      552.254      554.629      269.418        0.616        0.069      104.540       12.627        0.015      335.786        6.653      865.198
10/22/2013  02:48:00      -96.362      -24.146        1.657       32.916       27.836       15.779     1083.469      774.858      248.986        0.599        0.105       99.341       18.664        0.035      335.720        6.542      865.198
10/22/2013  02:49:00      -87.697      -34.374        0.561       27.010       16.381       15.298      729.530      268.332      234.038        0.505        0.062       94.193       15.094        0.026      335.749        6.589      865.194
10/22/2013  02:50:00     -121.493      -30.256      -10.546       21.430       17.319       16.062      459.233      299.931      257.975        0.840        0.051      125.203       14.113        0.013      335.731        6.560      865.187
10/22/2013  02:51:00     -129.429      -21.366      -10.125       22.394       16.637       12.357      501.478      276.806      152.685        0.912        0.047      131.181        9.372        0.005      335.759        6.607      865.188
10/22/2013  02:52:00     -102.820      -12.997       -3.980       36.759       23.731       16.720     1351.239      563.162      279.564        0.647        0.110      103.638       17.295        0.028      335.764        6.615      865.174
10/22/2013  02:53:00      -84.229      -39.974       -7.310       31.118       27.446       15.802      968.338      753.257      249.696        0.536        0.099       93.233       14.858        0.025      335.681        6.476      865.162
10/22/2013  02:54:00      -90.906      -43.588      -12.033       29.334       19.129       17.030      860.480      365.923      290.029        0.591        0.076      100.816       15.961        0.025      335.724        6.549      865.169
10/22/2013  02:55:00      -87.580      -44.785      -14.973       22.097       24.864       19.476      488.279      618.238      379.323        0.569        0.074       98.366       16.160        0.027      335.717        6.537      865.175
10/22/2013  02:56:00     -119.950      -37.501      -17.764       19.266       22.422       15.720      371.190      502.742      247.123        0.862        0.056      125.675       12.216        0.009      335.703        6.514      865.172
10/22/2013  02:57:00     -134.003      -16.028      -17.890       17.841       15.031       12.091      318.285      225.944      146.201        0.961        0.035      134.958        6.675        0.002      335.733        6.563      865.166
10/22/2013  02:58:00     -116.295      -23.254      -14.641       15.375       16.200       13.699      236.385      262.445      187.656        0.748        0.034      118.597       10.794        0.008      335.723        6.549      865.164
10/22/2013  02:59:00     -104.843      -29.922      -11.661       14.992       21.986       11.759      224.769      483.369      138.265        0.643        0.042      109.030        8.212        0.006      335.716        6.537      865.158
10/22/2013  03:00:00     -118.480      -24.007      -16.582       19.253       16.733       14.314      370.680      279.995      204.905        0.787        0.043      120.888       10.167        0.007      335.770        6.626      865.149
10/22/2013  03:01:00     -135.075      -38.927      -17.881       17.803       16.891       13.842      316.959      285.296      191.594        1.044        0.040      140.572       10.721        0.006      335.808        6.687      865.145
10/22/2013  03:02:00     -134.272      -36.253      -15.484       30.297       20.678       17.022      917.885      427.575      289.760        1.061        0.082      139.079       16.399        0.014      335.797        6.669      865.150
10/22/2013  03:03:00     -136.461      -34.869      -19.549       15.090       14.263       10.904      227.694      203.426      118.887        1.038        0.028      140.846        9.967        0.005      335.710        6.526      865.147
10/22/2013  03:04:00     -132.423      -46.119       -7.681       13.736       15.333       11.556      188.678      235.094      133.536        1.014        0.028      140.224        6.691        0.002      335.709        6.525      865.146
10/22/2013  03:05:00     -104.486      -37.064       -1.906       22.342       17.496       14.275      499.145      306.108      203.789        0.665        0.050      110.865       13.369        0.015      335.748        6.589      865.145
10/22/2013  03:06:00      -93.939      -40.600       -2.086       18.224       19.818       12.397      332.106      392.755      153.685        0.568        0.044      102.337        9.180        0.008      335.760        6.609      865.142
10/22/2013  03:07:00     -112.033      -45.168      -11.426       13.664       15.269        9.097      186.711      233.138       82.757        0.761        0.025      120.795        6.411        0.003      335.814        6.697      865.138
10/22/2013  03:08:00     -108.931      -39.557       -8.727       11.008       14.468       10.618      121.176      209.320      112.750        0.698        0.022      115.891        6.582        0.003      335.755        6.601      865.129
10/22/2013  03:09:00     -105.896      -43.775       -5.135       16.378       14.648       12.076      268.228      214.553      145.833        0.689        0.031      114.587       10.162        0.008      335.676        6.468      865.138
10/22/2013  03:10:00      -79.656      -45.715       -0.402       28.597       19.574       20.726      817.801      383.145      429.578        0.503        0.082       91.842       18.076        0.039      335.727        6.554      865.133
10/22/2013  03:11:00     -109.081      -33.289       -9.303       19.177       13.432       13.279      367.758      180.423      176.335        0.691        0.036      114.047        9.623        0.007      335.771        6.628      865.117
10/22/2013  03:12:00     -122.230      -31.762      -15.865       11.932       17.884       11.861      142.379      319.848      140.691        0.840        0.030      126.289        6.947        0.003      335.727        6.555      865.103
10/22/2013  03:13:00      -96.223      -30.304      -12.691       13.123       21.753       11.697      172.213      473.198      136.815        0.556        0.039      100.882        9.183        0.008      335.699        6.507      865.096
10/22/2013  03:14:00      -89.371      -52.225      -11.373       12.260       10.939       11.976      150.308      119.669      143.427        0.563        0.021      103.511        8.101        0.006      335.784        6.649      865.088
10/22/2013  03:15:00     -105.931      -44.165      -18.029       10.620       10.801       10.188      112.781      116.658      103.800        0.692        0.017      114.769        4.617        0.002      335.754        6.600      865.079
10/22/2013  03:16:00      -99.091      -56.361      -13.251       19.055       15.608       13.275      363.107      243.621      176.215        0.698        0.039      113.998        9.752        0.007      335.743        6.580      865.066
10/22/2013  03:17:00     -102.290      -51.473      -10.731       14.321       12.798       13.317      205.097      163.796      177.334        0.689        0.027      114.511        8.454        0.005      335.663        6.447      865.068
10/22/2013  03:18:00     -105.583      -40.192      -11.868        7.835        8.758        6.049       61.392       76.710       36.589        0.654        0.009      112.974        1.975        0.000      335.600        6.342      865.068
10/22/2013  03:19:00     -117.028      -51.208      -12.218        9.845       14.876        7.937       96.919      221.286       62.994        0.842        0.019      127.741        4.879        0.001      335.691        6.493      865.055
10/22/2013  03:20:00     -121.453      -56.952      -13.063       11.886       13.782       10.444      141.269      189.952      109.078        0.930        0.022      134.143        6.824        0.003      335.723        6.548      865.051
10/22/2013  03:21:00     -119.547      -50.985      -16.143       11.408       14.112        8.386      130.148      199.141       70.318        0.878        0.020      129.965        4.925        0.001      335.755        6.600      865.037
10/22/2013  03:22:00     -119.853      -38.615      -18.038       10.338       21.682       10.855      106.879      470.122      117.833        0.844        0.035      125.920        6.246        0.002      335.725        6.550      865.034
10/22/2013  03:23:00     -116.725      -38.619      -16.671       19.507       14.284       12.801      380.539      204.047      163.876        0.807        0.037      122.947       10.554        0.007      335.653        6.429      865.039
10/22/2013  03:24:00      -99.098      -25.139      -15.757       27.424       14.260       10.683      752.069      203.359      114.126        0.588        0.053      102.237        6.188        0.004      335.598        6.340      865.042
10/22/2013  03:25:00     -103.779      -35.972      -11.799       11.812       13.332        9.354      139.528      177.729       87.505        0.630        0.020      109.837        3.561        0.001      335.607        6.354      865.044
10/22/2013  03:26:00     -115.705      -39.884      -15.428        9.601       10.698        7.866       92.174      114.450       61.875        0.774        0.013      122.387        5.797        0.002      335.665        6.452      865.037
10/22/2013  03:27:00     -121.964      -36.832      -15.030       10.327       10.035        7.863      106.657      100.708       61.821        0.836        0.013      127.404        3.981        0.001      335.678        6.472      865.047
10/22/2013  03:28:00     -123.483      -36.998      -14.079        8.991        9.935        6.836       80.832       98.707       46.726        0.852        0.011      128.907        3.948        0.001      335.688        6.488      865.046
10/22/2013  03:29:00     -126.479      -36.266      -15.244        8.899       10.252        7.454       79.199      105.098       55.565        0.889        0.012      131.576        3.989        0.001      335.654        6.433      865.038
10/22/2013  03:30:00     -107.254      -54.642      -10.047       10.711       10.967        9.124      114.715      120.277       83.245        0.745        0.016      120.370        6.045        0.003      335.697        6.504      865.042
10/22/2013  03:31:00      -99.159      -48.256       -9.072        8.443        8.452        6.941       71.288       71.432       48.172        0.622        0.010      110.278        3.433        0.001      335.679        6.475      865.047
10/22/2013  03:32:00      -92.792      -24.674      -10.835        8.986       10.356        9.048       80.751      107.245       81.858        0.480        0.013       96.017        5.030        0.003      335.615        6.369      865.036
10/22/2013  03:33:00      -95.489      -43.008      -14.681       13.377       14.812       10.450      178.944      219.410      109.204        0.585        0.025      104.728       10.245        0.010      335.751        6.593      865.030
10/22/2013  03:34:00     -113.990      -43.578      -13.882       10.397       12.763        8.946      108.091      162.905       80.038        0.772        0.018      122.036        4.750        0.002      335.767        6.620      865.026
10/22/2013  03:35:00     -120.541      -46.023       -9.951       13.896       12.368        7.295      193.088      152.962       53.215        0.857        0.020      129.028        3.845        0.001      335.704        6.516      865.024
10/22/2013  03:36:00     -107.938      -50.185      -15.548        9.208        9.194        7.435       84.795       84.532       55.283        0.732        0.011      119.034        3.780        0.001      335.711        6.528      865.026
10/22/2013  03:37:00      -93.042      -43.567      -14.094       10.523       11.560        7.694      110.729      133.632       59.204        0.553        0.015      102.737        4.311        0.002      335.669        6.458      865.021
10/22/2013  03:38:00      -95.011      -40.708       -5.455       11.231       14.208       11.925      126.140      201.876      142.211        0.559        0.024      103.364        6.945        0.005      335.682        6.478      865.023
10/22/2013  03:39:00      -59.534      -39.530        0.591       29.100       22.271       15.823      846.789      495.985      250.374        0.335        0.080       71.462       14.643        0.042      335.639        6.406      865.031
10/22/2013  03:40:00      -87.679      -51.420        1.980       33.855       22.320       19.171     1146.186      498.183      367.535        0.617        0.101      101.644       19.112        0.035      335.523        6.214      865.037
10/22/2013  03:41:00      -71.831      -52.141       -4.252       24.951       17.905       17.379      622.528      320.580      302.045        0.457        0.062       88.760       15.056        0.029      335.580        6.308      865.038
10/22/2013  03:42:00      -68.186      -44.188        0.591       25.123       18.519       16.735      631.177      342.964      280.046        0.393        0.063       81.252       11.728        0.021      335.576        6.302      865.043
10/22/2013  03:43:00      -96.199      -59.141       -4.229       21.947       13.760       14.658      481.669      189.327      214.851        0.683        0.044      112.924       10.611        0.009      335.569        6.290      865.044
10/22/2013  03:44:00     -115.252      -65.572       -0.001       24.375       21.380       17.604      594.125      457.094      309.893        0.947        0.068      132.599        9.332        0.005      335.606        6.353      865.038
10/22/2013  03:45:00      -93.310      -58.766        3.664       28.516       21.597       17.936      813.174      466.411      321.702        0.689        0.080      110.273       15.933        0.021      335.567        6.287      865.047
10/22/2013  03:46:00      -80.109      -41.353        3.302       36.219       19.878       19.561     1311.811      395.134      382.628        0.511        0.104       90.153       22.330        0.061      335.623        6.380      865.056
10/22/2013  03:47:00      -93.558      -37.343       -4.204       23.735       17.409       13.066      563.348      303.064      170.716        0.560        0.052      100.736        8.157        0.007      335.590        6.326      865.051
10/22/2013  03:48:00     -108.579      -41.475       -2.470       24.158       18.162       12.658      583.595      329.851      160.216        0.729        0.054      116.231       11.643        0.010      335.659        6.440      865.043
10/22/2013  03:49:00      -93.794      -39.797        1.361       38.897       27.301       16.555     1512.997      745.362      274.057        0.646        0.127      101.888       19.275        0.036      335.705        6.517      865.044
10/22/2013  03:50:00     -105.877      -33.344        1.789       28.058       16.350       15.041      787.243      267.317      226.236        0.680        0.064      111.003       15.942        0.021      335.736        6.570      865.054
10/22/2013  03:51:00     -115.985      -31.865       -5.092       15.352       11.897        8.191      235.687      141.549       67.094        0.747        0.022      120.283        5.728        0.002      335.755        6.602      865.064
10/22/2013  03:52:00      -98.658      -39.737       -5.643       15.897       11.937        7.909      252.705      142.496       62.552        0.590        0.023      106.360        6.582        0.004      335.751        6.594      865.065
10/22/2013  03:53:00      -90.225      -36.324       -5.874       11.663       11.260        9.515      136.030      126.783       90.541        0.492        0.018       97.262        6.298        0.004      335.612        6.363      865.060
10/22/2013  03:54:00      -98.733      -34.763      -10.902       20.101       16.063       12.767      404.047      258.031      162.994        0.595        0.041      104.675        4.519        0.002      335.563        6.281      865.069
10/22/2013  03:55:00     -104.493      -19.706      -15.488       23.048       13.539       12.571      531.222      183.311      158.039        0.621        0.044      106.335        4.941        0.002      335.505        6.184      865.077
10/22/2013  03:56:00     -122.382      -41.651      -16.629       17.012       15.293       10.744      289.403      233.882      115.436        0.881        0.032      129.275        4.483        0.001      335.399        6.006      865.069
10/22/2013  03:57:00     -123.979      -62.089      -10.492       21.439       18.032       13.900      459.626      325.138      193.198        1.016        0.049      138.658       13.033        0.009      335.293        5.829      865.064
10/22/2013  03:58:00      -95.605      -68.023       -9.957       40.176       24.154       20.881     1614.113      583.433      435.998        0.825        0.132      117.335       17.976        0.023      335.299        5.841      865.059
10/22/2013  03:59:00     -135.080      -53.376      -13.165       26.419       31.895       19.097      697.976     1017.271      364.702        1.167        0.104      145.244       13.144        0.008      335.256        5.769      865.057
10/22/2013  04:00:00     -104.223      -62.656       -8.381       25.226       23.648       19.419      636.347      559.228      377.094        0.822        0.079      121.607       15.698        0.017      335.246        5.751      865.061
10/22/2013  04:01:00      -95.982      -47.598      -18.435       21.398       30.517       13.022      457.862      931.283      169.582        0.669        0.078      107.136       11.282        0.011      335.246        5.751      865.053
10/22/2013  04:02:00     -108.408      -48.344      -25.554       18.568       22.971       13.755      344.763      527.673      189.212        0.790        0.053      118.699        7.299        0.004      335.255        5.766      865.049
10/22/2013  04:03:00      -73.637      -52.857      -10.958       23.135       32.689       22.576      535.224     1068.586      509.667        0.522        0.106       90.644       21.548        0.057      335.313        5.862      865.052
10/22/2013  04:04:00      -77.022      -50.580       -6.396       20.697       21.329       15.789      428.360      454.909      249.287        0.483        0.057       92.145       12.194        0.018      335.316        5.868      865.061
10/22/2013  04:05:00     -109.714      -30.545      -15.773       20.492       19.691       12.954      419.922      387.738      167.794        0.710        0.049      113.887        6.924        0.004      335.340        5.908      865.069
10/22/2013  04:06:00     -130.953      -27.242      -16.709       15.062       15.146       12.722      226.850      229.403      161.856        0.939        0.031      133.757        8.274        0.004      335.338        5.905      865.072
10/22/2013  04:07:00     -125.989      -39.013      -14.556       12.820       11.789        8.138      164.357      138.980       66.228        0.899        0.018      131.891        2.352        0.000      335.365        5.948      865.063
10/22/2013  04:08:00      -89.848      -37.572       -4.797       23.397       15.246       17.285      547.427      232.439      298.777        0.529        0.054       97.387       13.756        0.020      335.402        6.010      865.061
10/22/2013  04:09:00     -110.036      -52.965       -8.409       13.176       12.505        8.398      173.608      156.364       70.526        0.769        0.020      122.120        4.836        0.002      335.571        6.295      865.056
10/22/2013  04:10:00     -105.582      -48.243       -5.203       15.060       14.155        9.033      226.805      200.373       81.590        0.701        0.025      116.082        7.474        0.004      335.617        6.371      865.047
10/22/2013  04:11:00      -88.636      -36.390       -1.567       14.103       14.666        9.762      198.901      215.081       95.297        0.485        0.025       95.816        7.905        0.007      335.668        6.456      865.043
10/22/2013  04:12:00      -74.786      -36.076       -4.189       13.566       11.049       13.415      184.031      122.077      179.957        0.370        0.024       83.033        7.314        0.008      335.595        6.334      865.042
10/22/2013  04:13:00      -95.880      -33.071      -13.714       12.240        8.963        8.862      149.830       80.339       78.541        0.539        0.015      101.423        7.492        0.005      335.512        6.195      865.044
10/22/2013  04:14:00     -115.459      -31.820      -12.460        8.669       11.024        7.766       75.146      121.528       60.314        0.738        0.013      119.763        3.755        0.001      335.430        6.056      865.048
10/22/2013  04:15:00     -123.806      -36.314      -12.261       11.365       10.906        8.546      129.162      118.945       73.032        0.856        0.016      129.022        2.526        0.000      335.421        6.044      865.047
10/22/2013  04:16:00     -107.554      -29.086       -6.729       15.716        8.750        8.657      246.997       76.571       74.947        0.643        0.020      111.417        4.102        0.001      335.400        6.006      865.052
10/22/2013  04:17:00      -89.642      -39.961      -12.088       11.673        8.491        8.100      136.265       72.092       65.613        0.503        0.014       98.146        4.393        0.002      335.401        6.009      865.052
10/22/2013  04:18:00      -94.285      -47.601      -16.783        9.751       11.585        8.357       95.088      134.208       69.844        0.587        0.015      105.620        5.292        0.003      335.370        5.957      865.061
10/22/2013  04:19:00     -109.935      -36.734      -13.155        9.937       10.030       10.914       98.743      100.610      119.125        0.696        0.016      115.910        6.652        0.003      335.332        5.894      865.062
10/22/2013  04:20:00     -108.717      -49.800       -6.476       12.693       14.873        8.873      161.120      221.199       78.738        0.740        0.023      119.580        4.138        0.001      335.374        5.965      865.048
10/22/2013  04:21:00     -115.638      -51.748       -6.248       10.694       12.081        7.980      114.364      145.960       63.678        0.821        0.016      126.689        3.880        0.001      335.363        5.947      865.034
10/22/2013  04:22:00     -123.158      -34.133      -13.018       14.704       12.349       10.362      216.211      152.506      107.364        0.849        0.024      127.801        7.079        0.003      335.411        6.026      865.026
10/22/2013  04:23:00     -128.562      -42.613      -16.653        9.263       13.271       11.085       85.802      176.116      122.882        0.950        0.019      135.440        8.089        0.004      335.447        6.087      865.029
10/22/2013  04:24:00     -127.163      -56.932       -6.269       17.462       14.200       11.258      304.927      201.644      126.742        1.004        0.032      139.326        8.368        0.004      335.394        5.998      865.025
10/22/2013  04:25:00      -89.127      -29.820       -1.056       23.456       24.940       14.678      550.204      621.996      215.439        0.511        0.069       93.983       10.500        0.012      335.307        5.853      865.020
10/22/2013  04:26:00      -94.916      -41.203       -6.464       21.215       17.482       12.669      450.064      305.616      160.507        0.583        0.046      103.473       10.365        0.010      335.278        5.804      865.019
10/22/2013  04:27:00     -120.003      -46.026       -5.710       17.015        9.971       11.668      289.518       99.426      136.132        0.854        0.026      128.527       10.857        0.007      335.266        5.784      865.020
10/22/2013  04:28:00     -104.437      -33.185       -0.387       18.745       18.251       12.270      351.369      333.083      150.555        0.642        0.042      109.583        9.121        0.007      335.221        5.711      865.023
10/22/2013  04:29:00     -118.153      -44.193       -4.509       15.969       14.778       12.717      254.997      218.377      161.720        0.828        0.032      126.148        9.552        0.006      335.172        5.628      865.025
10/22/2013  04:30:00     -103.482      -40.167       -4.873       24.616       20.335       13.110      605.971      413.517      171.870        0.677        0.060      111.004       11.877        0.011      335.181        5.644      865.025
10/22/2013  04:31:00     -104.334      -34.695       -5.433       30.458       18.526       13.410      927.671      343.225      179.835        0.678        0.073      109.951       13.936        0.016      335.207        5.688      865.028
10/22/2013  04:32:00      -90.883      -19.830        0.279       25.936       17.706       15.356      672.651      313.498      235.802        0.494        0.061       93.022       13.805        0.022      335.114        5.533      865.027
10/22/2013  04:33:00     -102.397      -28.273       -8.136       29.412       19.073       17.231      865.051      363.771      296.902        0.644        0.076      106.229       16.859        0.025      335.134        5.566      865.023
10/22/2013  04:34:00     -114.144      -41.839       -7.662       22.553       12.290       14.051      508.626      151.047      197.436        0.785        0.043      121.570       13.960        0.013      335.193        5.662      865.015
10/22/2013  04:35:00     -104.551      -42.402       -8.158       15.443       11.240        9.945      238.481      126.348       98.905        0.663        0.023      112.822        8.051        0.005      335.182        5.645      865.007
10/22/2013  04:36:00      -89.731      -39.118       -2.703       27.754       16.189       14.296      770.309      262.080      204.386        0.541        0.062       97.887       17.268        0.031      335.094        5.501      865.018
10/22/2013  04:37:00     -114.459      -36.403      -12.970       10.229       10.092        7.671      104.630      101.845       58.840        0.743        0.013      120.108        4.245        0.001      335.221        5.711      865.038
10/22/2013  04:38:00     -105.365      -48.224       -2.457       22.057       19.530       13.865      486.531      381.431      192.241        0.725        0.053      115.876       13.606        0.014      335.104        5.517      865.044
10/22/2013  04:39:00     -111.759      -48.211       -5.370       19.859       12.987       15.179      394.364      168.670      230.403        0.782        0.040      121.714       14.672        0.015      335.101        5.513      865.049
10/22/2013  04:40:00      -67.451      -34.601        4.731       27.585       26.361       17.251      760.923      694.923      297.581        0.376        0.088       75.808       14.512        0.037      335.068        5.457      865.053
10/22/2013  04:41:00      -50.840      -30.448        3.130       30.104       23.211       16.317      906.257      538.752      266.260        0.262        0.086       59.260       13.469        0.052      335.138        5.573      865.062
10/22/2013  04:42:00      -60.139      -38.836        5.208       32.984       27.383       22.049     1087.974      749.802      486.146        0.374        0.116       71.589       17.497        0.060      335.206        5.685      865.082
10/22/2013  04:43:00      -66.449      -48.210        4.429       45.429       26.306       22.338     2063.807      691.986      498.970        0.501        0.163       82.096       25.465        0.096      335.142        5.580      865.089
10/22/2013  04:44:00     -101.773      -60.177        4.655       23.775       18.164       15.789      565.236      329.945      249.287        0.757        0.057      118.233       14.357        0.015      335.160        5.609      865.094
10/22/2013  04:45:00      -56.263      -30.791        4.390       35.240       28.002       18.572     1241.826      784.122      344.937        0.325        0.119       64.137       18.741        0.085      335.183        5.646      865.101
10/22/2013  04:46:00      -96.846      -27.157        3.389       26.944       22.676       15.863      725.986      514.180      251.642        0.581        0.075      100.581       14.735        0.021      335.200        5.675      865.112
10/22/2013  04:47:00      -86.582      -41.949        2.167       42.378       26.692       17.736     1795.903      712.441      314.562        0.604        0.141       96.209       19.424        0.041      335.164        5.615      865.115
10/22/2013  04:48:00      -91.861      -34.857        3.654       31.171       24.370       16.922      971.612      593.884      286.369        0.576        0.093       98.251       16.114        0.027      335.095        5.504      865.117
10/22/2013  04:49:00      -79.064      -26.423       -0.678       35.379       17.505       13.741     1251.690      306.442      188.816        0.435        0.087       83.362       15.570        0.035      335.100        5.511      865.127
10/22/2013  04:50:00     -108.256      -32.415       -4.372       22.598       17.477       13.815      510.665      305.436      190.858        0.690        0.050      113.005        9.686        0.007      335.091        5.496      865.146
10/22/2013  04:51:00      -75.652      -25.064       -0.694       27.557       20.609       13.354      759.369      424.735      178.317        0.386        0.068       79.696       10.763        0.018      335.061        5.445      865.147
10/22/2013  04:52:00      -61.817      -24.115        1.875       18.942       20.848       14.435      358.801      434.656      208.368        0.270        0.050       66.354       11.022        0.028      335.120        5.542      865.152
10/22/2013  04:53:00      -98.711      -21.682      -10.699       20.173       13.604       11.254      406.963      185.057      126.648        0.552        0.036      101.064        8.083        0.006      335.095        5.502      865.156
10/22/2013  04:54:00     -101.353      -26.492       -9.959       22.416       18.903       14.369      502.460      357.336      206.480        0.607        0.053      104.758       11.697        0.012      334.990        5.327      865.166
10/22/2013  04:55:00     -101.973      -16.907       -7.058       25.186       21.147       14.054      634.345      447.208      197.517        0.601        0.064      103.365       15.035        0.021      334.982        5.314      865.170
10/22/2013  04:56:00     -106.931      -21.340       -4.674       29.202       19.513       15.616      852.758      380.752      243.873        0.669        0.074      109.040       14.997        0.019      334.933        5.232      865.171
10/22/2013  04:57:00     -116.226      -27.316      -12.064       19.158       19.858       14.120      367.014      394.356      199.370        0.768        0.048      119.393       12.456        0.011      334.971        5.296      865.187
10/22/2013  04:58:00     -102.927      -43.588       -8.968       16.778       22.178       11.029      281.513      491.870      121.634        0.673        0.045      111.776        7.646        0.005      334.973        5.300      865.200
10/22/2013  04:59:00     -111.720      -33.877       -7.370       15.645       13.275       13.360      244.773      176.213      178.485        0.714        0.030      116.743       11.601        0.010      334.933        5.232      865.207
10/22/2013  05:00:00     -110.475      -32.397      -11.743       20.399       16.397        9.617      416.105      268.864       92.491        0.708        0.039      115.127        7.809        0.005      334.946        5.254      865.205
10/22/2013  05:01:00     -106.733      -26.644      -15.746       14.208       14.177       14.170      201.863      200.980      200.775        0.648        0.030      110.009       10.909        0.010      334.938        5.240      865.207
10/22/2013  05:02:00     -102.232      -46.467       -7.359       15.351       20.123       11.409      235.646      404.922      130.166        0.672        0.039      112.296        7.908        0.005      334.939        5.243      865.216
10/22/2013  05:03:00     -102.818      -37.791      -16.813       15.838       21.186       11.506      250.855      448.845      132.385        0.656        0.042      109.543        9.993        0.008      334.857        5.106      865.221
10/22/2013  05:04:00      -99.753      -38.257      -18.449       19.342       18.385       14.240      374.094      337.993      202.788        0.633        0.046      106.838       10.452        0.010      334.885        5.154      865.221
10/22/2013  05:05:00      -67.846      -33.586        1.206       43.870       28.687       21.244     1924.593      822.944      451.312        0.447        0.160       75.704       22.229        0.086      334.896        5.171      865.217
10/22/2013  05:06:00      -78.007      -22.003      -13.859       23.824       19.279       18.907      567.590      371.669      357.461        0.403        0.065       81.051        8.265        0.010      334.885        5.152      865.212
10/22/2013  05:07:00      -81.951      -44.747      -18.201       22.308       20.901       14.218      497.640      436.857      202.165        0.509        0.057       93.372        7.776        0.007      334.883        5.150      865.228
10/22/2013  05:08:00     -112.037      -53.524       -6.084       32.870       18.266       15.630     1080.456      333.633      244.287        0.856        0.083      124.166       13.972        0.013      334.941        5.246      865.235
10/22/2013  05:09:00      -63.327      -31.627        8.669       28.233       32.428       20.837      797.074     1051.585      434.177        0.368        0.114       70.786       16.095        0.052      334.883        5.150      865.230
10/22/2013  05:10:00      -59.034      -48.265        3.694       33.960       23.605       19.549     1153.252      557.200      382.160        0.396        0.105       76.253       17.881        0.055      335.000        5.344      865.232
10/22/2013  05:11:00      -60.269      -67.760        5.670       31.562       30.965       18.571      996.186      958.844      344.894        0.528        0.115       90.685       17.423        0.037      335.145        5.585      865.236
10/22/2013  05:12:00      -38.422      -44.248        9.697       38.337       31.769       26.599     1469.725     1009.271      707.485        0.336        0.159       58.602       21.696        0.137      335.199        5.673      865.239
10/22/2013  05:13:00     -107.639      -58.422      -11.787       21.710       24.031       13.505      471.338      577.489      182.380        0.818        0.062      122.471       10.827        0.008      335.143        5.580      865.249
10/22/2013  05:14:00     -107.261      -41.843        2.044       35.996       29.654       19.740     1295.733      879.349      389.663        0.791        0.128      115.133       18.768        0.027      335.118        5.540      865.243
10/22/2013  05:15:00     -114.887      -50.076       -1.990       27.689       17.118       16.078      766.695      293.034      258.503        0.851        0.066      125.326        7.901        0.004      335.204        5.682      865.239
10/22/2013  05:16:00     -117.664      -47.258       -2.110       23.935       19.168       15.145      572.870      367.418      229.386        0.863        0.058      126.800       11.589        0.008      335.236        5.735      865.229
10/22/2013  05:17:00      -80.289      -31.194       -1.689       29.158       20.515       15.892      850.197      420.857      252.563        0.447        0.076       86.135       13.347        0.024      335.086        5.487      865.220
10/22/2013  05:18:00     -107.698      -31.655       -2.693       21.805       20.944       17.980      475.468      438.635      323.267        0.692        0.062      112.254       14.027        0.016      335.075        5.469      865.231
10/22/2013  05:19:00     -100.100      -37.331        6.580       35.410       20.295       16.133     1253.865      411.889      260.279        0.669        0.096      106.835       17.214        0.026      335.044        5.417      865.242
10/22/2013  05:20:00     -104.631      -41.921        1.724       27.842       22.742       13.179      775.177      517.192      173.686        0.709        0.073      112.717       12.210        0.012      335.071        5.463      865.244
10/22/2013  05:21:00     -101.483      -45.775       -2.435       24.071       23.507       15.083      579.392      552.571      227.504        0.688        0.068      111.329       10.624        0.009      335.140        5.577      865.246
10/22/2013  05:22:00      -81.460      -22.205       -1.768       20.692       24.263       15.144      428.175      588.717      229.344        0.419        0.062       84.432       12.998        0.024      335.078        5.474      865.252
10/22/2013  05:23:00      -69.229      -31.884        1.482       32.317       20.434       15.330     1044.366      417.531      235.019        0.375        0.085       76.218       15.488        0.041      335.061        5.446      865.255
10/22/2013  05:24:00      -90.068      -36.302       -0.702       22.388       22.505       15.431      501.220      506.482      238.122        0.534        0.062       97.108       13.101        0.018      335.033        5.399      865.258
10/22/2013  05:25:00     -108.769      -54.843       -6.150       20.387       18.859       14.114      415.639      355.654      199.216        0.792        0.049      121.813        8.468        0.005      335.078        5.475      865.264
10/22/2013  05:26:00     -105.282      -63.943       -5.329       18.953       21.127       13.990      359.225      446.341      195.718        0.810        0.050      123.179        7.450        0.004      335.045        5.420      865.270
10/22/2013  05:27:00     -124.703      -45.556       -8.028       21.012       21.385       13.913      441.506      457.301      193.560        0.939        0.055      132.763       10.594        0.006      335.036        5.405      865.271
10/22/2013  05:28:00     -108.915      -17.706       -4.820       23.664       21.363       18.248      559.972      456.357      332.981        0.677        0.067      110.345       14.942        0.018      334.889        5.160      865.279
10/22/2013  05:29:00     -108.686      -20.485       -2.871       23.004       19.075       17.547      529.186      363.838      307.905        0.672        0.060      110.599       15.033        0.018      334.815        5.036      865.282
10/22/2013  05:30:00     -133.671      -38.169       -7.496       20.907       19.552       15.087      437.103      382.298      227.615        1.021        0.052      139.014       11.796        0.007      334.787        4.991      865.278
10/22/2013  05:31:00     -116.135      -21.560       -5.068       30.818       24.877       18.668      949.739      618.844      348.485        0.795        0.096      118.119       14.403        0.015      334.773        4.966      865.275
10/22/2013  05:32:00     -106.525      -14.533        0.325       39.074       26.709       21.539     1526.770      713.355      463.936        0.713        0.135      107.511       21.645        0.041      334.780        4.979      865.272
10/22/2013  05:33:00     -120.554      -24.908       -4.430       38.263       19.371       19.517     1464.064      375.223      380.897        0.870        0.111      123.100       21.313        0.030      334.864        5.117      865.279
10/22/2013  05:34:00     -104.990       -5.653        2.327       41.642       30.079       23.178     1734.039      904.738      537.214        0.712        0.159      105.142       22.563        0.046      334.806        5.021      865.280
10/22/2013  05:35:00     -110.490      -17.192       -4.662       47.014       23.105       20.146     2210.349      533.827      405.854        0.784        0.158      111.820       27.067        0.059      334.804        5.019      865.276
10/22/2013  05:36:00     -144.740      -18.342       -6.733       41.699       26.237       26.102     1738.805      688.384      681.305        1.222        0.155      145.898       25.595        0.031      334.811        5.029      865.271
10/22/2013  05:37:00     -105.303      -26.025        1.840       40.761       33.183       23.535     1661.499     1101.107      553.897        0.754        0.166      108.472       21.685        0.040      334.869        5.125      865.263
10/22/2013  05:38:00     -111.950      -36.098       -7.984       53.837       36.568       23.936     2898.469     1337.183      572.918        0.935        0.240      117.626       26.543        0.051      334.799        5.010      865.264
10/22/2013  05:39:00     -100.888      -29.518       -4.858       53.059       29.307       21.560     2815.269      858.926      464.826        0.761        0.207      105.118       22.447        0.046      334.770        4.961      865.282
10/22/2013  05:40:00     -116.174       -7.850       -4.459       59.194       38.166       22.630     3503.876     1456.607      512.099        0.952        0.274      116.439       30.106        0.067      334.799        5.009      865.291
10/22/2013  05:41:00     -108.591      -11.325        1.141       47.357       35.803       26.461     2242.640     1281.848      700.159        0.807        0.211      109.180       24.309        0.050      334.747        4.923      865.302
10/22/2013  05:42:00     -108.805      -20.939       -0.931       40.607       36.639       21.585     1648.965     1342.426      465.921        0.787        0.173      110.802       14.488        0.017      334.747        4.924      865.307
10/22/2013  05:43:00      -83.545      -29.019       -6.934       58.775       38.244       20.271     3454.538     1462.576      410.928        0.660        0.266       88.441       15.942        0.032      334.814        5.034      865.321
10/22/2013  05:44:00       -7.391      -12.854        6.093       24.385       21.410       17.925      594.634      458.402      321.309        0.082        0.069       14.827       14.119        0.907      334.824        5.051      865.329
10/22/2013  05:45:00      -67.102      -32.340      -18.868       31.778       27.790       14.689     1009.854      772.257      215.757        0.395        0.100       74.488        9.865        0.018      334.891        5.164      865.334
10/22/2013  05:46:00      -74.543      -33.235      -11.822       23.337       17.568       17.006      544.613      308.629      289.194        0.397        0.057       81.616       11.272        0.019      334.860        5.111      865.333
10/22/2013  05:47:00      -77.241      -40.453      -17.997       30.830       29.383       21.529      950.506      863.358      463.504        0.510        0.114       87.193        9.835        0.013      334.836        5.071      865.343
10/22/2013  05:48:00     -113.809      -22.007      -16.401       14.861       14.233       11.575      220.853      202.581      133.987        0.713        0.028      115.917        7.650        0.004      334.804        5.018      865.349
10/22/2013  05:49:00      -76.694      -14.280       -2.644       29.970       27.079       19.980      898.192      733.251      399.191        0.406        0.102       78.012       17.852        0.052      334.838        5.076      865.353
10/22/2013  05:50:00      -69.053      -11.006       -4.339       23.901       14.724       13.966      571.275      216.803      195.059        0.295        0.049       69.925       14.664        0.044      334.850        5.095      865.357
10/22/2013  05:51:00      -85.238      -18.584      -11.299       14.020       19.069       10.970      196.550      363.629      120.332        0.421        0.034       87.240        6.987        0.006      334.915        5.202      865.360
10/22/2013  05:52:00      -92.691       -7.074      -20.481       13.091       11.593       10.869      171.373      134.386      118.133        0.474        0.021       92.960        4.926        0.003      334.910        5.196      865.367
10/22/2013  05:53:00      -86.401       -7.419      -22.925       11.820        9.834        9.840      139.704       96.704       96.830        0.419        0.017       86.719        5.876        0.005      334.880        5.144      865.366
10/22/2013  05:54:00      -78.589      -16.605       -6.222       11.224       15.157       10.898      125.983      229.737      118.761        0.348        0.024       80.324        6.158        0.006      334.925        5.220      865.367
10/22/2013  05:55:00      -97.818      -26.671      -17.710       14.405        9.571       11.885      207.515       91.613      141.246        0.552        0.022      101.389        9.683        0.009      334.949        5.259      865.373
10/22/2013  05:56:00      -84.564      -37.536       -8.355       13.480       14.348       14.309      181.707      205.875      204.750        0.461        0.030       92.520        8.895        0.009      334.947        5.257      865.387
10/22/2013  05:57:00      -90.564      -29.744      -12.790       15.284       16.714       14.988      233.605      279.349      224.631        0.499        0.037       95.324       10.909        0.013      334.953        5.266      865.399
10/22/2013  05:58:00      -88.670      -18.301      -14.666       14.888       12.328        9.968      221.639      151.989       99.356        0.444        0.024       90.539        7.074        0.006      334.961        5.278      865.414
10/22/2013  05:59:00      -86.488      -28.322       -5.397       14.730       19.008       11.699      216.977      361.321      136.878        0.451        0.036       91.007        8.780        0.009      334.954        5.267      865.420
10/22/2013  06:00:00      -94.951      -31.600       -4.470       16.200       12.164        6.791      262.440      147.971       46.119        0.525        0.023      100.071        5.421        0.003      335.016        5.370      865.429
10/22/2013  06:01:00      -83.491      -25.509      -12.308        8.173        8.825        6.297       66.794       77.876       39.657        0.398        0.009       87.301        5.889        0.005      335.034        5.399      865.435
10/22/2013  06:02:00      -78.491      -36.184      -13.961       11.333       18.831        8.196      128.428      354.592       67.181        0.411        0.028       86.429        5.953        0.005      335.033        5.397      865.435
10/22/2013  06:03:00      -90.544      -48.969      -13.044       16.259       13.071       10.248      264.339      170.846      105.030        0.565        0.027      102.938        4.172        0.002      335.033        5.398      865.445
10/22/2013  06:04:00      -79.674      -38.239        2.835       20.493       16.115       14.527      419.948      259.708      211.046        0.435        0.045       88.375       14.269        0.026      334.915        5.203      865.458
10/22/2013  06:05:00      -63.144      -33.161        0.767       28.190       18.646       14.798      794.667      347.656      218.974        0.322        0.068       71.322       16.053        0.051      334.915        5.203      865.475
10/22/2013  06:06:00      -64.793      -40.382       -3.082       23.323       21.639       17.999      543.942      468.266      323.963        0.359        0.067       76.347       12.378        0.026      334.865        5.120      865.487
10/22/2013  06:07:00      -67.186      -53.154       -0.840       25.806       27.021       16.562      665.930      730.109      274.313        0.450        0.084       85.670       17.053        0.040      334.999        5.342      865.489
10/22/2013  06:08:00      -73.925      -31.673       -0.624       33.383       16.654       12.597     1114.428      277.343      158.680        0.401        0.078       80.424       16.237        0.041      334.988        5.325      865.494
10/22/2013  06:09:00      -74.374      -33.096        1.057       26.010       26.712       14.654      676.539      713.549      214.750        0.412        0.080       81.406       14.173        0.030      334.951        5.262      865.499
10/22/2013  06:10:00      -38.856      -11.135        4.326       21.627       23.433       12.686      467.733      549.092      160.942        0.141        0.059       40.420        9.843        0.059      334.858        5.108      865.504
10/22/2013  06:11:00      -78.162       -4.848       -3.453       26.830       14.398       13.381      719.848      207.306      179.043        0.363        0.055       78.312       13.845        0.031      334.767        4.956      865.505
10/22/2013  06:12:00      -57.436      -22.441       -3.582       22.905       20.062       11.304      524.635      402.491      127.776        0.243        0.053       61.664       10.299        0.028      334.764        4.952      865.508
10/22/2013  06:13:00     -104.091       -8.950       -3.375       27.522       24.448       15.952      757.486      597.693      254.462        0.627        0.080      104.475       12.867        0.015      334.729        4.894      865.515
10/22/2013  06:14:00     -122.649      -22.167       -3.257       27.039       20.603       14.593      731.101      424.502      212.949        0.846        0.068      124.636       12.216        0.010      334.756        4.938      865.514
10/22/2013  06:15:00      -90.796      -38.127       -0.978       33.377       31.287       20.929     1114.036      978.865      438.029        0.611        0.127       98.476       18.355        0.035      334.782        4.980      865.519
10/22/2013  06:16:00      -52.983      -40.273        6.437       33.640       24.114       18.243     1131.643      581.509      332.811        0.326        0.102       66.551       17.355        0.068      334.839        5.077      865.516
10/22/2013  06:17:00      -87.809      -43.710       -6.973       21.712       22.827       13.608      471.413      521.085      185.173        0.542        0.059       98.086        4.464        0.002      334.801        5.013      865.524
10/22/2013  06:18:00      -53.507      -43.135       -3.778       30.633       22.817       18.301      938.358      520.606      334.936        0.327        0.090       68.728       11.348        0.027      334.701        4.846      865.531
10/22/2013  06:19:00      -71.684      -44.891       -2.396       37.675       26.503       17.545     1419.387      702.425      307.836        0.479        0.121       84.580       17.612        0.043      334.668        4.792      865.526
10/22/2013  06:20:00     -115.952      -35.183      -16.380       17.951       25.877       12.585      322.250      669.607      158.385        0.805        0.058      121.172        5.202        0.002      334.677        4.807      865.527
10/22/2013  06:21:00      -75.564      -45.824      -16.816       18.950       16.351       15.412      359.111      267.353      237.526        0.448        0.043       88.373        9.292        0.011      334.701        4.847      865.524
10/22/2013  06:22:00      -64.356      -32.946       -5.476       19.999       20.133       16.465      399.971      405.353      271.094        0.317        0.054       72.299       12.042        0.028      334.650        4.762      865.518
10/22/2013  06:23:00      -64.952      -34.223       -2.467       22.523       21.591       14.224      507.294      466.175      202.330        0.329        0.059       73.416       14.123        0.037      334.660        4.780      865.522
10/22/2013  06:24:00      -56.716      -40.744       -7.459       28.008       18.393       17.980      784.452      338.285      323.291        0.319        0.072       69.834       18.282        0.069      334.764        4.953      865.528
10/22/2013  06:25:00      -67.456      -47.770       -4.521       21.556       19.370       14.183      464.656      375.190      201.161        0.395        0.052       82.658       10.171        0.015      334.709        4.860      865.523
10/22/2013  06:26:00      -68.285      -28.680      -11.994       19.756       22.187       12.025      390.312      492.241      144.592        0.333        0.051       74.063        5.013        0.005      334.694        4.836      865.528
10/22/2013  06:27:00      -74.906      -15.034       -6.140       26.467       17.614       16.560      700.481      310.247      274.235        0.358        0.064       76.400       16.012        0.044      334.628        4.728      865.529
10/22/2013  06:28:00      -67.167      -24.240      -14.831       20.281       15.083        9.544      411.301      227.499       91.086        0.302        0.036       71.407        9.146        0.016      334.654        4.769      865.526
10/22/2013  06:29:00      -60.200      -23.203       -9.947       14.539       19.026        8.622      211.381      361.978       74.339        0.245        0.032       64.517        5.365        0.007      334.645        4.755      865.533
10/22/2013  06:30:00      -49.273      -31.975       -5.367       14.548       12.785       11.220      211.651      163.461      125.881        0.199        0.025       58.738        7.950        0.018      334.744        4.918      865.534
10/22/2013  06:31:00      -55.943      -20.365      -11.548       13.395       12.169       11.547      179.416      148.096      133.343        0.207        0.023       59.534        8.257        0.019      334.755        4.938      865.538
10/22/2013  06:32:00      -70.069      -21.242      -14.176       12.209       11.569        8.537      149.069      133.840       72.873        0.296        0.018       73.218        7.346        0.010      334.721        4.881      865.546
10/22/2013  06:33:00      -74.124      -20.910      -14.742       11.054       11.324        7.622      122.183      128.241       58.095        0.323        0.015       77.017        5.774        0.006      334.654        4.770      865.556
10/22/2013  06:34:00      -53.280      -34.622       -9.221       14.490       10.763       10.565      209.966      115.845      111.613        0.228        0.022       63.541        7.153        0.013      334.698        4.844      865.566
10/22/2013  06:35:00      -44.851      -24.573       -9.989       17.255        9.131        9.484      297.733       83.381       89.942        0.159        0.024       51.141        6.253        0.015      334.699        4.845      865.577
10/22/2013  06:36:00      -59.808      -30.142      -15.546       11.902       11.582        7.908      141.658      134.148       62.542        0.253        0.017       66.974        5.953        0.008      334.665        4.788      865.590
10/22/2013  06:37:00      -78.500      -31.531      -15.030       10.848       10.681       11.325      117.669      114.082      128.254        0.387        0.018       84.596        5.004        0.003      334.592        4.666      865.593
10/22/2013  06:38:00      -74.874      -29.297      -16.975       11.816       13.503        9.488      139.616      182.343       90.029        0.358        0.021       80.401        7.445        0.009      334.611        4.698      865.590
10/22/2013  06:39:00      -77.754      -18.679      -16.077        9.466        9.702        7.750       89.608       94.138       60.060        0.345        0.012       79.966        5.642        0.005      334.626        4.722      865.584
10/22/2013  06:40:00      -75.204      -27.926      -11.842       10.012       11.573        7.603      100.244      133.935       57.809        0.343        0.015       80.222        5.219        0.004      334.679        4.809      865.580
10/22/2013  06:41:00      -73.771      -27.019      -18.479        6.803        6.780        6.885       46.286       45.973       47.408        0.333        0.007       78.563        3.328        0.002      334.708        4.859      865.575
10/22/2013  06:42:00      -83.524      -19.544      -14.633       10.306       11.862       10.756      106.216      140.717      115.689        0.397        0.018       85.780        5.032        0.003      334.731        4.897      865.566
10/22/2013  06:43:00      -74.354      -21.200      -11.339        7.931       10.420        7.263       62.903      108.575       52.758        0.317        0.011       77.317        3.926        0.003      334.713        4.867      865.565
10/22/2013  06:44:00      -75.281       -8.598      -11.734        9.752        9.976        8.227       95.107       99.519       67.678        0.307        0.013       75.771        4.245        0.003      334.813        5.034      865.570
10/22/2013  06:45:00      -91.817      -26.102      -10.361       13.948       13.790        8.119      194.537      190.153       65.920        0.483        0.023       95.455        3.994        0.002      334.760        4.944      865.571
10/22/2013  06:46:00      -94.603      -33.036      -10.834       14.139       14.970        8.530      199.915      224.110       72.761        0.533        0.025      100.206        3.132        0.001      334.737        4.907      865.571
10/22/2013  06:47:00      -91.350      -45.918       -9.175       13.562       12.338       10.286      183.939      152.222      105.796        0.549        0.022      102.241        6.969        0.005      334.780        4.978      865.572
10/22/2013  06:48:00     -105.327      -35.861      -10.918       14.940       16.370       10.587      223.213      267.983      112.079        0.655        0.030      111.265        5.109        0.002      334.694        4.835      865.575
10/22/2013  06:49:00      -89.409      -27.169       -9.279       19.127       19.436       10.502      365.827      377.750      110.294        0.484        0.043       93.446        7.616        0.007      334.682        4.814      865.578
10/22/2013  06:50:00      -97.041      -27.181       -8.228       15.168       13.664        8.627      230.070      186.709       74.425        0.536        0.025      100.775        2.524        0.001      334.671        4.796      865.586
10/22/2013  06:51:00      -94.939      -35.834       -7.483       19.742       13.071       12.015      389.730      170.862      144.362        0.553        0.035      101.477       11.775        0.013      334.606        4.688      865.594
10/22/2013  06:52:00      -77.861      -28.785       -4.111       17.398       13.605        8.599      302.693      185.102       73.945        0.373        0.028       83.012        5.677        0.005      334.578        4.643      865.606
10/22/2013  06:53:00      -80.023      -42.182       -8.585       14.900       15.799       11.686      222.015      249.604      136.570        0.443        0.030       90.460        4.595        0.003      334.588        4.658      865.612
10/22/2013  06:54:00      -84.333      -46.698       -5.879       14.169       13.353       10.237      200.749      178.300      104.788        0.491        0.024       96.399        6.931        0.005      334.641        4.748      865.623
10/22/2013  06:55:00      -92.420      -49.404      -10.233       13.440       10.399        8.438      180.636      108.144       71.205        0.572        0.018      104.797        4.464        0.002      334.685        4.823      865.628
10/22/2013  06:56:00      -84.583      -44.546       -4.188       10.455       13.399        9.353      109.306      179.545       87.487        0.477        0.019       95.596        6.641        0.005      334.658        4.776      865.632
10/22/2013  06:57:00      -89.366      -33.458       -7.141       11.402       14.364       11.217      130.008      206.335      125.829        0.481        0.023       95.424        7.688        0.006      334.656        4.773      865.633
10/22/2013  06:58:00     -102.180      -28.071       -6.598       13.930       16.085       10.459      194.058      258.712      109.391        0.592        0.028      105.965        3.706        0.001      334.651        4.765      865.632
10/22/2013  06:59:00      -94.451      -20.765       -3.025       15.592       14.650       12.668      243.106      214.631      160.475        0.499        0.031       96.707        4.966        0.003      334.606        4.689      865.634
10/22/2013  07:00:00     -104.459      -28.981       -4.916       18.311       16.659       12.517      335.285      277.518      156.669        0.627        0.038      108.405        8.551        0.006      334.606        4.689      865.637
10/22/2013  07:01:00     -109.847      -13.924       -9.669       24.338       15.313       12.976      592.352      234.476      168.367        0.667        0.050      110.726        2.595        0.001      334.530        4.565      865.636
10/22/2013  07:02:00     -110.236      -14.041      -10.580       16.222       15.414       11.188      263.138      237.578      125.170        0.654        0.031      111.127        4.928        0.002      334.418        4.378      865.647
10/22/2013  07:03:00      -98.862      -17.932      -10.906       14.840       11.865       10.369      220.234      140.788      107.523        0.534        0.023      100.475        7.615        0.006      334.440        4.416      865.659
10/22/2013  07:04:00      -80.616      -35.240       -7.216       13.768       17.599       13.412      189.566      309.733      179.888        0.424        0.034       87.982        8.850        0.010      334.507        4.527      865.663
10/22/2013  07:05:00     -108.691      -53.996       -9.254       14.659       16.589       10.782      214.890      275.209      116.260        0.771        0.030      121.364        6.407        0.003      334.543        4.586      865.667
10/22/2013  07:06:00     -104.217      -35.510       -4.386       17.294       17.163       11.370      299.093      294.580      129.273        0.643        0.036      110.101        8.296        0.006      334.536        4.574      865.680
10/22/2013  07:07:00      -74.569      -37.023       -7.380       17.128       16.296       11.996      293.362      265.556      143.904        0.384        0.035       83.255        7.196        0.007      334.599        4.678      865.685
10/22/2013  07:08:00      -97.175      -30.605      -11.801       21.826       17.228       10.846      476.359      296.793      117.635        0.570        0.045      101.881        8.856        0.008      334.568        4.626      865.691
10/22/2013  07:09:00      -89.196      -23.874      -10.490       18.904       15.013        9.918      357.354      225.388       98.363        0.466        0.034       92.336        6.092        0.004      334.605        4.689      865.692
10/22/2013  07:10:00      -96.428      -50.535       -9.914       17.403       21.266       12.847      302.861      452.223      165.057        0.644        0.046      108.868       10.144        0.009      334.643        4.751      865.688
10/22/2013  07:11:00      -72.684      -51.079       -7.319       24.332       14.825       15.676      592.046      219.780      245.727        0.450        0.053       88.837       12.334        0.019      334.610        4.697      865.690
10/22/2013  07:12:00      -91.828      -48.464       -4.660       17.815       19.550       15.513      317.365      382.214      240.645        0.587        0.047      103.832       11.088        0.011      334.474        4.471      865.685
10/22/2013  07:13:00      -88.463      -43.322      -12.935       20.440       20.769       12.530      417.795      431.334      156.998        0.544        0.050       98.501       12.796        0.017      334.483        4.486      865.678
10/22/2013  07:14:00      -97.183      -30.973       -8.576       27.793       20.273       12.802      772.467      411.005      163.894        0.591        0.067      102.000        9.615        0.009      334.421        4.382      865.678
10/22/2013  07:15:00      -98.456      -34.735      -10.649       19.417       15.489       12.153      377.001      239.904      147.689        0.589        0.038      104.403        7.931        0.006      334.482        4.485      865.680
10/22/2013  07:16:00     -111.301      -29.621      -10.257       31.069       26.267       16.190      965.293      689.975      262.109        0.764        0.096      115.175       14.796        0.017      334.398        4.343      865.681
10/22/2013  07:17:00      -93.541      -11.561       -4.411       27.994       25.391       13.867      783.673      644.701      192.288        0.526        0.081       94.253       11.658        0.015      334.387        4.327      865.680
10/22/2013  07:18:00      -78.859      -16.866       -1.683       30.729       22.199       18.600      944.259      492.783      345.961        0.414        0.089       80.643       18.345        0.052      334.383        4.320      865.680
10/22/2013  07:19:00      -83.542      -12.245       -3.952       35.977       22.102       14.892     1294.367      488.496      221.758        0.457        0.100       84.434       17.548        0.043      334.391        4.334      865.672
10/22/2013  07:20:00     -114.947      -15.531       -9.149       22.287       20.844       15.996      496.724      434.476      255.859        0.736        0.059      115.992       14.034        0.015      334.388        4.327      865.663
10/22/2013  07:21:00     -107.583      -25.156      -13.532       16.808       26.080       13.700      282.525      680.170      187.685        0.677        0.058      110.485        9.802        0.008      334.480        4.479      865.652
10/22/2013  07:22:00      -91.349      -30.318       -1.243       17.722       24.260       14.687      314.074      588.531      215.719        0.519        0.056       96.249        8.048        0.007      334.490        4.497      865.642
10/22/2013  07:23:00      -92.338      -37.565       -6.183       17.781       24.006       11.749      316.149      576.284      138.028        0.550        0.052       99.687        6.765        0.005      334.480        4.480      865.643
10/22/2013  07:24:00      -65.330      -50.762        1.638       40.172       22.184       18.649     1613.814      492.139      347.768        0.465        0.123       82.733       23.347        0.080      334.446        4.426      865.650
10/22/2013  07:25:00      -77.271      -38.801       -0.021       38.410       20.355       18.836     1475.327      414.339      354.776        0.486        0.112       86.466       21.633        0.063      334.454        4.438      865.654
10/22/2013  07:26:00      -93.063      -56.341       -5.078       22.470       26.566       13.238      504.902      705.762      175.252        0.662        0.069      108.789       10.927        0.010      334.543        4.583      865.658
10/22/2013  07:27:00     -119.911      -46.320       -9.853       21.723       16.923       15.593      471.908      286.403      243.139        0.881        0.050      128.547       10.421        0.007      334.542        4.584      865.662
10/22/2013  07:28:00      -97.220      -47.756      -12.624       18.717       23.395       17.243      350.320      547.320      297.329        0.654        0.060      108.316       13.486        0.016      334.535        4.570      865.664
10/22/2013  07:29:00      -96.000      -21.504       -4.891       19.081       15.181       15.274      364.085      230.477      233.298        0.526        0.041       98.379       10.771        0.012      334.553        4.600      865.679
10/22/2013  07:30:00      -92.142      -16.531       -2.608       23.154       19.931       15.286      536.130      397.257      233.677        0.497        0.058       93.613       12.932        0.019      334.604        4.687      865.685
10/22/2013  07:31:00      -83.562      -22.674       -2.715       24.769       17.837       14.115      613.490      318.146      199.222        0.432        0.057       86.584       14.062        0.026      334.585        4.654      865.703
10/22/2013  07:32:00      -72.944      -22.035       -3.097       18.759       19.194       12.204      351.903      368.404      148.949        0.334        0.043       76.199       10.512        0.019      334.633        4.736      865.708
10/22/2013  07:33:00      -81.000      -33.961       -6.560       11.849       16.853        9.832      140.408      284.023       96.672        0.414        0.026       87.831        9.103        0.011      334.645        4.753      865.721
10/22/2013  07:34:00      -83.621      -41.468      -12.468       11.550       10.670        8.898      133.402      113.859       79.181        0.460        0.016       93.338        3.024        0.001      334.716        4.873      865.726
10/22/2013  07:35:00      -70.641      -40.360      -10.484       14.376       13.328        9.030      206.674      177.637       81.542        0.360        0.023       81.357        4.654        0.003      334.700        4.846      865.724
10/22/2013  07:36:00      -60.993      -33.496       -9.037       11.752       13.474        8.512      138.120      181.542       72.461        0.266        0.020       69.586        7.988        0.013      334.691        4.830      865.728
10/22/2013  07:37:00      -74.559      -35.239      -10.709       10.110       13.726        8.129      102.219      188.408       66.079        0.364        0.018       82.467        6.351        0.006      334.668        4.791      865.724
10/22/2013  07:38:00      -90.313      -34.009      -11.388        7.625       10.505        8.187       58.144      110.346       67.027        0.484        0.012       96.504        1.082        0.000      334.702        4.848      865.725
10/22/2013  07:39:00      -97.585      -34.379      -10.867       10.853       10.579       10.376      117.793      111.914      107.651        0.558        0.017      103.464        4.391        0.002      334.711        4.864      865.729
10/22/2013  07:40:00      -77.935      -33.452       -7.769       17.715       11.091       10.285      313.805      123.004      105.786        0.390        0.027       84.811        7.858        0.009      334.738        4.909      865.736
10/22/2013  07:41:00      -75.736      -39.294       -9.318       12.192       13.505        8.247      148.637      182.376       68.015        0.388        0.020       85.322        3.292        0.001      334.748        4.925      865.741
10/22/2013  07:42:00      -79.292      -24.120      -11.828       12.017       10.503        7.917      144.411      110.315       62.674        0.366        0.016       82.879        4.348        0.003      334.739        4.910      865.751
10/22/2013  07:43:00      -72.329      -35.793      -13.393       13.463       11.211       10.856      181.263      125.687      117.843        0.356        0.021       80.700        5.565        0.005      334.754        4.936      865.764
10/22/2013  07:44:00      -70.386      -22.974      -18.708       10.392       11.079        7.344      107.997      122.742       53.936        0.306        0.014       74.041        6.375        0.007      334.763        4.950      865.764
10/22/2013  07:45:00      -64.785      -21.530      -11.774       13.788       12.936       11.284      190.121      167.348      127.317        0.264        0.024       68.268        5.640        0.007      334.821        5.046      865.765
10/22/2013  07:46:00      -74.309      -41.775       -4.236       13.961       15.210       11.607      194.907      231.330      134.718        0.392        0.028       85.247        5.530        0.004      334.807        5.023      865.764
10/22/2013  07:47:00      -80.350      -41.576       -8.399       31.958       13.223       11.059     1021.345      174.841      122.303        0.479        0.066       90.470       16.157        0.032      334.765        4.954      865.772
10/22/2013  07:48:00      -78.650      -36.307       -5.277       18.427       19.141       13.553      339.550      366.378      183.687        0.421        0.044       86.625        9.829        0.013      334.798        5.009      865.772
10/22/2013  07:49:00      -90.127      -21.315       -8.595       22.515       16.448       12.403      506.933      270.546      153.843        0.479        0.047       92.614       11.391        0.015      334.851        5.096      865.777
10/22/2013  07:50:00      -64.100       -8.600       -2.879       16.565       11.481       14.145      274.395      131.805      200.067        0.240        0.030       64.674       11.416        0.031      334.853        5.100      865.779
10/22/2013  07:51:00      -55.279      -17.658       -6.862       14.315       12.262        9.386      204.910      150.348       88.106        0.193        0.022       58.031        7.976        0.019      334.940        5.245      865.780
10/22/2013  07:52:00      -56.146      -28.125       -5.659        9.673       12.708        7.533       93.558      161.485       56.745        0.214        0.016       62.796        3.195        0.003      334.960        5.277      865.776
10/22/2013  07:53:00      -47.558      -27.197       -7.244       13.945        8.809        7.101      194.471       77.601       50.423        0.169        0.016       54.785        5.291        0.009      335.013        5.367      865.784
10/22/2013  07:54:00      -47.821      -31.486       -6.725       16.411        8.661        9.011      269.333       75.013       81.201        0.187        0.021       57.256        4.523        0.006      335.027        5.388      865.790
10/22/2013  07:55:00      -48.599      -29.125        0.444        9.936       11.828       12.307       98.721      139.892      151.451        0.180        0.020       56.658        4.632        0.007      335.037        5.406      865.813
10/22/2013  07:56:00      -28.516      -18.315        3.320       15.449       13.273       10.524      238.670      176.174      110.752        0.084        0.026       33.891        8.570        0.064      335.064        5.451      865.823
10/22/2013  07:57:00      -15.139      -25.611        1.546       16.570        9.685       11.126      274.572       93.798      123.785        0.069        0.025       29.751        9.423        0.100      335.125        5.552      865.837
10/22/2013  07:58:00      -29.955       -7.417       -3.254        7.666        8.489        5.860       58.766       72.070       34.336        0.056        0.008       30.860        2.213        0.005      335.152        5.595      865.850
10/22/2013  07:59:00      -33.197      -23.401       -2.608       11.442       15.673        6.836      130.908      245.658       46.735        0.104        0.021       40.616        6.302        0.024      335.220        5.708      865.859
10/22/2013  08:00:00      -42.939      -20.724       -5.953       12.141       14.311        7.390      147.394      204.800       54.618        0.136        0.020       47.678        5.943        0.016      335.286        5.818      865.863
10/22/2013  08:01:00      -36.650       -9.772        0.423       11.346       11.949        7.964      128.741      142.786       63.433        0.089        0.017       37.930        7.311        0.037      335.279        5.806      865.875
10/22/2013  08:02:00      -21.620      -11.793        2.070       24.991       19.239       10.494      624.537      370.137      110.117        0.086        0.055       24.627       11.369        0.213      335.389        5.990      865.878
10/22/2013  08:03:00      -39.223      -41.574        6.113       23.341       19.438       11.703      544.813      377.824      136.961        0.218        0.053       57.156       12.428        0.047      335.329        5.888      865.887
10/22/2013  08:04:00      -28.589      -28.942        3.437       27.788       14.811       13.899      772.174      219.375      193.184        0.143        0.059       40.682       11.020        0.073      335.360        5.942      865.892
10/22/2013  08:05:00      -31.718      -19.505        1.979       28.558       14.297       12.118      815.547      204.407      146.848        0.128        0.058       37.236        9.807        0.069      335.386        5.984      865.893
10/22/2013  08:06:00      -26.033      -49.618        5.582       23.268       25.706       20.072      541.390      660.802      402.878        0.239        0.080       56.033       15.804        0.080      335.339        5.908      865.898
10/22/2013  08:07:00      -65.057      -65.599       -1.361       17.179       17.567       13.505      295.103      308.601      182.374        0.466        0.039       92.388       11.861        0.016      335.365        5.948      865.907
10/22/2013  08:08:00      -40.313      -44.147        4.820       29.938       19.218       17.143      896.290      369.332      293.873        0.258        0.078       59.784       18.447        0.095      335.418        6.037      865.918
10/22/2013  08:09:00      -44.590      -26.394        2.480       23.487       19.160       12.687      551.643      367.114      160.955        0.189        0.054       51.816        6.460        0.016      335.422        6.043      865.922
10/22/2013  08:10:00      -51.449      -34.349        1.038       36.380       23.901       14.987     1323.511      571.259      224.616        0.297        0.106       61.862       11.627        0.035      335.477        6.137      865.921
10/22/2013  08:11:00      -39.350      -30.130       11.846       34.810       17.003       14.796     1211.743      289.113      218.913        0.216        0.086       49.561       18.820        0.144      335.561        6.276      865.924
10/22/2013  08:12:00      -22.020      -22.069        9.855       18.503       16.972       12.846      342.364      288.039      165.016        0.093        0.040       31.176        7.239        0.054      335.624        6.382      865.930
10/22/2013  08:13:00      -71.936      -18.744       -4.443       14.849       12.363        7.693      220.485      152.843       59.182        0.299        0.022       74.338        2.664        0.001      335.533        6.232      865.931
10/22/2013  08:14:00      -85.937      -26.042      -13.186        8.105        6.223        6.522       65.696       38.721       42.532        0.419        0.007       89.796        2.825        0.001      335.563        6.283      865.940
10/22/2013  08:15:00      -54.692      -25.821       -0.968       14.594       11.624       12.397      212.993      135.118      153.690        0.208        0.025       60.481        9.769        0.026      335.631        6.393      865.936
10/22/2013  08:16:00      -56.343      -25.356       -5.833       10.568       12.667        9.257      111.692      160.449       85.686        0.210        0.018       61.786        4.627        0.006      335.624        6.381      865.951
10/22/2013  08:17:00      -50.653      -14.001       -2.933       15.207       14.405       10.486      231.267      207.494      109.960        0.166        0.027       52.553        7.346        0.020      335.632        6.397      865.955
10/22/2013  08:18:00      -38.012      -13.022       -2.812       14.962       12.285       11.141      223.872      150.928      124.131        0.106        0.025       40.181        7.938        0.039      335.767        6.620      865.960
10/22/2013  08:19:00      -17.466       -3.763       -0.934       12.963       11.108        7.428      168.050      123.381       55.178        0.033        0.017       17.867        5.421        0.092      335.818        6.705      865.972
10/22/2013  08:20:00      -32.271       11.680       -0.596        9.197       12.739        9.084       84.590      162.293       82.520        0.075        0.016       34.320        5.907        0.030      335.814        6.699      865.980
10/22/2013  08:21:00       -7.546        5.136       -3.315        9.467       11.000       10.592       89.623      120.997      112.191        0.021        0.016        9.128        8.689        0.906      336.111        7.193      865.983
10/22/2013  08:22:00      -26.777       -0.384       -7.791        8.950        5.531        4.969       80.105       30.591       24.686        0.046        0.007       26.780        3.465        0.017      335.938        6.906      865.990
10/22/2013  08:23:00      -27.021        2.107      -11.252        6.153        7.225        7.793       37.855       52.207       60.727        0.051        0.008       27.103        5.390        0.040      335.928        6.889      865.988
10/22/2013  08:24:00      -25.615       -0.241       -6.402        4.222        5.662        5.741       17.823       32.062       32.965        0.039        0.004       25.616        2.888        0.013      335.945        6.917      865.991
10/22/2013  08:25:00      -22.759      -14.427       -0.748       10.950       10.414        6.756      119.903      108.461       45.648        0.050        0.014       26.946        3.759        0.019      336.049        7.089      865.996
10/22/2013  08:26:00      -23.653       -8.957       -1.405        8.489        8.748        6.610       72.065       76.521       43.689        0.042        0.010       25.293        2.561        0.010      336.053        7.097      866.006
10/22/2013  08:27:00      -23.924        3.048       -1.955       10.085        4.907        4.288      101.705       24.078       18.387        0.036        0.007       24.117        2.430        0.010      336.021        7.042      866.013
10/22/2013  08:28:00       -5.878       -3.461        5.399        4.276        4.390        7.875       18.281       19.270       62.009        0.009        0.005        6.821        4.634        0.462      336.474        7.800      866.013
10/22/2013  08:29:00       -5.349        7.095       16.513        6.497       12.183       10.594       42.213      148.420      112.228        0.033        0.015        8.885        6.699        0.568      336.716        8.204      866.019
10/22/2013  08:30:00       -7.318       15.315       40.026        6.966       12.857        9.662       48.527      165.308       93.356        0.110        0.015       16.974        7.963        0.220      336.791        8.330      866.023
10/22/2013  08:31:00       18.010       14.008       26.775       23.553       16.494       18.341      554.733      272.051      336.397        0.120        0.058       22.817       17.376        0.580      336.538        7.907      866.025
10/22/2013  08:32:00       44.496       25.411        3.793       15.889       14.801       17.751      252.451      219.077      315.087        0.171        0.039       51.241       11.073        0.047      336.265        7.450      866.024
10/22/2013  08:33:00       11.304       17.081       21.967       18.533       16.579       16.564      343.473      274.855      274.353        0.090        0.045       20.483       13.990        0.466      336.596        8.003      866.036
10/22/2013  08:34:00        0.739       23.885       34.958       10.225       16.206       10.593      104.545      262.633      112.212        0.114        0.024       23.896        3.937        0.027      336.679        8.142      866.038
10/22/2013  08:35:00       19.618       33.742       20.316       16.899       13.148       21.631      285.589      172.875      467.920        0.143        0.046       39.031       13.055        0.112      336.560        7.945      866.042
10/22/2013  08:36:00        4.527       13.019       36.434       13.038       25.355       11.184      169.985      642.897      125.082        0.123        0.047       13.784       12.532        0.827      336.796        8.339      866.046
10/22/2013  08:37:00        3.013       13.826       27.784       11.538       19.645        8.232      133.120      385.927       67.771        0.078        0.029       14.151        3.974        0.079      336.989        8.660      866.052
10/22/2013  08:38:00       12.202       14.105       21.246       18.756       13.530       15.186      351.803      183.050      230.618        0.078        0.038       18.650       10.355        0.308      336.966        8.624      866.051
10/22/2013  08:39:00        7.919       26.263        8.182       16.989       22.233       19.528      288.636      494.311      381.335        0.099        0.058       27.431       16.246        0.351      336.735        8.236      866.064
10/22/2013  08:40:00       15.151       30.777       11.313       19.861       18.762       22.338      394.452      352.026      498.982        0.127        0.062       34.304       17.261        0.253      336.713        8.200      866.069
10/22/2013  08:41:00       49.187       52.016        1.669       28.943       24.853       20.863      837.676      617.667      435.254        0.351        0.095       71.589       15.361        0.046      336.588        7.991      866.078
10/22/2013  08:42:00       55.986       76.256      -10.162       25.374       17.407       22.574      643.853      302.988      509.594        0.525        0.073       94.601       16.321        0.030      336.520        7.877      866.092
10/22/2013  08:43:00       48.049       48.674       -3.389       20.397       23.788       21.028      416.021      565.879      442.164        0.306        0.071       68.395       18.762        0.075      336.666        8.122      866.101
10/22/2013  08:44:00       65.109       61.689        1.429       21.707       15.145       18.296      471.200      229.364      334.743        0.454        0.052       89.692       10.785        0.014      336.652        8.099      866.103
10/22/2013  08:45:00       48.298       57.402        9.523       22.205       21.855       25.072      493.060      477.621      628.593        0.366        0.080       75.018       15.188        0.041      336.648        8.092      866.104
10/22/2013  08:46:00       85.487       51.065        1.155       40.214       20.008       27.319     1617.196      400.323      746.335        0.634        0.138       99.577       18.599        0.035      336.478        7.807      866.112
10/22/2013  08:47:00       78.384       55.392       14.056       18.667       19.549       24.188      348.474      382.169      585.053        0.536        0.066       95.981        9.776        0.010      336.449        7.757      866.130
10/22/2013  08:48:00       68.073       45.056        6.930       24.310       19.389       25.196      590.983      375.926      634.820        0.416        0.080       81.633       15.203        0.035      336.519        7.875      866.144
10/22/2013  08:49:00       31.200       39.873        2.189       26.245       22.219       24.535      688.784      493.697      601.974        0.218        0.089       50.629       19.609        0.150      336.887        8.490      866.150
10/22/2013  08:50:00       49.576       42.449       10.797       43.662       25.414       25.587     1906.402      645.879      654.680        0.379        0.160       65.266       11.659        0.032      336.934        8.569      866.152
10/22/2013  08:51:00       87.799       23.163       -3.888       24.181       29.358       21.226      584.730      861.909      450.563        0.508        0.095       90.803       13.050        0.021      336.578        7.975      866.156
10/22/2013  08:52:00       -3.846       38.681       25.725       15.464       20.321       20.262      239.136      412.952      410.547        0.162        0.053       38.872       11.202        0.083      336.925        8.553      866.154
10/22/2013  08:53:00       11.491       38.962       -0.834       24.774       26.251       21.465      613.742      689.127      460.737        0.171        0.088       40.621       17.255        0.180      336.917        8.541      866.154
10/22/2013  08:54:00       15.260       34.455        8.215       27.024       25.885       17.988      730.322      670.049      323.586        0.161        0.086       37.683       14.795        0.154      337.029        8.727      866.155
10/22/2013  08:55:00       58.804       57.397        9.915       29.173       19.653       22.422      851.044      386.255      502.732        0.430        0.087       82.172       11.546        0.020      336.905        8.520      866.155
10/22/2013  08:56:00       85.956       63.517       10.718       23.860       26.626       28.132      569.304      708.956      791.434        0.680        0.103      106.878       18.224        0.029      336.890        8.496      866.162
10/22/2013  08:57:00       56.217      102.657       -7.940       34.079       39.068       33.706     1161.388     1526.277     1136.076        0.879        0.191      117.042       25.372        0.047      336.726        8.222      866.164
10/22/2013  08:58:00       74.116       53.734       -0.378       26.083       25.215       25.289      680.334      635.809      639.524        0.517        0.098       91.545       14.160        0.024      336.690        8.161      866.168
10/22/2013  08:59:00       28.921       52.435        7.213       28.261       32.429       23.356      798.665     1051.647      545.512        0.302        0.120       59.882       20.720        0.120      336.870        8.463      866.168
10/22/2013  09:00:00       34.278       47.794       12.973       31.914       31.495       30.203     1018.524      991.934      912.223        0.327        0.146       58.815       22.867        0.151      337.058        8.774      866.167
10/22/2013  09:01:00       93.135       68.123        6.356       23.654       17.138       19.661      559.529      293.707      386.555        0.730        0.062      115.390        9.834        0.007      336.798        8.342      866.178
10/22/2013  09:02:00       57.478       51.469        9.809       26.661       25.814       26.970      710.784      666.362      727.373        0.408        0.105       77.154       16.923        0.048      336.946        8.589      866.170
10/22/2013  09:03:00       48.573       48.172        6.441       45.707       34.109       31.687     2089.151     1163.401     1004.068        0.449        0.213       68.410       23.689        0.120      337.182        8.983      866.160
10/22/2013  09:04:00       62.271       66.017       -4.590       32.865       26.864       30.585     1080.136      721.681      935.472        0.550        0.137       90.752       15.433        0.029      337.024        8.720      866.167
10/22/2013  09:05:00       52.883       39.557        6.225       37.928       28.412       26.618     1438.506      807.256      708.518        0.368        0.148       66.040       13.575        0.042      337.151        8.932      866.169
10/22/2013  09:06:00       49.976       50.830       -2.034       28.507       26.242       25.871      812.622      688.666      669.304        0.363        0.109       71.283       17.821        0.063      337.082        8.816      866.169
10/22/2013  09:07:00       65.203       46.875       11.942       20.390       21.381       22.524      415.768      457.155      507.323        0.399        0.069       80.304        8.169        0.010      337.042        8.749      866.161
10/22/2013  09:08:00       57.821       54.750        1.505       31.173       26.485       22.669      971.733      701.440      513.885        0.426        0.109       79.629       16.201        0.041      337.009        8.693      866.147
10/22/2013  09:09:00       52.003       47.728        4.257       21.555       24.192       26.108      464.634      585.267      681.644        0.337        0.087       70.586       12.057        0.029      337.231        9.066      866.133
10/22/2013  09:10:00       77.087       46.819       13.789       29.122       26.260       28.850      848.105      689.568      832.299        0.535        0.118       90.191       12.285        0.019      336.975        8.637      866.126
10/22/2013  09:11:00       31.333       42.595        0.670       25.114       22.857       23.310      630.699      522.464      543.337        0.225        0.085       52.878       18.104        0.117      337.287        9.159      866.124
10/22/2013  09:12:00       29.305       62.954       -4.156       25.678       34.343       26.704      659.366     1179.470      713.106        0.370        0.128       69.440       26.743        0.148      337.429        9.397      866.122
10/22/2013  09:13:00       17.560       39.482       -0.176       22.164       21.847       22.405      491.265      477.302      501.972        0.167        0.074       43.211       16.637        0.148      337.329        9.229      866.120
10/22/2013  09:14:00       30.321       26.985        6.539       36.813       14.657       20.943     1355.198      214.814      438.611        0.185        0.100       40.590       18.050        0.198      337.195        9.004      866.119
10/22/2013  09:15:00       -4.191       31.324        9.296       17.021       31.430       21.089      289.699      987.861      444.758        0.140        0.086       31.603       18.879        0.357      337.662        9.787      866.117
10/22/2013  09:16:00       -4.751        6.073       18.726       10.144       11.713       13.707      102.910      137.196      187.873        0.042        0.021        7.711        8.278        1.152      337.966       10.296      866.121
10/22/2013  09:17:00      -19.131       18.832        4.173       17.922       15.314       14.006      321.180      234.525      196.167        0.074        0.038       26.845        6.097        0.052      337.700        9.852      866.121
10/22/2013  09:18:00      -21.174        9.008      -15.162       15.028       14.764       18.574      225.839      217.966      344.980        0.077        0.039       23.011       13.945        0.367      337.504        9.522      866.120
10/22/2013  09:19:00      -23.615      -18.363      -17.183       12.546       13.315        8.907      157.401      177.293       79.330        0.080        0.021       29.914        4.414        0.022      337.307        9.194      866.115
10/22/2013  09:20:00      -18.044       -6.336        4.441       15.782       15.037       15.469      249.071      226.112      239.302        0.055        0.036       19.124       13.887        0.527      337.569        9.633      866.120
10/22/2013  09:21:00        4.969       31.641        5.807       17.978       31.282       21.813      323.212      978.569      475.817        0.142        0.089       32.029       23.299        0.529      337.825       10.061      866.118
10/22/2013  09:22:00       -8.230        5.238       10.975       13.225       29.205       13.211      174.893      852.907      174.529        0.071        0.060        9.756       10.774        1.220      337.777        9.981      866.121
10/22/2013  09:23:00      -33.387      -15.059       -1.997       22.563       11.747       11.226      509.078      137.993      126.028        0.106        0.039       36.626        7.117        0.038      337.523        9.555      866.125
10/22/2013  09:24:00      -45.815      -60.199        3.959       23.375       25.194       13.552      546.402      634.740      183.645        0.355        0.068       75.650       10.095        0.018      337.331        9.232      866.121
10/22/2013  09:25:00      -45.327      -43.429      -14.648       17.501       23.439       17.771      306.289      549.368      315.815        0.266        0.059       62.774       11.191        0.032      337.346        9.258      866.124
10/22/2013  09:26:00      -42.117        3.942      -11.740       16.490        9.973        9.391      271.928       99.461       88.184        0.119        0.023       42.301        6.923        0.027      337.372        9.300      866.117
10/22/2013  09:27:00      -47.444       -3.680       -2.973       16.698       21.962       11.871      278.839      482.326      140.929        0.159        0.045       47.587        9.809        0.042      337.410        9.363      866.115
10/22/2013  09:28:00      -34.336      -14.919      -10.628       14.218       13.447       11.736      202.148      180.822      137.729        0.102        0.026       37.437       11.530        0.095      337.429        9.396      866.110
10/22/2013  09:29:00      -27.112        7.460       -3.071       21.082       21.568       12.663      444.455      465.166      160.341        0.093        0.053       28.120       11.397        0.164      337.542        9.586      866.100
10/22/2013  09:30:00      -14.196       27.163       12.229       24.212       21.793       20.325      586.224      474.945      413.111        0.128        0.074       30.649       15.775        0.265      338.135       10.581      866.097
10/22/2013  09:31:00       -4.001       50.012        1.191       15.548       34.396       20.593      241.755     1183.070      424.073        0.218        0.092       50.172       19.981        0.159      338.023       10.392      866.092
10/22/2013  09:32:00        3.611       56.714        0.612       23.116       37.693       27.417      534.368     1420.730      751.702        0.297        0.135       56.829       29.956        0.278      338.159       10.621      866.093
10/22/2013  09:33:00       38.646       39.698       10.565       27.015       31.029       27.050      729.825      962.770      731.706        0.280        0.121       55.402       20.875        0.142      338.202       10.693      866.098
10/22/2013  09:34:00       40.237       46.044        7.808       35.573       39.632       32.618     1265.470     1570.663     1063.950        0.385        0.195       61.148       25.291        0.171      338.146       10.600      866.102
10/22/2013  09:35:00        4.602       48.950        1.099       29.241       27.581       25.570      855.042      760.720      653.824        0.234        0.113       49.166       20.600        0.176      338.436       11.086      866.093
10/22/2013  09:36:00      -11.711       68.755       11.545       23.530       34.676       26.783      553.662     1202.447      717.315        0.374        0.124       69.746       23.081        0.110      338.438       11.090      866.087
10/22/2013  09:37:00       -3.695       22.562       40.252       17.009       23.026       23.966      289.294      530.196      574.378        0.177        0.070       22.862        7.427        0.106      338.896       11.859      866.089
10/22/2013  09:38:00       32.244       30.235       34.100       25.731       24.579       27.375      662.093      604.134      749.364        0.257        0.101       44.202       10.937        0.061      338.384       10.999      866.079
10/22/2013  09:39:00       89.603       72.459        1.372       23.048       18.529       25.085      531.232      343.314      629.240        0.739        0.075      115.235       13.636        0.014      337.759        9.950      866.084
10/22/2013  09:40:00       80.857       49.849       -9.831       31.353       24.397       23.157      983.002      595.208      536.234        0.562        0.106       94.988       10.798        0.013      338.006       10.364      866.078
10/22/2013  09:41:00       76.297       43.040       31.237       33.930       36.858       30.396     1151.271     1358.504      923.927        0.604        0.172       87.599       14.270        0.027      338.050       10.440      866.079
10/22/2013  09:42:00       74.616       63.700       21.691       21.556       23.015       22.925      464.678      529.667      525.557        0.581        0.076       98.108        7.974        0.007      337.907       10.199      866.073
10/22/2013  09:43:00       49.388       64.459       29.178       24.091       26.602       36.565      580.362      707.648     1336.966        0.503        0.131       81.204       22.144        0.074      338.121       10.556      866.064
10/22/2013  09:44:00       26.867       40.215       18.819       27.141       29.549       29.261      736.630      873.170      856.188        0.258        0.123       48.364       23.242        0.231      338.439       11.090      866.062
10/22/2013  09:45:00       14.815       39.750       -1.449       24.773       31.810       29.259      613.688     1011.863      856.115        0.214        0.124       42.421       26.597        0.393      338.287       10.836      866.053
10/22/2013  09:46:00       -7.880       45.296       -0.889       19.459       25.765       22.150      378.653      663.832      490.644        0.182        0.077       45.977       17.852        0.151      338.278       10.820      866.039
10/22/2013  09:47:00        0.577       37.395       23.185       10.862       20.932       15.283      117.988      438.150      233.564        0.136        0.039       37.399       11.291        0.091      338.811       11.717      866.036
10/22/2013  09:48:00       10.587       50.157      -15.061       30.445       17.305       20.652      926.907      299.469      426.500        0.225        0.083       51.262       12.749        0.062      338.160       10.623      866.029
10/22/2013  09:49:00        3.872       13.476       20.714       15.612       27.201       19.130      243.721      739.879      365.946        0.099        0.067       14.021       12.914        0.848      339.018       12.065      866.018
10/22/2013  09:50:00       13.102       11.895        7.564       18.850       27.285       18.451      355.339      744.467      340.422        0.091        0.072       17.696       15.616        0.779      339.125       12.244      866.009
10/22/2013  09:51:00        7.620       21.230       30.572       19.932       23.984       17.131      397.298      575.224      293.477        0.135        0.063       22.556        9.568        0.180      339.262       12.476      866.001
10/22/2013  09:52:00       25.797        1.563       31.135       28.902       29.634       21.899      835.354      878.189      479.567        0.191        0.110       25.844       16.714        0.418      338.993       12.023      866.000
10/22/2013  09:53:00       -1.120       49.452        6.020       16.633       24.727       25.560      276.662      611.430      653.296        0.201        0.077       49.464       20.121        0.165      338.940       11.932      866.000
10/22/2013  09:54:00        1.605       41.524       16.630       18.360       33.727       24.903      337.082     1137.493      620.166        0.205        0.105       41.555       22.053        0.282      339.179       12.336      865.997
10/22/2013  09:55:00       -8.925       35.255        9.103       21.185       26.663       20.462      448.804      710.920      418.676        0.149        0.079       36.367       14.250        0.154      339.000       12.034      865.996
10/22/2013  09:56:00      -44.666        5.020       -9.003       18.376       11.686       14.042      337.668      136.563      197.176        0.139        0.034       44.947       11.886        0.070      338.484       11.167      865.995
10/22/2013  09:57:00      -20.358      -42.220       -2.476       13.384       17.719       14.237      179.122      313.952      202.691        0.145        0.035       46.872       11.319        0.058      338.350       10.941      865.986
10/22/2013  09:58:00      -34.502      -20.431       -4.264        8.496       14.293        9.148       72.180      204.300       83.678        0.099        0.018       40.097        3.346        0.007      338.510       11.211      865.979
10/22/2013  09:59:00      -54.872       19.390       -9.041       15.635       14.272       10.608      244.453      203.692      112.527        0.201        0.028       58.197        6.055        0.011      338.532       11.247      865.968
10/22/2013  10:00:00      -37.035       16.907       -7.314       18.018       12.085       10.691      324.640      146.057      114.287        0.115        0.029       40.712        3.186        0.006      338.754       11.620      865.950
10/22/2013  10:01:00      -10.272       15.056       -2.647       24.798       22.549       20.734      614.945      508.454      429.903        0.095        0.078       18.226       12.983        0.507      338.905       11.874      865.938
10/22/2013  10:02:00       42.596       32.916       15.258       41.076       29.948       26.468     1687.267      896.890      700.576        0.321        0.164       53.832       15.790        0.086      339.029       12.082      865.925
10/22/2013  10:03:00       71.747       72.381       55.501       50.949       35.601       40.424     2595.772     1267.401     1634.101        0.948        0.275      101.915       30.562        0.090      338.807       11.710      865.913
10/22/2013  10:04:00       44.972       71.608       11.034       36.313       32.683       36.827     1318.646     1068.157     1356.217        0.551        0.187       84.559       23.599        0.078      339.128       12.248      865.919
10/22/2013  10:05:00       42.516       -5.135       31.634       37.135       46.090       35.313     1379.014     2124.321     1247.028        0.379        0.238       42.824       33.509        0.612      339.329       12.587      865.907
10/22/2013  10:06:00       23.921       51.410       68.165       46.260       29.293       35.957     2139.944      858.063     1292.935        0.608        0.215       56.703       32.449        0.327      339.217       12.400      865.895
10/22/2013  10:07:00       46.075       40.708       15.516       24.019       22.254       29.307      576.931      495.237      858.905        0.298        0.097       61.482        8.310        0.018      338.966       11.976      865.897
10/22/2013  10:08:00       57.187       39.574       22.393       33.484       31.106       24.496     1121.199      967.557      600.066        0.401        0.134       69.545       20.959        0.091      339.197       12.365      865.893
10/22/2013  10:09:00       95.130       75.426       19.105       49.543       34.434       26.566     2454.515     1185.692      705.752        0.972        0.217      121.404       20.520        0.029      338.925       11.908      865.887
10/22/2013  10:10:00      107.418       79.670        4.969       28.041       26.655       26.434      786.304      710.492      698.773        1.005        0.110      133.738       16.814        0.016      338.831       11.749      865.884
10/22/2013  10:11:00       54.578       65.954       -9.147       31.411       42.503       29.941      986.653     1806.520      896.486        0.555        0.184       85.607       21.553        0.063      339.044       12.108      865.877
10/22/2013  10:12:00       72.437       44.868       -5.576       32.299       24.207       23.643     1043.256      585.957      558.970        0.474        0.109       85.208       18.467        0.047      339.063       12.140      865.870
10/22/2013  10:13:00       43.131       49.290       18.735       30.689       20.202       28.366      941.834      408.106      804.643        0.340        0.108       65.497       15.203        0.054      339.113       12.224      865.861
10/22/2013  10:14:00        3.847       13.180       19.581       19.639       22.677       15.783      385.671      514.239      249.095        0.086        0.057       13.730       16.454        1.436      339.698       13.209      865.855
10/22/2013  10:15:00       65.680       35.587       27.988       43.204       33.039       42.246     1866.575     1091.548     1784.741        0.555        0.237       74.701       25.764        0.119      339.361       12.641      865.854
10/22/2013  10:16:00      114.599       78.771       23.142       50.941       26.303       37.055     2594.985      691.852     1373.068        1.227        0.233      139.060       31.023        0.050      339.041       12.104      865.846
10/22/2013  10:17:00      108.294       91.643       10.108       54.709       30.345       29.440     2993.075      920.828      866.685        1.250        0.239      141.866       31.476        0.049      338.959       11.965      865.844
10/22/2013  10:18:00      107.802       70.107       -2.636       38.515       30.820       33.901     1483.370      949.865     1149.259        1.006        0.179      128.593       15.247        0.014      339.158       12.300      865.835
10/22/2013  10:19:00       85.767       93.873       -3.305       25.643       23.761       21.243      657.580      564.603      451.261        0.893        0.084      127.154       14.085        0.012      338.963       11.971      865.837
10/22/2013  10:20:00      -26.110       75.758       -2.661       47.902       25.991       29.789     2294.628      675.527      887.407        0.514        0.193       80.132       25.380        0.100      339.044       12.109      865.821
10/22/2013  10:21:00        2.942       18.550       35.472       36.835       17.838       13.324     1356.832      318.187      177.533        0.173        0.093       18.782       15.454        0.677      339.642       13.115      865.818
10/22/2013  10:22:00       24.494       10.485       10.145       22.035       25.215       21.198      485.551      635.784      449.355        0.119        0.079       26.644       15.517        0.339      339.591       13.029      865.811
10/22/2013  10:23:00      -11.567       23.818       54.540       19.814       44.651       36.548      392.584     1993.681     1335.725        0.370        0.186       26.478       36.499        1.900      339.872       13.503      865.790
10/22/2013  10:24:00       17.301       60.823       62.482       51.456       39.504       37.718     2647.753     1560.543     1422.622        0.677        0.282       63.236       31.191        0.243      339.649       13.126      865.776
10/22/2013  10:25:00       60.166       61.702        0.645       37.292       33.468       30.737     1390.660     1120.118      944.749        0.544        0.173       86.181       18.223        0.045      339.345       12.616      865.767
10/22/2013  10:26:00       28.819       96.517        3.000       32.770       42.655       25.183     1073.854     1819.463      634.206        0.684        0.176      100.728       19.247        0.037      339.621       13.079      865.751
10/22/2013  10:27:00       68.844       73.835       10.555       41.915       24.362       35.133     1756.882      593.527     1234.329        0.694        0.179      100.951       29.904        0.088      339.561       12.978      865.741
10/22/2013  10:28:00       17.976       59.299       72.246       34.289       34.538       24.481     1175.705     1192.840      599.324        0.601        0.148       61.964       15.001        0.059      339.695       13.206      865.737
10/22/2013  10:29:00       38.075       64.273       79.254       35.573       35.009       15.660     1265.460     1225.659      245.243        0.730        0.137       74.704       18.800        0.063      339.665       13.154      865.722
10/22/2013  10:30:00       54.046       39.498       54.865       30.726       30.850       30.344      944.101      951.726      920.763        0.515        0.141       66.941       19.755        0.087      339.507       12.887      865.714
10/22/2013  10:31:00       55.165       42.792        0.646       27.055       34.387       32.370      731.950     1182.463     1047.831        0.392        0.148       69.817       11.464        0.027      339.341       12.608      865.708
10/22/2013  10:32:00       71.224       43.671       18.975       27.043       27.405       27.767      731.351      751.056      771.013        0.480        0.113       83.546       19.223        0.053      339.361       12.640      865.689
10/22/2013  10:33:00       28.806       31.902       -3.911       26.943       16.923       20.149      725.925      286.403      405.997        0.164        0.071       42.982       12.991        0.091      339.439       12.774      865.681
10/22/2013  10:34:00      -18.186       31.066      -16.044       17.441       30.177       18.421      304.175      910.659      339.325        0.155        0.078       35.998        8.786        0.060      339.523       12.916      865.670
10/22/2013  10:35:00        6.801        8.956       12.592       13.949       14.696       11.254      194.561      215.970      126.659        0.041        0.027       11.246        5.027        0.200      340.317       14.253      865.652
10/22/2013  10:36:00       -5.723       25.019       26.224       23.442       32.692       23.877      549.530     1068.782      570.127        0.177        0.109       25.665       14.240        0.308      340.555       14.657      865.636
10/22/2013  10:37:00       19.140       48.248       38.799       68.924       35.060       28.964     4750.540     1229.203      838.898        0.551        0.341       51.906       34.469        0.441      340.470       14.513      865.617
10/22/2013  10:38:00      100.869       88.162       12.862       34.841       28.079       28.845     1213.878      788.449      832.052        1.047        0.142      133.967        9.134        0.005      339.695       13.205      865.614
10/22/2013  10:39:00      121.904       81.112        0.708       35.750       27.324       25.167     1278.029      746.586      633.380        1.205        0.133      146.423       17.554        0.014      339.586       13.020      865.600
10/22/2013  10:40:00       84.031       74.074        0.218       35.542       28.852       26.590     1263.207      832.421      707.034        0.767        0.140      112.019       19.692        0.031      339.739       13.279      865.597
10/22/2013  10:41:00       83.971       39.001        2.567       25.749       35.573       23.379      662.999     1265.420      546.555        0.553        0.124       92.586       15.878        0.029      339.657       13.140      865.605
10/22/2013  10:42:00       58.777       62.863        8.158       47.804       27.420       24.813     2285.193      751.858      615.681        0.556        0.183       86.061       14.335        0.028      339.953       13.640      865.591
10/22/2013  10:43:00       41.786       51.991       11.092       24.344       49.077       35.666      592.613     2408.510     1272.034        0.442        0.214       66.702       33.775        0.256      340.164       13.996      865.598
10/22/2013  10:44:00       -6.453       30.163        0.410       12.302       21.780       25.090      151.341      474.371      629.516        0.110        0.063       30.845       11.647        0.143      340.115       13.913      865.587
10/22/2013  10:45:00      -20.035      -15.824       -2.100       13.851       14.660       10.881      191.848      214.925      118.394        0.059        0.026       25.530        9.440        0.137      339.830       13.434      865.570
10/22/2013  10:46:00      -35.792       35.810       -0.094       19.191       25.771       18.391      368.278      664.130      338.219        0.197        0.069       50.631       13.719        0.073      339.992       13.706      865.556
10/22/2013  10:47:00       -6.465        2.127       22.453       21.910       21.320       17.895      480.069      454.521      320.215        0.090        0.063        6.806       12.912        3.600      340.629       14.783      865.544
10/22/2013  10:48:00       16.885       44.432       36.746       25.474       28.156       43.131      648.937      792.735     1860.249        0.346        0.165       47.532       26.107        0.302      340.520       14.599      865.539
10/22/2013  10:49:00        9.174       41.265       66.373       25.892       32.010       25.102      670.375     1024.616      630.093        0.426        0.116       42.273       23.510        0.309      340.374       14.350      865.531
10/22/2013  10:50:00       12.957       56.742       71.484       34.732       43.119       20.000     1206.318     1859.234      400.010        0.598        0.173       58.202       21.113        0.132      340.482       14.535      865.524
10/22/2013  10:51:00       56.173       48.482       70.485       40.371       40.392       22.718     1629.811     1631.493      516.117        0.713        0.189       74.202       19.353        0.068      340.119       13.919      865.524
10/22/2013  10:52:00       46.192      -14.622       18.947       23.349       30.505       29.204      545.172      930.537      852.874        0.252        0.116       48.451       22.259        0.211      340.070       13.836      865.518
10/22/2013  10:53:00        2.188       25.146        8.956       22.963       25.097       29.332      527.292      629.840      860.360        0.137        0.101       25.241        9.281        0.135      340.221       14.092      865.504
10/22/2013  10:54:00       12.106        8.232       20.347       17.733       27.833       16.209      314.474      774.660      262.748        0.099        0.068       14.640       10.701        0.534      340.817       15.100      865.489
10/22/2013  10:55:00       51.297      -99.816      -16.462       37.975       23.651       26.471     1442.103      559.385      700.724        0.778        0.135      112.225       13.143        0.014      340.293       14.213      865.483
10/22/2013  10:56:00       48.706      -47.991      -13.509       36.649       31.429       23.542     1343.148      987.773      554.225        0.387        0.144       68.377        8.833        0.017      340.051       13.805      865.479
10/22/2013  10:57:00        2.993       24.762       38.408       23.487       26.638       30.903      551.640      709.577      955.005        0.216        0.111       24.942       22.025        0.780      340.823       15.110      865.462
10/22/2013  10:58:00        5.927       61.184       84.240       32.690       59.192       33.864     1068.634     3503.750     1146.739        0.830        0.286       61.470       35.792        0.339      340.788       15.052      865.455
10/22/2013  10:59:00       76.901       82.687       74.902       70.947       49.787       40.917     5033.426     2478.779     1674.207        1.377        0.459      112.920       41.410        0.134      340.252       14.145      865.435
10/22/2013  11:00:00       30.306       66.114       73.366       50.257       50.503       41.720     2525.726     2550.568     1740.518        0.874        0.341       72.729       41.783        0.330      340.607       14.744      865.428
10/22/2013  11:01:00       50.228       32.999       42.006       44.901       29.157       32.766     2016.070      850.150     1073.612        0.466        0.197       60.098       20.188        0.113      340.433       14.450      865.425
10/22/2013  11:02:00       62.738       46.451        3.031       25.198       30.603       33.223      634.944      936.566     1103.755        0.439        0.134       78.063       25.985        0.111      340.022       13.755      865.417
10/22/2013  11:03:00       50.849       49.585       37.982       31.578       27.527       25.472      997.147      757.714      648.845        0.444        0.120       71.023       19.528        0.076      340.314       14.249      865.405
10/22/2013  11:04:00       32.156       -1.050       35.937       39.394       74.335       37.309     1551.882     5525.656     1391.958        0.540        0.423       32.174       45.061        1.962      340.811       15.089      865.388
10/22/2013  11:05:00       77.748      -88.113       -5.774       52.808       67.239       48.931     2788.665     4521.065     2394.241        1.177        0.485      117.510       55.900        0.226      340.601       14.736      865.385
10/22/2013  11:06:00       63.532     -111.365      -16.235       40.363       53.224       32.147     1629.144     2832.751     1033.423        1.110        0.275      128.212       26.527        0.043      340.420       14.427      865.368
10/22/2013  11:07:00       34.092      -36.847       29.962       36.423       44.862       37.540     1326.667     2012.567     1409.255        0.408        0.237       50.199       37.347        0.553      340.883       15.212      865.367
10/22/2013  11:08:00       33.566      -55.173       -3.409       24.102       34.753       23.000      580.914     1207.767      529.021        0.325        0.116       64.581       21.064        0.106      340.461       14.497      865.358
10/22/2013  11:09:00       18.577        8.322       33.858       37.054       36.573       33.528     1372.981     1337.570     1124.146        0.270        0.192       20.356       25.191        1.532      341.107       15.590      865.349
10/22/2013  11:10:00       49.080       51.104       53.030       48.057       49.507       38.158     2309.500     2450.954     1456.043        0.702        0.311       70.855       32.228        0.207      340.749       14.985      865.337
10/22/2013  11:11:00       72.247       82.175       44.326       53.321       44.763       51.010     2843.089     2003.699     2601.981        1.069        0.372      109.418       18.075        0.027      340.816       15.098      865.329
10/22/2013  11:12:00      103.300       82.154       76.814       54.108       44.101       42.060     2927.678     1944.901     1769.027        1.498        0.332      131.986       37.898        0.082      340.728       14.947      865.317
10/22/2013  11:13:00       39.654       83.611       96.679       61.550       48.422       23.960     3788.389     2344.698      574.089        1.231        0.335       92.538       24.772        0.072      341.135       15.638      865.310
10/22/2013  11:14:00       38.399      -68.829       21.337       52.864       76.633       53.170     2794.559     5872.590     2827.099        0.908        0.575       78.816       55.074        0.488      341.052       15.496      865.308
10/22/2013  11:15:00       44.679      -84.714        0.804       34.956       29.059       30.850     1221.902      844.439      951.724        0.610        0.151       95.774       12.981        0.018      340.669       14.848      865.311
10/22/2013  11:16:00       15.436       -9.122       27.056       38.156       24.886       20.208     1455.889      619.333      408.368        0.177        0.124       17.930       13.434        0.561      341.440       16.154      865.303
10/22/2013  11:17:00      -11.034       13.131       13.060       20.028       19.600       25.227      401.111      384.176      636.402        0.094        0.071       17.152       12.185        0.505      341.388       16.067      865.294
10/22/2013  11:18:00       98.527       82.918       33.974       47.691       26.536       41.791     2274.429      704.174     1746.522        1.123        0.236      128.775       29.720        0.053      340.783       15.043      865.283
10/22/2013  11:19:00       80.174       67.534       -0.041       37.157       37.424       29.530     1380.631     1400.524      872.044        0.732        0.183      104.827       16.970        0.026      340.610       14.749      865.273
10/22/2013  11:20:00       75.784       32.340       -3.197       31.931       29.597       21.558     1019.607      875.968      464.754        0.458        0.118       82.396        9.373        0.013      340.636       14.795      865.264
10/22/2013  11:21:00       37.965      -24.724       31.559       31.869       35.024       18.993     1015.640     1226.646      360.732        0.283        0.130       45.306       19.645        0.188      341.197       15.742      865.260
10/22/2013  11:22:00       49.222       39.686       29.679       30.785       24.397       29.871      947.696      595.226      892.294        0.366        0.122       63.228       21.200        0.112      341.004       15.416      865.237
10/22/2013  11:23:00       58.380       46.881       13.074       45.970       43.747       31.720     2113.231     1913.793     1006.174        0.540        0.252       74.874       21.564        0.083      341.033       15.466      865.230
10/22/2013  11:24:00       44.528        4.865        0.231       34.031       59.507       26.106     1158.120     3541.053      681.538        0.369        0.269       44.793       23.901        0.285      341.196       15.741      865.223
10/22/2013  11:25:00       36.582        7.541       17.525       43.614       34.558       34.477     1902.156     1194.280     1188.675        0.299        0.214       37.351       14.121        0.143      341.535       16.315      865.214
10/22/2013  11:26:00       78.389       47.411       -1.838       41.014       28.428       31.233     1682.135      808.178      975.485        0.593        0.173       91.611       24.239        0.070      341.291       15.902      865.207
10/22/2013  11:27:00        8.128        5.816       25.609       32.671       47.373       32.797     1067.396     2244.222     1075.625        0.257        0.219        9.995       27.835        7.756      341.658       16.524      865.202
10/22/2013  11:28:00        7.640       20.878       62.807       41.312       51.117       48.401     1706.689     2612.924     2342.652        0.555        0.333       22.232       34.044        2.345      341.863       16.872      865.188
10/22/2013  11:29:00       48.612       63.015       94.638       49.793       47.787       29.173     2479.385     2283.602      851.076        1.045        0.281       79.587       28.719        0.130      341.357       16.014      865.194
10/22/2013  11:30:00       51.415      -55.293       43.470       51.947       68.552       39.619     2698.538     4699.353     1569.663        0.828        0.448       75.503       45.324        0.360      341.393       16.075      865.175
10/22/2013  11:31:00       54.944       35.064       33.988       58.814       48.732       38.239     3459.046     2374.808     1462.192        0.635        0.365       65.179       34.014        0.272      341.365       16.027      865.179
10/22/2013  11:32:00       78.544        5.659        3.282       34.773       59.451       30.228     1209.140     3534.451      913.745        0.593        0.283       78.748       16.434        0.044      341.171       15.699      865.167
10/22/2013  11:33:00       32.376        6.452       40.792       34.617       55.669       28.570     1198.304     3099.045      816.255        0.393        0.256       33.012       27.695        0.704      341.594       16.415      865.149
10/22/2013  11:34:00       19.382       16.587       43.233       36.299       35.844       25.970     1317.588     1284.809      674.449        0.290        0.164       25.510       12.961        0.258      341.827       16.812      865.144
10/22/2013  11:35:00       13.963       17.669       38.086       30.369       30.597       29.123      922.281      936.149      848.177        0.233        0.135       22.520       21.495        0.911      342.040       17.171      865.128
10/22/2013  11:36:00       33.918       43.498       54.148       59.812       26.634       30.876     3577.455      709.369      953.318        0.561        0.262       55.159       25.985        0.222      341.845       16.842      865.127
10/22/2013  11:37:00      119.739       88.179       19.358       48.923       40.186       33.635     2393.419     1614.902     1131.312        1.381        0.257      148.704       20.218        0.018      341.213       15.770      865.109
10/22/2013  11:38:00       77.544       56.468       16.583       55.341       31.203       32.982     3062.578      973.631     1087.780        0.730        0.256       95.926       18.472        0.037      341.522       16.293      865.102
10/22/2013  11:39:00       99.016       60.090        6.197       58.795       48.622       33.050     3456.828     2364.060     1092.304        1.018        0.346      115.824       20.440        0.031      341.356       16.012      865.087
10/22/2013  11:40:00       22.732       21.884       20.632       54.281       44.350       26.934     2946.403     1966.933      725.435        0.353        0.282       31.554       27.931        0.784      342.040       17.171      865.094
10/22/2013  11:41:00       79.458      -74.907       -1.297       59.330       60.632       37.440     3520.096     3676.257     1401.790        1.026        0.430      109.200       35.215        0.104      341.698       16.592      865.078
10/22/2013  11:42:00       52.844      -87.786        4.313       61.204       62.825       32.538     3745.923     3947.018     1058.747        0.963        0.438      102.463       31.569        0.095      341.580       16.392      865.080
10/22/2013  11:43:00       54.943       21.734       42.972       48.370       73.180       40.892     2339.628     5355.312     1672.170        0.735        0.468       59.086       46.947        0.631      341.649       16.508      865.062
10/22/2013  11:44:00       59.388       30.942       -3.466       31.912       25.781       32.680     1018.400      664.662     1067.963        0.362        0.138       66.965       14.910        0.050      341.804       16.772      865.058
10/22/2013  11:45:00        3.517      -32.236        3.216       35.915       42.661       31.365     1289.885     1819.976      983.777        0.258        0.205       32.427       21.636        0.445      342.033       17.161      865.048
10/22/2013  11:46:00       66.940       28.097       35.698       77.882       49.790       38.226     6065.574     2479.073     1461.229        0.827        0.500       72.598       27.587        0.144      342.057       17.200      865.035
10/22/2013  11:47:00       90.656       29.306       49.922       64.950       53.294       47.354     4218.444     2840.257     2242.421        1.043        0.465       95.275       41.524        0.190      341.963       17.041      865.039
10/22/2013  11:48:00      112.178       77.137       18.606       52.788       38.093       44.061     2786.536     1451.068     1941.378        1.253        0.309      136.140       32.433        0.057      341.700       16.594      865.028
10/22/2013  11:49:00      104.677       56.330       18.434       49.885       40.683       36.439     2488.495     1655.127     1327.783        0.997        0.274      118.871       20.283        0.029      341.526       16.299      865.026
10/22/2013  11:50:00      109.193       76.981       32.582       45.148       47.812       38.700     2038.385     2286.027     1497.698        1.237        0.291      133.601       18.211        0.019      341.691       16.579      865.011
10/22/2013  11:51:00       84.866       71.260        8.295       63.539       48.510       37.689     4037.227     2353.233     1420.445        1.008        0.391      110.816       23.516        0.045      341.777       16.727      865.007
10/22/2013  11:52:00       89.305       67.771       15.026       62.148       35.101       35.158     3862.420     1232.051     1236.108        0.956        0.317      112.109       20.569        0.034      341.780       16.730      864.983
10/22/2013  11:53:00       50.092       45.952        8.341       67.884       52.831       38.331     4608.239     2791.117     1469.249        0.678        0.443       67.977       28.969        0.182      342.203       17.449      864.975
10/22/2013  11:54:00       80.525       59.286       17.658       42.499       41.716       39.427     1806.125     1740.257     1554.495        0.771        0.255       99.995       18.060        0.033      342.139       17.340      864.962
10/22/2013  11:55:00       58.955       26.195        0.909       60.154       45.098       36.280     3618.491     2033.845     1316.251        0.556        0.348       64.513        9.204        0.020      342.277       17.573      864.961
10/22/2013  11:56:00        9.878      -35.892       21.105       61.472       71.408       38.276     3778.849     5099.106     1465.079        0.609        0.517       37.227       41.183        1.224      342.568       18.071      864.953
10/22/2013  11:57:00       41.208      -81.461       37.702       71.723       94.317       42.369     5144.246     8895.617     1795.093        1.279        0.792       91.290       51.003        0.312      342.250       17.527      864.931
10/22/2013  11:58:00       67.813       79.111       31.518       52.705       37.041       44.145     2777.778     1372.013     1948.819        0.897        0.305      104.198       20.561        0.039      342.191       17.428      864.937
10/22/2013  11:59:00       74.386       56.686       19.571       56.939       59.597       41.131     3242.085     3551.812     1691.770        0.881        0.424       93.524       18.610        0.040      342.137       17.337      864.924
10/22/2013  12:00:00       24.666       67.474        9.703       46.665       35.996       29.469     2177.657     1295.685      868.431        0.480        0.217       71.841       27.448        0.146      341.945       17.010      864.912
10/22/2013  12:01:00       42.673       47.043       19.673       66.706       55.370       34.013     4449.734     3065.786     1156.891        0.655        0.434       63.514       31.778        0.250      342.282       17.582      864.899
10/22/2013  12:02:00      114.089       73.210       27.779       67.771       50.197       49.206     4592.893     2519.722     2421.267        1.434        0.477      135.558       34.408        0.064      342.145       17.349      864.880
10/22/2013  12:03:00      115.590       57.040       22.587       69.589       47.145       42.270     4842.691     2222.692     1786.744        1.299        0.443      128.898       25.442        0.039      342.018       17.134      864.871
10/22/2013  12:04:00      119.951       87.977       35.485       68.530       49.606       44.579     4696.405     2460.720     1987.274        1.626        0.457      148.756       33.431        0.051      342.087       17.252      864.855
10/22/2013  12:05:00      152.784      113.483       19.268       58.092       49.019       44.297     3374.665     2402.846     1962.202        2.216        0.387      190.319       30.560        0.026      341.997       17.098      864.842
10/22/2013  12:06:00       83.573       61.495       21.312       88.734       58.004       50.259     7873.709     3364.499     2525.995        1.249        0.688      103.760       22.573        0.047      342.191       17.426      864.817
10/22/2013  12:07:00       94.014       68.552       18.805       64.302       45.673       39.422     4134.748     2085.980     1554.099        1.083        0.389      116.353       17.209        0.022      342.324       17.655      864.816
10/22/2013  12:08:00       47.208      -70.539       -9.595       46.349       92.685       47.091     2148.260     8590.568     2217.592        1.012        0.648       84.879       49.424        0.339      342.413       17.804      864.808
10/22/2013  12:09:00       77.855     -153.998      -14.423       43.186       38.405       27.010     1865.074     1474.981      729.567        1.703        0.203      172.559        8.857        0.003      342.044       17.178      864.789
10/22/2013  12:10:00       49.586     -124.305       -5.214       47.943       42.500       36.662     2298.506     1806.266     1344.109        1.169        0.272      133.830       19.840        0.022      342.241       17.512      864.779
10/22/2013  12:11:00       38.003      -36.899       39.425       53.787       94.033       62.273     2893.085     8842.232     3877.953        0.998        0.781       52.970       72.276        1.862      342.497       17.948      864.754
10/22/2013  12:12:00       44.916      108.212      116.333       72.986       59.985       51.348     5326.961     3598.255     2636.605        1.941        0.578      117.164       44.118        0.142      342.445       17.859      864.751
10/22/2013  12:13:00       33.134       11.971       35.299       52.134       57.566       35.802     2717.988     3313.846     1281.791        0.490        0.366       35.230       35.920        1.040      342.502       17.957      864.735
10/22/2013  12:14:00       24.428       23.606       50.164       33.215       34.117       23.658     1103.258     1163.972      559.721        0.325        0.141       33.971       21.098        0.386      342.665       18.233      864.724
10/22/2013  12:15:00        2.602       17.652       30.014       31.461       55.187       24.726      989.783     3045.565      611.386        0.293        0.232       17.843       18.793        1.109      342.740       18.362      864.706
10/22/2013  12:16:00       49.938       83.069       34.275       64.945       39.850       36.985     4217.798     1588.020     1367.872        0.887        0.359       96.924       23.763        0.060      342.687       18.271      864.687
10/22/2013  12:17:00      104.728       82.821       44.354       43.797       23.278       35.406     1918.148      541.884     1253.580        1.175        0.186      133.519       30.928        0.054      342.100       17.274      864.684
10/22/2013  12:18:00       39.253       61.433       41.183       45.380       34.262       53.987     2059.346     1173.868     2914.602        0.658        0.307       72.903       39.757        0.297      342.670       18.243      864.662
10/22/2013  12:19:00       36.457       74.227       56.974       33.368       43.497       54.714     1113.405     1891.993     2993.600        0.804        0.300       82.697       42.908        0.269      342.318       17.645      864.658
10/22/2013  12:20:00       16.477       24.777        6.321       16.160       18.996       21.919      261.141      360.865      480.456        0.101        0.055       29.755       15.026        0.255      342.539       18.020      864.639
10/22/2013  12:21:00       18.823       18.066       45.228       40.042       39.849       36.168     1603.394     1587.969     1308.114        0.361        0.225       26.089       30.989        1.411      342.856       18.560      864.612
10/22/2013  12:22:00      114.861       86.063        2.614       77.418       39.928       38.354     5993.619     1594.213     1471.066        1.483        0.453      143.526       27.693        0.037      342.405       17.791      864.601
10/22/2013  12:23:00       80.727       63.995       11.472       52.062       38.073       33.655     2710.420     1449.547     1132.681        0.802        0.265      103.015       12.738        0.015      342.532       18.008      864.579
10/22/2013  12:24:00       25.177       70.331       83.867       71.314       58.150       62.286     5085.679     3381.399     3879.537        1.248        0.617       74.701       52.185        0.488      342.829       18.513      864.567
10/22/2013  12:25:00      115.054       77.282        7.386       46.912       38.034       38.891     2200.693     1446.621     1512.476        1.221        0.258      138.600       22.929        0.027      342.254       17.534      864.563
10/22/2013  12:26:00       50.899       43.459       21.724       45.327       38.428       32.692     2054.496     1476.678     1068.762        0.477        0.230       66.928       23.867        0.127      342.490       17.936      864.542
10/22/2013  12:27:00       11.575       71.804       87.394       43.047       43.273       34.067     1853.041     1872.557     1160.539        0.891        0.244       72.731       30.945        0.181      342.820       18.498      864.538
10/22/2013  12:28:00       60.894       61.658       71.157       36.370       28.500       30.446     1322.813      812.229      926.957        0.782        0.153       86.659       17.998        0.043      342.544       18.028      864.523
10/22/2013  12:29:00       31.626       -4.972        9.261       46.807       20.007       25.214     2190.932      400.289      635.729        0.217        0.161       32.014       15.973        0.249      342.641       18.193      864.516
10/22/2013  12:30:00        4.189        0.261        1.192       15.400       12.925       12.509      237.162      167.046      156.479        0.029        0.028        4.197        7.841        3.490      342.819       18.495      864.509
10/22/2013  12:31:00       66.077       49.148       31.135       40.805       34.673       31.275     1665.085     1202.187      978.148        0.580        0.192       82.351       26.195        0.101      342.593       18.113      864.489
10/22/2013  12:32:00       27.988       28.527       38.831       51.339       43.603       32.050     2635.707     1901.219     1027.227        0.433        0.278       39.964       23.727        0.352      343.005       18.810      864.476
10/22/2013  12:33:00        7.933       98.708      104.983       38.079       58.087       33.655     1450.025     3374.056     1132.650        1.339        0.298       99.026       34.243        0.120      342.878       18.596      864.460
10/22/2013  12:34:00       45.150       56.188       64.942       38.756       46.334       36.302     1502.056     2146.834     1317.852        0.719        0.248       72.081       32.827        0.207      342.663       18.230      864.441
10/22/2013  12:35:00      114.139       68.722       48.506       65.688       60.222       48.169     4314.850     3626.671     2320.295        1.518        0.513      133.231       30.097        0.051      342.598       18.118      864.432
10/22/2013  12:36:00       89.549       42.347       43.186       54.277       70.438       44.861     2945.962     4961.444     2012.500        1.080        0.496       99.057       44.444        0.201      342.674       18.250      864.420
10/22/2013  12:37:00       68.139       38.009       47.282       46.817       74.035       38.863     2191.849     5481.145     1510.354        0.875        0.459       78.023       43.182        0.306      342.601       18.125      864.402
10/22/2013  12:38:00      109.277       65.604       21.414       36.194       25.466       33.586     1310.020      648.524     1128.028        0.989        0.154      127.457       23.290        0.033      342.537       18.016      864.392
10/22/2013  12:39:00       69.386      -88.488        6.256       36.893       67.297       33.321     1361.080     4528.889     1110.266        0.984        0.350      112.448       40.035        0.127      342.639       18.189      864.365
10/22/2013  12:40:00       10.268      -32.024       36.764       23.267       49.092       21.980      541.362     2409.976      483.099        0.296        0.172       33.630       21.357        0.403      343.115       19.001      864.346
10/22/2013  12:41:00       -7.466      -17.403       22.899       25.782       42.070       32.656      664.717     1769.916     1066.443        0.219        0.175       18.937       30.293        2.559      343.480       19.624      864.330
10/22/2013  12:42:00        0.655       31.272       84.111       29.215       74.695       46.811      853.521     5579.359     2191.223        0.834        0.431       31.279       49.969        2.552      343.511       19.675      864.337
10/22/2013  12:43:00       49.266       10.624       36.172       34.364       61.158       42.820     1180.852     3740.268     1833.518        0.530        0.338       50.399       45.295        0.808      342.987       18.781      864.337
10/22/2013  12:44:00       38.135      -34.755       24.130       36.036       53.119       28.860     1298.600     2821.591      832.908        0.410        0.248       51.596       35.951        0.485      343.180       19.112      864.321
10/22/2013  12:45:00       28.678      -44.695      -12.526       37.778       28.894       26.693     1427.206      834.868      712.507        0.298        0.149       53.104       13.635        0.066      342.826       18.508      864.321
10/22/2013  12:46:00      -32.496      -57.310      -22.317       44.254       21.585       15.246     1958.389      465.906      232.427        0.375        0.133       65.882        9.188        0.019      342.725       18.334      864.296
10/22/2013  12:47:00      -97.517      -56.696      -13.755       29.106       25.574       21.834      847.183      654.045      476.738        0.745        0.099      112.801        7.893        0.005      342.795       18.455      864.261
10/22/2013  12:48:00      -18.886      -10.561       18.075       42.404       27.506       22.958     1798.089      756.597      527.053        0.194        0.154       21.638       23.302        1.160      343.410       19.504      864.246
10/22/2013  12:49:00       14.889       20.162       29.158       37.507       35.707       19.999     1406.764     1274.987      399.966        0.228        0.154       25.064       13.356        0.284      343.978       20.472      864.236
10/22/2013  12:50:00       62.694       70.220       31.065       46.907       51.702       43.136     2200.281     2673.136     1860.727        0.828        0.337       94.135       39.188        0.173      343.365       19.425      864.219
10/22/2013  12:51:00      110.827       74.414       28.600       47.642       38.658       38.262     2269.782     1494.473     1463.956        1.193        0.261      133.492       19.146        0.021      343.147       19.055      864.196
10/22/2013  12:52:00      100.720       68.318       25.679       54.460       50.259       50.067     2965.936     2525.987     2506.698        1.173        0.400      121.705       31.725        0.068      343.274       19.269      864.178
10/22/2013  12:53:00       82.446       57.151       48.084       58.444       47.427       46.677     3415.676     2249.313     2178.710        1.011        0.392      100.318       40.108        0.160      343.162       19.079      864.169
10/22/2013  12:54:00       87.334       46.541       74.341       78.060      110.243       70.134     6093.359    12153.448     4918.709        1.924        1.158       98.961       79.421        0.644      343.157       19.070      864.150
10/22/2013  12:55:00      107.453       56.452       61.011       80.493       54.998       64.100     6479.114     3024.761     4108.798        1.603        0.681      121.379       52.668        0.188      343.081       18.942      864.148
10/22/2013  12:56:00       41.076       40.466       40.705       42.129       24.961       25.442     1774.853      623.066      647.300        0.401        0.152       57.660       10.873        0.036      343.226       19.189      864.132
10/22/2013  12:57:00       35.204       54.251        3.972       26.076       50.632       31.323      679.935     2563.584      981.154        0.421        0.211       64.673        9.031        0.019      343.043       18.876      864.121
10/22/2013  12:58:00       65.267       36.136       20.614       35.668       19.833       26.697     1272.218      393.348      712.715        0.418        0.119       74.603       16.707        0.050      343.118       19.004      864.105
10/22/2013  12:59:00       34.211      -11.941      -23.298       21.522       53.137       20.630      463.214     2823.591      425.578        0.278        0.186       36.235       13.093        0.131      342.973       18.756      864.091
10/22/2013  13:00:00        3.701       -4.272        9.397       38.068       38.432       22.962     1449.204     1476.997      527.256        0.179        0.173        5.652       18.883       11.162      343.281       19.283      864.074
10/22/2013  13:01:00       65.342       71.104       54.211       70.241       45.463       47.647     4933.729     2066.881     2270.271        1.077        0.464       96.568       49.950        0.268      343.547       19.735      864.049
10/22/2013  13:02:00       59.234      105.799       -3.788       55.034       44.605       39.758     3028.774     1989.623     1580.728        1.066        0.330      121.252       30.102        0.062      343.164       19.083      864.042
10/22/2013  13:03:00        7.577       88.844      -11.940       33.118       56.924       24.449     1096.829     3240.343      597.758        0.651        0.247       89.166       21.874        0.060      343.496       19.648      864.020
10/22/2013  13:04:00      102.059      105.750        6.519       61.425       47.186       42.568     3773.080     2226.510     1812.053        1.473        0.391      146.966       22.322        0.023      343.330       19.364      863.999
10/22/2013  13:05:00       11.377      138.453      -15.074       51.835       50.726       30.294     2686.883     2573.094      917.730        1.285        0.309      138.920       32.580        0.055      343.269       19.262      863.982
10/22/2013  13:06:00       59.968       83.252      -12.396       59.401       43.384       30.699     3528.432     1882.174      942.446        0.852        0.318      102.601       17.147        0.028      343.542       19.727      863.969
10/22/2013  13:07:00       33.713       -4.402        7.536       36.367       48.731       23.924     1322.593     2374.699      572.351        0.274        0.213       34.000       15.955        0.220      343.752       20.084      863.966
10/22/2013  13:08:00       72.950     -128.205      -15.527       43.113       40.273       27.942     1858.732     1621.898      780.729        1.313        0.213      147.507       23.434        0.025      343.428       19.532      863.951
10/22/2013  13:09:00       68.682     -127.438      -14.690       50.670       35.107       35.088     2567.485     1232.471     1231.163        1.310        0.252      144.768       24.518        0.029      343.475       19.613      863.925
10/22/2013  13:10:00       54.576     -135.625      -20.490       50.745       49.177       30.897     2575.104     2418.377      954.604        1.387        0.297      146.194       30.307        0.043      343.415       19.510      863.917
10/22/2013  13:11:00      112.445     -168.306      -32.474       36.005       35.462       21.061     1296.356     1257.576      443.586        2.251        0.150      202.412       14.050        0.005      343.201       19.145      863.900
10/22/2013  13:12:00       41.000      -46.854        5.443       30.478       42.121       25.615      928.884     1774.190      656.117        0.363        0.168       62.260       29.883        0.230      343.377       19.446      863.908
10/22/2013  13:13:00       42.703      -22.458       25.305       55.723       67.630       29.745     3105.053     4573.760      884.762        0.576        0.428       48.248       41.475        0.739      343.743       20.070      863.875
10/22/2013  13:14:00       36.396       38.323       79.621       64.633       73.719       50.394     4177.415     5434.530     2539.605        1.064        0.608       52.851       52.593        0.990      343.761       20.101      863.859
10/22/2013  13:15:00        4.400      -31.694       36.445       45.124       75.214       57.530     2036.200     5657.128     3309.739        0.668        0.550       31.998       54.164        2.865      343.871       20.289      863.849
10/22/2013  13:16:00       33.917      -49.643       18.589       36.075       78.392       44.251     1301.416     6145.230     1958.141        0.668        0.470       60.123       47.846        0.633      343.770       20.116      863.836
10/22/2013  13:17:00        9.135      -66.499       -6.948       29.294       26.706       18.565      858.113      713.223      344.669        0.323        0.096       67.124       12.816        0.036      343.816       20.194      863.829
10/22/2013  13:18:00      -12.349      -32.701        9.251       21.701       25.451       14.017      470.955      647.752      196.483        0.131        0.066       34.955        5.302        0.023      344.043       20.582      863.806
10/22/2013  13:19:00       11.678       19.608       35.074       36.234       44.377       47.882     1312.922     1969.293     2292.659        0.366        0.279       22.822       34.593        2.298      344.145       20.755      863.795
10/22/2013  13:20:00       41.660      -11.539       29.867       68.309       88.025       45.742     4666.072     7748.443     2092.304        0.863        0.725       43.229       55.864        1.670      343.963       20.446      863.787
10/22/2013  13:21:00       83.263      -79.984       -6.703       35.401       46.357       29.637     1253.219     2148.973      878.367        0.883        0.214      115.456       33.061        0.082      343.501       19.657      863.772
10/22/2013  13:22:00       44.191        5.135       48.234       69.938      108.335       49.099     4891.381    11736.456     2410.755        1.167        0.952       44.489       60.307        1.838      344.146       20.758      863.749
10/22/2013  13:23:00       34.159       83.029      106.618       68.429       64.810       51.984     4682.490     4200.379     2702.326        1.550        0.579       89.781       45.713        0.259      344.177       20.810      863.748
10/22/2013  13:24:00      116.973       78.221       72.959       76.479       61.748       59.244     5849.075     3812.786     3509.795        1.915        0.659      140.716       50.972        0.131      343.727       20.041      863.735
10/22/2013  13:25:00       22.250       50.964       82.634       39.431       42.864       33.452     1554.832     1837.298     1119.058        0.722        0.226       55.609       29.576        0.283      343.923       20.377      863.729
10/22/2013  13:26:00       34.127       39.116        4.104       49.767       44.086       32.603     2476.782     1943.573     1062.936        0.410        0.274       51.911       24.584        0.224      343.986       20.484      863.709
10/22/2013  13:27:00       42.051       14.634        8.831       54.335       35.966       27.507     2952.289     1293.558      756.660        0.353        0.250       44.524       18.320        0.169      344.025       20.552      863.700
10/22/2013  13:28:00       18.918       61.874        4.366       39.976       38.289       22.126     1598.119     1466.078      489.580        0.388        0.178       64.702       21.315        0.109      343.867       20.282      863.692
10/22/2013  13:29:00      177.484      100.454        6.987       58.189       41.311       32.899     3385.942     1706.622     1082.353        2.391        0.309      203.941       23.771        0.014      343.647       19.905      863.683
10/22/2013  13:30:00      151.646       99.034       12.697       57.316       38.271       38.241     3285.141     1464.645     1462.393        1.959        0.311      181.119       25.458        0.020      343.507       19.667      863.681
10/22/2013  13:31:00      123.530       88.184       14.975       38.598       31.797       35.184     1489.799     1011.072     1237.910        1.350        0.187      151.777       19.239        0.016      343.504       19.662      863.662
10/22/2013  13:32:00       50.494       37.880        3.129       39.602       27.401       23.284     1568.357      750.816      542.142        0.343        0.143       63.123       10.968        0.030      343.599       19.824      863.641
10/22/2013  13:33:00       46.750       52.348       30.229       48.210       34.661       43.915     2324.229     1201.391     1928.541        0.565        0.273       70.184       35.229        0.252      343.825       20.210      863.631
10/22/2013  13:34:00      112.173       27.285       17.818       74.795       53.177       41.180     5594.312     2827.825     1695.754        1.188        0.506      115.444       20.445        0.031      343.843       20.241      863.615
10/22/2013  13:35:00       72.687       66.346       17.047       62.947       51.280       37.977     3962.329     2629.604     1442.248        0.900        0.402       98.414       20.036        0.041      343.848       20.250      863.588
10/22/2013  13:36:00      102.757       79.986       28.647       55.326       49.203       37.005     3060.929     2420.939     1369.383        1.231        0.343      130.218       24.597        0.036      343.940       20.407      863.581
10/22/2013  13:37:00       51.163       18.504       25.668       34.640       72.341       38.886     1199.961     5233.229     1512.096        0.578        0.397       54.406       21.587        0.157      344.178       20.813      863.576
10/22/2013  13:38:00       29.858       33.676       16.159       53.928       47.872       33.102     2908.215     2291.773     1095.742        0.429        0.315       45.007       15.875        0.124      344.334       21.079      863.558
10/22/2013  13:39:00       37.176       32.767       50.937       46.100       30.461       37.676     2125.201      927.899     1419.469        0.476        0.224       49.555       22.801        0.212      344.565       21.473      863.536
10/22/2013  13:40:00       22.473       25.423       55.494       36.041       38.339       42.311     1298.966     1469.910     1790.263        0.439        0.228       33.931       20.543        0.367      344.236       20.910      863.535
10/22/2013  13:41:00       82.874       40.744       21.329       67.719       47.221       50.272     4585.822     2229.845     2527.225        0.916        0.467       92.348       33.718        0.133      344.226       20.894      863.515
10/22/2013  13:42:00      126.975       79.752       -4.431       44.612       31.151       32.284     1990.271      970.399     1042.269        1.325        0.200      149.943       20.784        0.019      343.828       20.216      863.499
10/22/2013  13:43:00       54.680       31.042       32.832       45.772       27.456       39.279     2095.081      753.821     1542.862        0.471        0.220       62.877       23.770        0.143      344.065       20.620      863.491
10/22/2013  13:44:00       96.035       63.005      -12.049       41.517       30.256       21.276     1723.700      915.409      452.658        0.821        0.155      114.858       16.717        0.021      343.880       20.304      863.473
10/22/2013  13:45:00       47.796      -52.298      -18.130       31.563       71.028       21.651      996.221     5044.958      468.766        0.593        0.325       70.849       11.506        0.026      343.922       20.377      863.462
10/22/2013  13:46:00       53.825      -71.387       16.291       37.370       45.155       33.054     1396.517     2038.990     1092.591        0.639        0.226       89.405       31.326        0.123      344.062       20.614      863.449
10/22/2013  13:47:00      -40.101      -38.359        3.763       67.719       59.317       26.676     4585.822     3518.529      711.602        0.595        0.441       55.493       28.143        0.257      344.177       20.811      863.420
10/22/2013  13:48:00       -2.759      -52.296        6.513       52.294       57.684       34.729     2734.689     3327.456     1206.095        0.503        0.363       52.368       32.845        0.393      344.371       21.141      863.406
10/22/2013  13:49:00       27.489      -66.907       37.097       50.125       58.609       50.525     2512.566     3434.957     2552.763        0.755        0.425       72.334       42.737        0.349      344.526       21.408      863.400
10/22/2013  13:50:00       35.669        0.172       60.439       50.835       75.960       53.313     2584.171     5769.881     2842.301        0.806        0.560       35.670       51.293        2.068      344.463       21.299      863.381
10/22/2013  13:51:00      134.554     -147.225       -4.284       68.445       65.979       46.177     4684.677     4353.220     2132.334        2.548        0.559      199.449       40.798        0.042      344.188       20.826      863.343
10/22/2013  13:52:00       78.322       92.995       76.455       71.628       56.177       41.460     5130.523     3155.822     1718.935        1.531        0.500      121.583       31.034        0.065      344.344       21.096      863.335
10/22/2013  13:53:00       31.248       63.126       78.337       42.859       40.307       38.514     1836.873     1624.639     1483.325        0.802        0.247       70.437       18.754        0.071      344.123       20.719      863.334
10/22/2013  13:54:00       77.439       45.661       25.189       44.558       41.543       38.437     1985.383     1725.790     1477.430        0.695        0.259       89.899       26.623        0.088      344.075       20.637      863.307
10/22/2013  13:55:00       -6.701       18.907       42.274       29.274       54.600       36.881      856.973     2981.193     1360.230        0.369        0.260       20.060       30.990        2.387      344.599       21.531      863.283
10/22/2013  13:56:00        4.247      -69.567       10.415       44.540       39.937       29.774     1983.855     1594.993      886.497        0.471        0.223       69.696       18.667        0.072      344.303       21.026      863.277
10/22/2013  13:57:00       32.200       39.524       45.378       37.432       36.316       26.981     1401.166     1318.852      727.993        0.405        0.172       50.980       24.141        0.224      344.529       21.412      863.255
10/22/2013  13:58:00       61.283       57.540       31.066       36.974       29.471       33.878     1367.052      868.546     1147.694        0.571        0.169       84.062       22.432        0.071      344.222       20.887      863.238
10/22/2013  13:59:00       10.567      -39.188      -15.909       55.143       37.124       21.772     3040.735     1378.157      474.027        0.340        0.245       40.587       19.668        0.235      343.986       20.483      863.237
10/22/2013  14:00:00      -86.947      -19.648      -15.567       36.782       44.245       20.854     1352.940     1957.647      434.905        0.597        0.187       89.139       13.002        0.021      344.006       20.520      863.200
10/22/2013  14:01:00      -25.870       18.150       32.834       59.688       40.543       48.380     3562.649     1643.728     2340.642        0.481        0.377       31.602       35.844        1.287      344.486       21.340      863.185
10/22/2013  14:02:00       83.720       61.431       46.300       93.089       56.215       70.901     8665.562     3160.146     5026.893        1.489        0.843      103.841       59.837        0.332      344.344       21.095      863.173
10/22/2013  14:03:00       68.538      -17.435       55.203       77.273       62.902       45.467     5971.193     3956.626     2067.227        1.002        0.600       70.721       50.465        0.509      344.639       21.600      863.155
10/22/2013  14:04:00       65.909       72.012       51.379       54.408       41.250       36.098     2960.199     1701.595     1303.051        0.907        0.298       97.620       22.131        0.051      344.492       21.349      863.137
10/22/2013  14:05:00       15.242      -10.602       32.945       48.444       81.717       42.186     2346.812     6677.722     1779.623        0.612        0.540       18.566       45.895        6.110      344.622       21.572      863.121
10/22/2013  14:06:00       85.372       69.417       75.616       80.772       50.554       49.126     6524.157     2555.688     2413.395        1.466        0.575      110.032       44.758        0.165      344.468       21.307      863.094
10/22/2013  14:07:00       23.078       57.161       81.978       49.017       82.198       57.267     2402.708     6756.542     3279.539        1.148        0.622       61.644       64.371        1.090      344.519       21.395      863.078
10/22/2013  14:08:00       28.127      -80.283        6.411       41.576       45.752       38.921     1728.563     2093.260     1514.838        0.631        0.267       85.068       28.079        0.109      344.564       21.472      863.062
10/22/2013  14:09:00        4.623       -0.723       42.647       47.279       68.942       34.321     2235.302     4752.930     1177.906        0.500        0.408        4.679       21.318       20.756      344.886       22.024      863.046
10/22/2013  14:10:00        9.393      -10.489       48.060       53.762       59.619       40.500     2890.334     3554.450     1640.265        0.530        0.404       14.080       30.798        4.785      344.891       22.033      863.034
10/22/2013  14:11:00       95.442      -70.592       13.449       81.356       66.170       46.807     6618.819     4378.491     2190.857        1.373        0.659      118.712       47.398        0.159      344.603       21.539      863.021
10/22/2013  14:12:00       71.770      -81.961       -5.604       31.275       42.965       24.130      978.146     1846.014      582.240        0.765        0.170      108.943       22.803        0.044      344.193       20.838      863.024
10/22/2013  14:13:00       21.437      -18.218        4.229       13.841       24.310       22.332      191.561      590.978      498.714        0.105        0.064       28.133       17.256        0.376      344.411       21.212      863.007
10/22/2013  14:14:00      -10.496        5.108       25.460       22.077       12.338        9.407      487.413      152.233       88.500        0.076        0.036       11.673        8.549        0.536      344.873       22.000      862.981
10/22/2013  14:15:00      -22.056        6.296        4.755       17.466        7.166       14.754      305.064       51.345      217.687        0.056        0.029       22.937       10.581        0.213      344.745       21.782      862.974
10/22/2013  14:16:00        6.213       26.419       54.526       23.761       36.085       24.558      564.608     1302.130      603.113        0.309        0.123       27.140       19.889        0.537      345.042       22.291      862.962
10/22/2013  14:17:00       -0.874       -0.022        9.097       23.512       24.781       19.822      552.812      614.076      392.905        0.082        0.078        0.874        8.221       88.488      344.969       22.167      862.946
10/22/2013  14:18:00       40.888       17.923       12.307       51.661       40.866       27.274     2668.886     1670.003      743.896        0.361        0.254       44.644       19.412        0.189      344.663       21.641      862.941
10/22/2013  14:19:00       30.146       26.952       46.425       27.383       31.189       30.998      749.830      972.750      960.895        0.324        0.134       40.437       16.116        0.159      344.777       21.836      862.937
10/22/2013  14:20:00       30.951       26.522       61.633       48.102       44.853       34.443     2313.779     2011.798     1186.289        0.548        0.276       40.760       31.103        0.582      344.744       21.781      862.925
10/22/2013  14:21:00       83.735      -18.733       15.504       33.233       43.654       28.814     1104.441     1905.666      830.219        0.572        0.192       85.805       27.834        0.105      344.516       21.389      862.907
10/22/2013  14:22:00       98.091      -40.288       18.515       57.229       41.834       34.040     3275.198     1750.102     1158.713        0.888        0.309      106.042       28.568        0.073      344.503       21.366      862.899
10/22/2013  14:23:00       56.856       41.632       73.181       60.913       72.953       44.509     3710.367     5322.101     1981.031        1.067        0.551       70.468       50.708        0.518      344.807       21.887      862.878
10/22/2013  14:24:00       62.136      -25.493       37.931       57.671       57.456       45.155     3325.979     3301.139     2039.000        0.731        0.433       67.163       41.130        0.375      344.926       22.093      862.859
10/22/2013  14:25:00       73.922      -85.082        6.110       64.595       63.689       45.204     4172.522     4056.271     2043.400        1.150        0.514      112.709       45.363        0.162      344.805       21.884      862.850
10/22/2013  14:26:00       87.385      -27.818       48.276       66.299      110.403       57.159     4395.524    12188.845     3267.160        1.529        0.993       91.706       59.896        0.427      344.735       21.764      862.840
10/22/2013  14:27:00       28.828       28.473       62.774       49.391       77.993       54.490     2439.488     6082.939     2969.180        0.854        0.575       40.519       57.668        2.026      344.801       21.878      862.833
10/22/2013  14:28:00      129.351       71.957       56.701      101.779       62.007       65.800    10358.879     3844.808     4329.694        2.183        0.927      148.019       59.596        0.162      344.679       21.667      862.822
10/22/2013  14:29:00       53.767       52.025       13.407       62.508       57.511       47.225     3907.253     3307.511     2230.231        0.761        0.472       74.817       28.244        0.143      344.742       21.778      862.824
10/22/2013  14:30:00       26.555      -84.076        8.382       58.936       96.813       43.739     3473.507     9372.832     1913.118        1.130        0.738       88.170       45.863        0.271      344.974       22.174      862.811
10/22/2013  14:31:00       71.607     -131.929       -8.984       69.559       27.717       24.141     4838.518      768.253      582.792        1.440        0.309      150.109       26.165        0.030      344.577       21.494      862.814
10/22/2013  14:32:00        8.915      -51.317       32.127       28.403       53.931       40.201      806.740     2908.578     1616.145        0.454        0.267       52.086       15.898        0.093      345.062       22.325      862.805
10/22/2013  14:33:00      -22.122      -12.288       22.942       52.605       29.126       24.719     2767.310      848.332      611.023        0.270        0.211       25.306       25.177        0.990      345.027       22.264      862.782
10/22/2013  14:34:00       85.139       30.978       12.963       39.275       63.083       31.225     1542.503     3979.490      974.995        0.744        0.325       90.600       31.849        0.124      344.746       21.784      862.776
10/22/2013  14:35:00       85.145       57.748       42.389       74.063       55.920       48.855     5485.304     3127.025     2386.796        1.169        0.550      102.881       46.994        0.209      345.043       22.292      862.761
10/22/2013  14:36:00      134.740       10.160       51.081      102.805      153.579       72.396    10568.791    23586.461     5241.228        3.013        1.970      135.122       83.651        0.383      344.868       21.989      862.746
10/22/2013  14:37:00       66.843        4.469       36.672       90.555      101.269       41.086     8200.131    10255.486     1688.086        1.298        1.007       66.993       16.721        0.062      345.166       22.501      862.733
10/22/2013  14:38:00      143.095       86.695       29.743       52.075       40.310       42.703     2711.755     1624.926     1823.534        1.752        0.308      167.309       21.323        0.016      344.647       21.613      862.748
10/22/2013  14:39:00      122.022       55.300       31.878       82.394       53.696       39.569     6788.759     2883.297     1565.688        1.510        0.562      133.968       23.078        0.030      344.840       21.944      862.741
10/22/2013  14:40:00        9.503      -18.920       14.881       42.341       47.763       34.161     1792.755     2281.313     1166.945        0.295        0.262       21.173       16.104        0.579      345.105       22.397      862.733
10/22/2013  14:41:00       32.026       60.637       75.586       66.278       64.938       65.342     4392.828     4216.991     4269.602        1.165        0.644       68.575       59.112        0.743      345.078       22.350      862.723
10/22/2013  14:42:00       40.732       53.254       70.760       58.975       55.344       46.149     3478.066     3062.967     2129.716        0.908        0.434       67.046       41.759        0.388      344.950       22.132      862.713
10/22/2013  14:43:00       11.100       48.849       71.141       35.959       54.466       47.939     1293.074     2966.532     2298.136        0.706        0.328       50.095       36.736        0.538      345.273       22.686      862.725
10/22/2013  14:44:00      121.000      106.695       40.315       73.756       52.525       58.784     5439.940     2758.925     3455.611        1.965        0.583      161.322       49.278        0.093      345.014       22.240      862.726
10/22/2013  14:45:00       59.337       50.267       48.838       62.603       44.485       48.054     3919.085     1978.943     2309.225        0.832        0.410       77.767       36.979        0.226      345.076       22.349      862.713
10/22/2013  14:46:00       -2.350       36.241       23.054       40.733       33.505       30.569     1659.147     1122.558      934.466        0.278        0.186       36.317       29.969        0.681      345.104       22.397      862.702
10/22/2013  14:47:00       23.443       52.526        9.887       34.564       35.324       22.149     1194.647     1247.809      490.578        0.317        0.147       57.520       18.280        0.101      345.002       22.222      862.689
10/22/2013  14:48:00       14.411       18.581       37.449       45.228       35.750       30.256     2045.585     1278.066      915.428        0.310        0.212       23.514       16.164        0.473      345.264       22.671      862.688
10/22/2013  14:49:00       22.344      -13.704       11.643       39.629       62.893       35.467     1570.470     3955.569     1257.943        0.380        0.339       26.212       40.690        2.410      345.189       22.542      862.691
10/22/2013  14:50:00       31.273       32.972        2.837       76.773       51.153       35.109     5894.161     2616.653     1232.630        0.591        0.487       45.444       31.250        0.473      345.210       22.578      862.665
10/22/2013  14:51:00      150.235      101.285       28.884       70.597       58.683       48.767     4983.956     3443.708     2378.225        2.223        0.540      181.189       34.861        0.037      344.904       22.052      862.666
10/22/2013  14:52:00       83.929       66.219       15.141       65.005       53.893       30.514     4225.635     2904.435      931.111        0.986        0.403      106.907       26.965        0.064      345.058       22.318      862.663
10/22/2013  14:53:00      127.335       83.757       27.284       58.701       58.030       44.656     3445.810     3367.500     1994.194        1.639        0.440      152.412       22.415        0.022      345.018       22.248      862.658
10/22/2013  14:54:00      155.222      175.830       -3.054       85.372      103.086       65.415     7288.396    10626.823     4279.161        3.860        1.110      234.542       57.498        0.060      344.921       22.081      862.637
10/22/2013  14:55:00       82.366       71.722       10.563       80.843       69.471       43.385     6535.513     4826.213     1882.278        1.264        0.662      109.216       28.747        0.069      344.998       22.214      862.632
10/22/2013  14:56:00       67.564       32.904       10.877       64.723       37.918       40.492     4189.076     1437.791     1639.587        0.651        0.363       75.150       22.344        0.088      344.954       22.138      862.640
10/22/2013  14:57:00       63.662       17.962       42.380       57.055       41.228       34.999     3255.301     1699.710     1224.931        0.617        0.309       66.148       34.798        0.277      345.002       22.222      862.644
10/22/2013  14:58:00       86.910       65.245       23.966       93.220       77.634       52.486     8689.966     6027.019     2754.752        1.493        0.874      108.676       41.567        0.146      345.136       22.449      862.627
10/22/2013  14:59:00       72.145       87.475        1.372       58.466       51.780       35.118     3418.244     2681.157     1233.289        1.009        0.367      113.388       27.851        0.060      345.046       22.298      862.629
10/22/2013  15:00:00       54.734       28.605      -10.042       37.884       34.762       25.236     1435.191     1208.396      636.870        0.360        0.164       61.758       17.794        0.083      344.982       22.187      862.629
10/22/2013  15:01:00       37.394       54.374      -15.541       53.372       74.240       33.535     2848.522     5511.652     1124.563        0.704        0.474       65.991       23.217        0.124      345.082       22.358      862.622
10/22/2013  15:02:00       56.271      -56.608       20.687       57.750       49.841       31.248     3335.043     2484.137      976.417        0.680        0.340       79.818       30.698        0.148      345.330       22.783      862.625
10/22/2013  15:03:00       51.154      -30.396       26.339       54.474       63.742       35.229     2967.446     4063.050     1241.051        0.625        0.414       59.503       34.192        0.330      345.360       22.834      862.611
10/22/2013  15:04:00       36.175      -15.885       35.750       49.237       80.420       36.855     2424.273     6467.316     1358.286        0.654        0.512       39.509       31.778        0.647      345.428       22.952      862.598
10/22/2013  15:05:00       18.463      -20.596       40.473       46.595       93.322       47.576     2171.050     8709.036     2263.452        0.777        0.657       27.660       55.436        4.017      345.343       22.805      862.591
10/22/2013  15:06:00      143.696     -101.610        6.421       65.524       78.498       42.991     4293.428     6161.982     1848.256        2.166        0.615      175.992       52.571        0.089      345.120       22.421      862.590
10/22/2013  15:07:00       92.547     -107.932       -9.127       41.536       65.378       45.234     1725.266     4274.288     2046.120        1.417        0.402      142.177       45.082        0.101      345.056       22.314      862.586
10/22/2013  15:08:00       37.319      -17.047       15.308       31.810       56.779       19.735     1011.901     3223.835      389.489        0.327        0.231       41.028       29.111        0.503      345.123       22.429      862.576
10/22/2013  15:09:00        1.659       10.298        3.240       28.211       16.176       20.846      795.834      261.677      434.565        0.081        0.075       10.430       22.210        4.534      345.241       22.631      862.550
10/22/2013  15:10:00      -35.632       22.849        7.793       50.611       31.807       27.108     2561.504     1011.657      734.829        0.308        0.215       42.329       22.642        0.286      345.415       22.930      862.533
10/22/2013  15:11:00      -61.344        1.822      -11.371       28.686       17.059       15.619      822.869      290.996      243.944        0.263        0.068       61.371       11.490        0.035      345.237       22.624      862.533
10/22/2013  15:12:00       64.223       12.120       14.774       58.101       33.594       27.845     3375.723     1128.571      775.367        0.488        0.264       65.356       27.583        0.178      345.305       22.740      862.540
10/22/2013  15:13:00      149.156       83.014       58.997       67.538       40.400       40.274     4561.335     1632.140     1621.979        2.022        0.391      170.701       28.745        0.028      345.178       22.522      862.526
10/22/2013  15:14:00      125.044       62.628       53.367       84.865       62.264       39.292     7202.022     3876.804     1543.858        1.751        0.631      139.851       32.378        0.054      345.415       22.926      862.513
10/22/2013  15:15:00       97.834       33.771       16.232       70.585       56.741       38.692     4982.214     3219.558     1497.100        1.034        0.485      103.498       26.147        0.064      345.236       22.621      862.527
10/22/2013  15:16:00      125.996       85.945       11.369       30.616       27.515       27.118      937.345      757.069      735.362        1.291        0.121      152.518       10.835        0.005      345.045       22.295      862.529
10/22/2013  15:17:00      110.565       56.589       12.623       38.193       37.160       37.025     1458.692     1380.859     1370.864        0.990        0.211      124.205       20.701        0.028      345.159       22.489      862.525
10/22/2013  15:18:00       74.794       26.074       31.393       59.213       48.556       33.335     3506.162     2357.675     1111.217        0.712        0.349       79.209       10.856        0.019      345.325       22.773      862.513
10/22/2013  15:19:00      180.978      131.285       30.436       78.118       69.230       50.833     6102.444     4792.758     2583.987        3.219        0.674      223.582       39.225        0.031      345.043       22.289      862.514
10/22/2013  15:20:00      103.078       64.221       19.718       53.877       41.617       32.730     2902.707     1731.934     1071.251        1.042        0.285      121.447       26.633        0.048      345.060       22.321      862.516
10/22/2013  15:21:00       89.622        1.945       44.957       68.677       93.105       67.208     4716.568     8668.531     4516.933        1.398        0.895       89.643       60.396        0.454      345.264       22.667      862.524
10/22/2013  15:22:00      110.123      110.421      109.099       70.058       63.777       61.923     4908.074     4067.455     3834.413        2.451        0.640      155.948       38.913        0.062      345.286       22.704      862.524
10/22/2013  15:23:00       52.076       51.369       84.583       48.060       66.857       44.362     2309.739     4469.869     1967.969        1.062        0.437       73.148       45.152        0.381      345.248       22.644      862.513
10/22/2013  15:24:00       26.262      -46.255        1.126       32.949       40.167       26.850     1085.664     1613.398      720.925        0.312        0.171       53.190       20.408        0.147      345.340       22.800      862.502
10/22/2013  15:25:00       24.206      -82.591       -9.622       34.988       60.894       36.381     1224.171     3708.071     1323.603        0.688        0.313       86.065       15.486        0.032      345.342       22.804      862.481
10/22/2013  15:26:00        3.881      -27.559       23.316       36.242       56.311       27.004     1313.474     3170.922      729.213        0.327        0.261       27.831       25.728        0.855      345.502       23.079      862.474
10/22/2013  15:27:00      116.034       78.754       22.300       77.491       59.414       48.032     6004.924     3529.984     2307.039        1.600        0.592      140.236       33.607        0.057      345.192       22.545      862.472
10/22/2013  15:28:00       38.354       46.674        5.683       54.342       63.645       30.966     2953.081     4050.721      958.910        0.582        0.398       60.411       19.293        0.102      345.345       22.809      862.442
10/22/2013  15:29:00       88.705       57.972       21.744       65.181       45.835       37.619     4248.531     2100.882     1415.213        0.973        0.388      105.969       21.952        0.043      345.312       22.752      862.430
10/22/2013  15:30:00      146.063       62.826        6.155       91.865       66.583       55.286     8439.208     4433.352     3056.521        2.062        0.796      159.001       43.537        0.075      345.340       22.798      862.428
10/22/2013  15:31:00      112.733       79.544       84.042      103.808      100.286       82.839    10776.108    10057.305     6862.258        2.689        1.385      137.971       79.622        0.333      345.429       22.951      862.425
10/22/2013  15:32:00      144.897        6.560       72.587      105.569      119.210       79.876    11144.711    14211.085     6380.136        2.902        1.587      145.045       89.794        0.383      345.340       22.797      862.431
10/22/2013  15:33:00      108.074      -23.667       56.365       80.748       78.919       56.739     6520.315     6228.268     3219.361        1.569        0.798      110.635       55.715        0.254      345.436       22.965      862.429
10/22/2013  15:34:00      139.496     -145.548       -5.021       70.096       90.252       53.335     4913.461     8145.494     2844.593        2.828        0.795      201.602       56.081        0.077      345.348       22.811      862.422
10/22/2013  15:35:00      116.221     -172.941      -28.767       51.124       37.970       31.300     2613.657     1441.710      979.707        2.464        0.252      208.365       20.065        0.009      345.259       22.660      862.420
10/22/2013  15:36:00       70.837     -153.353      -11.092       71.279       58.550       36.251     5080.627     3428.073     1314.115        1.924        0.491      168.923       37.190        0.048      345.221       22.595      862.422
10/22/2013  15:37:00       18.017      -90.834      -14.471       35.572       42.393       26.876     1265.356     1797.197      722.320        0.628        0.189       92.603       14.771        0.025      345.368       22.848      862.424
10/22/2013  15:38:00       12.729       -7.395       12.870       21.618       30.764       19.056      467.319      946.424      363.140        0.108        0.089       14.721       17.233        1.371      345.541       23.144      862.415
10/22/2013  15:39:00       32.609       -1.083        8.427       27.699       24.436       18.704      767.243      597.112      349.839        0.142        0.086       32.627       18.134        0.309      345.364       22.843      862.402
10/22/2013  15:40:00       46.707       40.805       21.499       31.909       30.671       22.760     1018.166      940.725      518.035        0.339        0.124       62.021       15.378        0.061      345.301       22.733      862.393
10/22/2013  15:41:00       16.961       -1.325       14.777       29.490       32.524       21.136      869.632     1057.841      446.730        0.144        0.119       17.013       14.118        0.689      345.526       23.120      862.386
10/22/2013  15:42:00       57.597       47.011        2.244       28.768       26.874       29.515      827.615      722.230      871.110        0.398        0.121       74.346       18.537        0.062      345.349       22.816      862.385
10/22/2013  15:43:00      210.217      116.652       28.658       87.406       59.194       47.327     7639.863     3503.888     2239.874        3.600        0.669      240.414       31.386        0.017      345.313       22.751      862.380
10/22/2013  15:44:00      178.145       85.885       22.335      115.728       76.111       57.097    13393.067     5792.959     3260.082        3.102        1.122      197.767       48.618        0.060      345.405       22.910      862.381
10/22/2013  15:45:00      116.290       91.362        3.002       71.373       52.629       32.879     5094.150     2769.819     1081.023        1.541        0.447      147.887       16.018        0.012      345.390       22.885      862.396
10/22/2013  15:46:00       46.151       58.776       45.446       43.608       40.636       34.757     1901.700     1651.310     1208.041        0.620        0.238       74.729       32.322        0.187      345.399       22.900      862.401
10/22/2013  15:47:00      115.140       86.246       26.076      105.535       56.412       28.873    11137.559     3182.327      833.655        1.826        0.758      143.860       39.606        0.076      345.421       22.938      862.392
10/22/2013  15:48:00       84.905       64.077       44.020       84.651       50.051       45.240     7165.714     2505.080     2046.660        1.248        0.586      106.370       48.450        0.207      345.616       23.272      862.386
10/22/2013  15:49:00       42.954       20.055       50.578       59.164       51.915       44.989     3500.418     2695.155     2024.017        0.651        0.411       47.406       42.023        0.786      345.482       23.043      862.384
10/22/2013  15:50:00       56.542       34.733       29.151       42.637       38.167       25.823     1817.925     1456.724      666.834        0.460        0.197       66.358       22.592        0.116      345.437       22.967      862.386
10/22/2013  15:51:00      116.686       70.710        5.528       69.721       47.168       39.798     4861.016     2224.819     1583.902        1.366        0.433      136.438       18.239        0.018      345.322       22.768      862.385
10/22/2013  15:52:00      103.381       43.374       15.968       75.809       64.110       45.679     5746.980     4110.134     2086.536        1.238        0.597      112.112       39.640        0.125      345.380       22.868      862.389
10/22/2013  15:53:00      113.093      101.327       -5.354       64.923       62.613       42.874     4214.996     3920.401     1838.157        1.653        0.499      151.846       34.230        0.051      345.280       22.696      862.387
10/22/2013  15:54:00       23.869       98.301      -23.180       38.392       61.674       23.576     1473.940     3803.736      555.846        0.830        0.292      101.157       26.487        0.069      345.326       22.775      862.380
10/22/2013  15:55:00      -15.318       26.500      -18.364       23.285       29.473       18.174      542.174      868.655      330.277        0.151        0.087       30.609       13.425        0.192      345.282       22.702      862.358
10/22/2013  15:56:00      -13.659       -2.784       14.814       30.705       33.727       15.374      942.777     1137.520      236.360        0.136        0.116       13.940       14.748        1.119      345.739       23.484      862.335
10/22/2013  15:57:00      -77.411       79.635      -23.180       25.512       31.321       16.574      650.843      981.027      274.701        0.739        0.095      111.060        9.563        0.007      345.496       23.068      862.321
10/22/2013  15:58:00      -50.334       30.061       -9.038       22.717       36.679       19.134      516.077     1345.379      366.123        0.287        0.111       58.627        8.760        0.022      345.626       23.291      862.306
10/22/2013  15:59:00      -68.155       59.660      -19.705       27.983       20.484       15.140      783.075      419.590      229.234        0.501        0.072       90.578        7.124        0.006      345.552       23.163      862.304
10/22/2013  16:00:00      -22.805       30.568       -3.395       21.984       20.934       18.857      483.285      438.233      355.601        0.137        0.064       38.137       12.721        0.111      345.623       23.286      862.300
10/22/2013  16:01:00      -10.979       57.211       -7.277       11.972       12.000       15.304      143.320      144.007      234.199        0.198        0.026       58.255        8.786        0.023      345.456       23.000      862.305
10/22/2013  16:02:00       31.791       37.759        4.535       52.184       40.448       32.779     2723.152     1636.071     1074.470        0.394        0.272       49.360       22.833        0.214      345.448       22.985      862.315
10/22/2013  16:03:00       51.551       54.829       -1.508       53.450       55.187       33.031     2856.866     3045.616     1091.023        0.633        0.350       75.258       28.952        0.148      345.533       23.130      862.312
10/22/2013  16:04:00      117.012       63.138       20.588       69.064       67.489       41.756     4769.846     4554.781     1743.559        1.458        0.553      132.960       33.544        0.064      345.397       22.896      862.310
10/22/2013  16:05:00       51.809      102.919      -12.294       42.024       53.337       30.400     1766.001     2844.819      924.132        0.948        0.277      115.223       30.004        0.068      345.345       22.809      862.295
10/22/2013  16:06:00      115.323       94.074       13.073       70.205       54.434       42.727     4928.774     2963.059     1825.566        1.602        0.486      148.826       21.972        0.022      345.451       22.988      862.284
10/22/2013  16:07:00       40.491       44.690        9.031       63.900       47.688       35.846     4083.155     2274.159     1284.935        0.568        0.382       60.305       27.077        0.202      345.495       23.066      862.282
10/22/2013  16:08:00       71.344       70.616       16.215       91.789       74.862       45.832     8425.303     5604.272     2100.592        1.323        0.807      100.382       34.826        0.120      345.515       23.098      862.301
10/22/2013  16:09:00      152.315       65.361       30.042      112.682       78.773       50.482    12697.260     6205.183     2548.465        2.491        1.073      165.747       38.368        0.054      345.424       22.941      862.284
10/22/2013  16:10:00      175.829      102.331       39.419       98.185       96.171       62.486     9640.325     9248.843     3904.539        3.286        1.140      203.439       55.632        0.075      345.407       22.913      862.285
10/22/2013  16:11:00      112.185       56.733       10.710       61.455       55.562       36.815     3776.732     3087.182     1355.358        1.207        0.411      125.715       27.791        0.049      345.455       22.996      862.268
10/22/2013  16:12:00      103.497      144.171      -14.490       83.472      118.017       47.061     6967.590    13928.075     2214.738        2.740        1.156      177.474       58.388        0.108      345.414       22.924      862.254
10/22/2013  16:13:00      115.598      114.297        3.308      103.006      114.224       58.408    10610.252    13047.022     3411.517        2.675        1.353      162.563       72.138        0.197      345.431       22.953      862.257
10/22/2013  16:14:00       85.599      107.392        0.245       84.214       74.648       44.777     7091.966     5572.267     2004.975        1.676        0.733      137.333       35.259        0.066      345.446       22.980      862.262
10/22/2013  16:15:00       83.554      112.441       -6.703       65.851       74.083       57.456     4336.325     5488.249     3301.166        1.640        0.656      140.087       46.662        0.111      345.363       22.839      862.265
10/22/2013  16:16:00       92.693      137.575       -7.109       86.550       64.347       53.627     7490.909     4140.593     2875.829        2.104        0.725      165.888       39.669        0.057      345.261       22.662      862.262
10/22/2013  16:17:00       40.921      117.257      -17.842       44.889       55.180       33.953     2015.042     3044.824     1152.773        1.098        0.311      124.192       28.422        0.052      345.266       22.672      862.256
10/22/2013  16:18:00       23.921      151.044      -31.960       27.460       28.714       15.917      754.041      824.494      253.355        1.312        0.092      152.927       13.015        0.007      345.288       22.711      862.245
10/22/2013  16:19:00      114.966       96.312        2.478       56.426       44.053       28.660     3183.892     1940.678      821.372        1.422        0.297      149.978       22.766        0.023      345.345       22.809      862.229
10/22/2013  16:20:00       31.725      118.171      -16.595       50.552       91.533       34.061     2555.469     8378.200     1160.163        1.367        0.605      122.356       39.800        0.106      345.372       22.854      862.208
10/22/2013  16:21:00       46.031      112.862      -15.647       41.922       38.416       33.137     1757.443     1475.785     1098.066        0.972        0.217      121.889       20.200        0.027      345.329       22.781      862.198
10/22/2013  16:22:00       16.296       92.018      -14.053       40.435       40.219       22.501     1635.000     1617.600      506.306        0.634        0.188       93.450       19.036        0.041      345.355       22.826      862.202
10/22/2013  16:23:00       47.970       68.939       -2.802       43.048       43.879       31.978     1853.165     1925.361     1022.574        0.593        0.240       83.986       24.429        0.085      345.376       22.862      862.190
10/22/2013  16:24:00       36.443       13.072       10.988       36.256       23.606       25.684     1314.463      557.261      659.658        0.208        0.127       38.716       13.566        0.123      345.377       22.864      862.186
10/22/2013  16:25:00       56.662       86.909      104.344       56.766       56.674       49.413     3222.370     3211.902     2441.647        1.526        0.444      103.749       48.683        0.220      345.352       22.820      862.178
10/22/2013  16:26:00       82.231       97.664      120.590       85.289       61.548       43.653     7274.233     3788.183     1905.612        2.190        0.648      127.672       48.082        0.142      345.286       22.705      862.158
10/22/2013  16:27:00       63.101       85.799      108.843      102.856       76.128       53.777    10579.439     5795.440     2891.920        2.123        0.963      106.505       65.369        0.377      345.384       22.874      862.144
10/22/2013  16:28:00       59.511       40.511       63.570       58.480       60.974       43.782     3419.904     3717.784     1916.898        0.914        0.453       71.991       38.277        0.283      345.334       22.790      862.134
10/22/2013  16:29:00       80.418       87.941       70.676       87.576       69.928       53.896     7669.507     4889.934     2904.828        1.733        0.773      119.166       47.718        0.160      345.398       22.898      862.125
10/22/2013  16:30:00       61.716        5.985       33.091       67.608      100.302       42.464     4570.854    10060.448     1803.202        1.068        0.822       62.005       45.948        0.549      345.523       23.114      862.115
10/22/2013  16:31:00       39.157       21.641       41.359       58.792       48.754       34.201     3456.550     2376.909     1169.688        0.536        0.350       44.739       28.882        0.417      345.511       23.094      862.111
10/22/2013  16:32:00       80.282      -15.651       27.600       63.989       60.027       36.634     4094.559     3603.207     1342.082        0.824        0.452       81.794       37.164        0.206      345.531       23.128      862.107
10/22/2013  16:33:00       62.998       38.512       44.266       51.797       50.992       36.991     2682.880     2600.150     1368.370        0.703        0.333       73.837       28.472        0.149      345.493       23.063      862.095
10/22/2013  16:34:00      115.489       83.045       55.877       80.976       48.878       50.994     6557.168     2389.093     2600.420        1.745        0.577      142.247       26.402        0.034      345.485       23.047      862.092
10/22/2013  16:35:00       89.124       63.937       15.133       60.683       39.354       35.547     3682.410     1548.726     1263.604        0.938        0.325      109.686       14.910        0.018      345.472       23.026      862.105
10/22/2013  16:36:00       70.041       61.005       16.811       59.410       37.880       26.987     3529.549     1434.890      728.279        0.730        0.285       92.883       14.257        0.024      345.470       23.024      862.110
10/22/2013  16:37:00       43.131      114.581      -15.987       34.270       55.154       25.237     1174.426     3041.991      636.912        1.005        0.243      122.430       24.685        0.041      345.549       23.158      862.108
10/22/2013  16:38:00       38.878       57.367       -7.004       39.771       59.033       28.508     1581.755     3484.843      812.693        0.536        0.294       69.300       28.794        0.173      345.452       22.991      862.110
10/22/2013  16:39:00       29.207      241.890      -35.450       87.006       84.973       39.897     7570.119     7220.398     1591.804        3.850        0.819      243.647       48.658        0.040      345.304       22.734      862.108
10/22/2013  16:40:00      -28.390      157.754      -27.093       77.419       69.007       29.792     5993.752     4761.922      887.577        1.903        0.582      160.288       33.495        0.044      345.339       22.795      862.103
10/22/2013  16:41:00       27.444      125.839      -14.325       40.007       72.177       37.163     1600.594     5209.555     1381.124        1.249        0.410      128.797       39.952        0.096      345.289       22.713      862.101
10/22/2013  16:42:00       81.249      117.363      -13.678       55.345       84.147       40.750     3063.093     7080.760     1660.603        1.618        0.590      142.743       43.882        0.095      345.321       22.766      862.091
10/22/2013  16:43:00       75.458      178.374      -22.850       73.265      107.307       54.506     5367.741    11514.841     2970.950        2.894        0.993      193.678       56.315        0.085      345.304       22.735      862.084
10/22/2013  16:44:00      156.279      116.922       16.746      105.127       82.855       62.363    11051.625     6865.000     3889.136        3.009        1.090      195.176       38.511        0.039      345.281       22.694      862.087
10/22/2013  16:45:00      130.734      155.245        0.579       79.185      112.150       58.065     6270.223    12577.528     3371.600        3.170        1.111      202.959       54.744        0.073      345.300       22.728      862.079
10/22/2013  16:46:00      199.776      132.611       41.095       87.273       55.453       58.808     7616.624     3075.071     3458.414        3.667        0.708      239.784       28.519        0.014      345.226       22.602      862.076
10/22/2013  16:47:00      176.356      133.277       17.629       64.757       50.462       49.047     4193.470     2546.420     2405.569        2.916        0.457      221.053       29.860        0.018      345.228       22.604      862.069
10/22/2013  16:48:00       38.218       83.451        1.498       71.169       87.027       39.945     5065.009     7573.724     1595.606        1.133        0.712       91.786       47.556        0.268      345.302       22.734      862.053
10/22/2013  16:49:00      127.126       70.113       16.955       72.786       57.183       44.699     5297.827     3269.923     1998.026        1.596        0.528      145.178       42.373        0.085      345.282       22.701      862.044
10/22/2013  16:50:00      103.588       91.712        7.075       81.496       49.023       36.304     6641.647     2403.288     1317.985        1.478        0.518      138.353       34.686        0.063      345.267       22.674      862.047
10/22/2013  16:51:00      119.926       73.154       33.879       61.214       45.726       49.892     3747.185     2090.899     2489.208        1.460        0.416      140.477       30.191        0.046      345.284       22.702      862.037
10/22/2013  16:52:00       69.483       67.009       48.772       55.701       52.777       46.328     3102.573     2785.374     2146.328        0.986        0.402       96.530       28.118        0.085      345.364       22.840      862.031
10/22/2013  16:53:00      111.343      116.912      101.279       96.642       79.290       68.846     9339.741     6286.947     4739.836        2.834        1.018      161.449       61.773        0.146      345.287       22.706      862.018
10/22/2013  16:54:00       63.837       57.642       92.400       66.000       57.844       48.045     4355.957     3345.986     2308.353        1.297        0.501       86.010       40.293        0.219      345.292       22.717      862.012
10/22/2013  16:55:00      153.675      100.710       54.324       96.633       60.229       68.022     9337.988     3627.503     4626.939        2.715        0.880      183.735       57.971        0.100      345.236       22.621      862.007
10/22/2013  16:56:00      182.164       74.238       71.058       94.533       82.046       56.950     8936.483     6731.596     3243.341        3.132        0.946      196.711       53.696        0.075      345.212       22.576      862.001
10/22/2013  16:57:00      144.198      101.527       74.943       88.301       79.586       72.789     7797.017     6333.943     5298.298        2.807        0.971      176.354       45.243        0.066      345.224       22.597      861.992
10/22/2013  16:58:00       67.861       44.985        4.109       48.948       49.439       35.549     2395.925     2444.248     1263.697        0.637        0.305       81.417       23.018        0.080      345.266       22.674      861.988
10/22/2013  16:59:00      118.484       67.886        8.110       52.399       37.967       32.519     2745.616     1441.462     1057.505        1.198        0.262      136.554       24.307        0.032      345.224       22.601      861.989
10/22/2013  17:00:00      122.400       63.607       19.366       81.436       56.092       37.546     6631.848     3146.275     1409.711        1.529        0.559      137.941       27.787        0.041      345.247       22.640      861.989
10/22/2013  17:01:00      140.375       61.127       12.116       89.538       52.498       50.710     8017.028     2756.076     2571.531        1.846        0.667      153.107       27.591        0.032      345.260       22.662      861.981
10/22/2013  17:02:00      112.823       76.288       20.056       72.437       44.435       42.675     5247.183     1974.511     1821.144        1.400        0.452      136.194       30.430        0.050      345.239       22.627      861.984
10/22/2013  17:03:00      102.122       81.133       14.573       66.733       50.829       36.424     4453.333     2583.559     1326.719        1.279        0.418      130.428       31.107        0.057      345.169       22.508      861.980
10/22/2013  17:04:00       84.001       91.943       10.552       75.973       57.416       46.965     5771.938     3296.565     2205.756        1.345        0.564      124.538       35.756        0.082      345.149       22.473      861.989
10/22/2013  17:05:00      109.847       90.066        7.451       60.674       47.822       42.440     3681.362     2286.911     1801.182        1.400        0.388      142.050       24.200        0.029      345.161       22.494      861.988
10/22/2013  17:06:00      116.415       99.851        8.301       55.665       49.274       39.813     3098.581     2427.911     1585.108        1.535        0.356      153.371       28.450        0.034      345.172       22.512      861.987
10/22/2013  17:07:00       84.432       50.492       19.887       60.682       36.602       32.591     3682.361     1339.730     1062.204        0.808        0.304       98.378       20.866        0.045      345.120       22.423      861.985
10/22/2013  17:08:00       81.293       79.323       -4.718       50.394       50.038       30.926     2539.585     2503.758      956.434        0.946        0.300      113.581       27.697        0.059      345.163       22.496      861.983
10/22/2013  17:09:00       70.863       80.111       -1.798       69.307       71.830       46.049     4803.525     5159.610     2120.507        1.176        0.604      106.955       34.804        0.106      345.157       22.487      861.978
10/22/2013  17:10:00       52.322       58.256        7.400       74.419       59.332       43.186     5538.139     3520.285     1865.048        0.855        0.546       78.302       25.264        0.104      345.117       22.419      861.963
10/22/2013  17:11:00      135.382       62.170       24.760       89.668       63.422       35.461     8040.426     4022.404     1257.492        1.806        0.666      148.974       36.332        0.059      345.146       22.466      861.949
10/22/2013  17:12:00       87.722       72.962        9.550       58.297       48.868       40.325     3398.549     2388.091     1626.129        1.026        0.371      114.099       25.674        0.051      345.104       22.396      861.932
10/22/2013  17:13:00       87.215       63.839       34.128       56.503       57.356       46.710     3192.600     3289.751     2181.780        1.075        0.433      108.082       26.777        0.061      345.091       22.374      861.920
10/22/2013  17:14:00      113.737       72.582       43.067       68.754       67.741       54.564     4727.174     4588.829     2977.217        1.617        0.615      134.923       33.252        0.061      345.165       22.499      861.912
10/22/2013  17:15:00      165.845       86.027       31.280       79.042       55.184       44.542     6247.600     3045.313     1984.010        2.358        0.564      186.830       24.062        0.017      345.088       22.366      861.899
10/22/2013  17:16:00      184.436       97.497       55.780      107.345       91.750       57.446    11523.051     8418.125     3300.085        3.493        1.162      208.620       40.915        0.038      345.048       22.298      861.893
10/22/2013  17:17:00      129.008       53.447       19.518       57.287       64.197       45.174     3281.822     4121.254     2040.732        1.466        0.472      139.641       15.842        0.013      345.005       22.227      861.896
10/22/2013  17:18:00      119.043       30.648       58.991       94.695       67.695       60.045     8967.111     4582.608     3605.373        1.787        0.858      122.925       45.908        0.139      345.007       22.230      861.894
10/22/2013  17:19:00       85.382       13.890       54.319       68.818       63.137       46.659     4735.909     3986.299     2177.045        1.066        0.545       86.505       47.539        0.302      345.035       22.279      861.891
10/22/2013  17:20:00      111.123       15.227       43.243      106.092       77.732       51.552    11255.414     6042.262     2657.560        1.720        0.998      112.161       53.269        0.226      344.999       22.215      861.883
10/22/2013  17:21:00       90.805       46.300       32.104       66.978       45.591       41.347     4486.024     2078.582     1709.578        0.985        0.414      101.927       35.813        0.123      344.960       22.151      861.896
10/22/2013  17:22:00      145.664       87.436       63.164       57.322       63.819       56.297     3285.858     4072.867     3169.338        2.169        0.526      169.891       29.774        0.031      344.920       22.079      861.898
10/22/2013  17:23:00       76.976       67.014       68.613       83.545       61.210       52.912     6979.712     3746.623     2799.720        1.432        0.676      102.059       50.492        0.245      344.940       22.115      861.892
10/22/2013  17:24:00      139.629       70.134       20.949       64.491       51.504       40.747     4159.078     2652.615     1660.311        1.666        0.424      156.253       28.509        0.033      344.920       22.080      861.901
10/22/2013  17:25:00      198.663      137.125       25.113       71.592       66.441       46.599     5125.361     4414.380     2171.503        3.530        0.586      241.393       16.510        0.005      344.942       22.114      861.895
10/22/2013  17:26:00       64.804       54.687       52.556       73.096       57.941       47.898     5343.010     3357.180     2294.243        1.047        0.550       84.795       50.158        0.350      344.897       22.041      861.897
10/22/2013  17:27:00       92.400       61.785       58.957       78.760       59.239       52.182     6203.118     3509.280     2722.917        1.413        0.622      111.154       22.336        0.040      344.901       22.047      861.903
10/22/2013  17:28:00      111.004      122.099       70.358       92.545       47.472       55.710     8564.632     2253.615     3103.560        2.305        0.696      165.015       52.726        0.102      344.874       22.001      861.907
10/22/2013  17:29:00      141.704       69.865       19.453       71.419       63.311       57.546     5100.616     4008.258     3311.552        1.888        0.621      157.991       36.377        0.053      344.837       21.939      861.910
10/22/2013  17:30:00      192.901      123.817       34.175       79.298       73.339       56.752     6288.212     5378.648     3220.824        3.430        0.744      229.220       16.702        0.005      344.820       21.908      861.910
10/22/2013  17:31:00      101.273       54.479       40.292       56.442       52.432       43.889     3185.676     2749.151     1926.283        1.135        0.393      114.997       34.555        0.090      344.776       21.836      861.917
10/22/2013  17:32:00       93.055       68.616       59.017       87.239       54.843       58.030     7610.642     3007.799     3367.448        1.542        0.699      115.618       52.240        0.204      344.790       21.860      861.914
10/22/2013  17:33:00       97.915      106.747       96.541       83.090       87.065       73.459     6903.892     7580.335     5396.297        2.509        0.994      144.853       57.989        0.160      344.847       21.954      861.907
10/22/2013  17:34:00      141.208       78.420       33.006       68.937       54.737       47.888     4752.344     2996.098     2293.300        1.861        0.502      161.522       38.211        0.056      344.829       21.923      861.918
10/22/2013  17:35:00       99.123       52.765       43.372       65.526       50.482       43.683     4293.678     2548.396     1908.200        1.162        0.438      112.292       35.988        0.103      344.782       21.846      861.921
10/22/2013  17:36:00      139.098       54.401       63.829      111.663       87.578       64.651    12468.606     7669.827     4179.713        2.535        1.216      149.357       69.836        0.219      344.823       21.912      861.923
10/22/2013  17:37:00       96.620       84.419       51.697       65.655       59.879       46.886     4310.565     3585.502     2198.322        1.461        0.505      128.304       16.792        0.017      344.760       21.806      861.923
10/22/2013  17:38:00      114.523       88.205       72.301       89.354       62.057       59.026     7984.212     3851.089     3484.109        2.072        0.766      144.553       51.828        0.129      344.742       21.774      861.936
10/22/2013  17:39:00      180.519       81.600       38.066       68.316       71.242       47.991     4667.046     5075.488     2303.167        2.637        0.602      198.105       26.328        0.018      344.717       21.731      861.940
10/22/2013  17:40:00      135.775       45.855       23.836       59.909       42.714       40.425     3589.130     1824.503     1634.203        1.408        0.352      143.309       32.418        0.051      344.680       21.670      861.947
10/22/2013  17:41:00      118.235       58.699       26.665       47.229       46.368       45.594     2230.598     2149.961     2078.793        1.230        0.323      132.004       29.047        0.048      344.663       21.640      861.947
10/22/2013  17:42:00       84.190       63.534       28.104       60.782       42.979       43.303     3694.448     1847.192     1875.139        0.966        0.371      105.473       36.841        0.122      344.654       21.625      861.949
10/22/2013  17:43:00       64.938       64.878       46.168       66.628       37.247       38.223     4439.345     1387.345     1461.018        0.892        0.364       91.794       39.904        0.189      344.664       21.644      861.946
10/22/2013  17:44:00       70.571       27.683       63.169       65.132       44.838       36.868     4242.192     2010.434     1359.242        0.867        0.381       75.807       32.977        0.189      344.642       21.605      861.951
10/22/2013  17:45:00       71.676       13.645       19.540       61.545       37.283       38.356     3787.754     1389.985     1471.164        0.618        0.332       72.963       29.143        0.160      344.619       21.568      861.950
10/22/2013  17:46:00       52.176       31.497       30.942       55.599       29.610       26.799     3091.301      876.755      718.189        0.468        0.234       60.946       21.539        0.125      344.591       21.518      861.955
10/22/2013  17:47:00       93.863       32.743        6.104       55.469       37.926       23.201     3076.811     1438.369      538.285        0.749        0.253       99.410       15.667        0.025      344.528       21.410      861.960
10/22/2013  17:48:00      104.755       73.510       10.701       46.611       42.758       37.489     2172.607     1828.242     1405.422        1.095        0.270      127.974       31.032        0.059      344.536       21.424      861.960
10/22/2013  17:49:00      126.823       87.300       19.072       64.630       49.586       38.019     4176.998     2458.742     1445.473        1.607        0.404      153.965       25.311        0.027      344.481       21.329      861.969
10/22/2013  17:50:00      103.770       48.999       17.156       41.943       27.344       31.812     1759.251      747.694     1011.995        0.849        0.176      114.757        9.699        0.007      344.386       21.167      861.972
10/22/2013  17:51:00      117.165       47.139        5.739       52.690       41.834       28.456     2776.226     1750.089      809.755        1.066        0.267      126.293       20.970        0.028      344.411       21.211      861.967
10/22/2013  17:52:00       62.616       43.136       14.319       38.205       24.599       25.735     1459.628      605.111      662.293        0.436        0.136       76.036       12.191        0.026      344.332       21.074      861.973
10/22/2013  17:53:00       88.265       56.959       18.461       30.149       19.555       22.241      908.973      382.384      494.676        0.658        0.089      105.048       12.910        0.015      344.332       21.075      861.978
10/22/2013  17:54:00       77.818       54.295       17.562       37.591       31.915       24.652     1413.108     1018.575      607.722        0.618        0.152       94.887       14.859        0.025      344.262       20.956      861.973
10/22/2013  17:55:00       94.965       64.519       28.758       37.467       29.174       31.007     1403.767      851.125      961.458        0.861        0.161      114.809       16.924        0.022      344.285       20.995      861.969
10/22/2013  17:56:00      110.627       72.422       27.517       46.125       26.318       32.508     2127.527      692.619     1056.786        1.106        0.194      132.224       18.885        0.020      344.327       21.067      861.970
10/22/2013  17:57:00      100.026       73.514       23.540       26.784       29.772       22.284      717.401      886.394      496.593        0.903        0.105      124.135       14.925        0.014      344.226       20.894      861.972
10/22/2013  17:58:00       76.398       60.987       16.766       47.198       31.970       26.275     2227.662     1022.071      690.370        0.689        0.197       97.755       24.875        0.065      344.194       20.839      861.964
10/22/2013  17:59:00      112.759       78.056       22.168       52.551       44.220       31.887     2761.624     1955.417     1016.811        1.252        0.287      137.140       17.041        0.015      344.252       20.938      861.961
10/22/2013  18:00:00      106.792       71.895       19.217       37.615       26.835       26.740     1414.880      720.112      715.004        0.990        0.142      128.738        7.085        0.003      344.155       20.772      861.967
10/22/2013  18:01:00      111.183       74.910       26.337       35.943       26.453       30.996     1291.922      699.746      960.754        1.081        0.148      134.064       18.950        0.020      344.163       20.789      861.966
10/22/2013  18:02:00       93.168       56.907       17.907       25.726       26.771       21.909      661.843      716.688      479.989        0.705        0.093      109.173       12.373        0.013      344.115       20.706      861.960
10/22/2013  18:03:00       78.899       40.509       18.433       34.050       31.561       24.642     1159.414      996.094      607.243        0.548        0.138       88.690       19.162        0.047      344.031       20.561      861.957
10/22/2013  18:04:00       47.663       29.091       13.306       23.412       21.608       15.070      548.126      466.908      227.116        0.227        0.062       55.839       11.460        0.042      343.942       20.411      861.970
10/22/2013  18:05:00       56.016       33.723       11.855       36.135       22.849       18.799     1305.741      522.082      353.408        0.330        0.109       65.384        9.929        0.023      343.913       20.359      861.969
10/22/2013  18:06:00       92.824       58.853       10.222       34.941       23.918       19.964     1220.886      572.091      398.575        0.719        0.110      109.909       16.604        0.023      344.021       20.544      861.966
10/22/2013  18:07:00       60.922       22.351       15.714       21.984       17.092       13.364      483.292      292.132      178.592        0.271        0.048       64.893        6.738        0.011      343.886       20.313      861.967
10/22/2013  18:08:00       48.637       17.309        8.522       24.957       18.768       11.982      622.840      352.248      143.575        0.193        0.056       51.625        9.090        0.031      343.869       20.285      861.967
10/22/2013  18:09:00       49.693       45.139       10.464       23.993       24.863       14.488      575.646      618.152      209.902        0.301        0.070       67.134        8.507        0.016      343.933       20.394      861.970
10/22/2013  18:10:00       56.839       32.193        7.282       34.195       24.506       17.668     1169.318      600.553      312.163        0.320        0.104       65.323        7.070        0.012      343.928       20.386      861.981
10/22/2013  18:11:00       41.378       28.849       -0.995       30.779       29.972       16.406      947.375      898.326      269.144        0.233        0.106       50.443        6.455        0.016      343.936       20.398      861.992
10/22/2013  18:12:00       62.583       36.633        2.597       17.874       16.994       11.660      319.494      288.783      135.956        0.300        0.037       72.516        3.179        0.002      343.930       20.390      862.002
10/22/2013  18:13:00       84.184       42.018        8.561       22.901       23.580       18.890      524.466      556.011      356.837        0.518        0.072       94.087       14.460        0.024      343.887       20.316      862.029
10/22/2013  18:14:00       50.943       31.533       11.284       28.598       17.971       13.332      817.852      322.963      177.752        0.252        0.066       59.913       11.253        0.035      343.814       20.191      862.034
10/22/2013  18:15:00       31.586       43.754       -8.243       24.822       31.325       17.562      616.114      981.229      308.430        0.244        0.095       53.964       14.536        0.073      343.873       20.291      862.039
10/22/2013  18:16:00       21.707       56.178      -16.628       23.550       32.160       15.630      554.601     1034.285      244.295        0.287        0.092       60.226       10.384        0.030      343.877       20.298      862.038
10/22/2013  18:17:00       31.739       23.276       -4.115       27.923       24.255       25.561      779.669      588.303      653.350        0.179        0.101       39.359       17.303        0.193      343.870       20.285      862.040
10/22/2013  18:18:00       10.212       36.699       -7.608       27.354       30.439       21.621      748.258      926.554      467.484        0.183        0.107       38.094       22.055        0.335      343.877       20.298      862.052
10/22/2013  18:19:00       29.574       31.301      -12.734       23.598       32.298       19.103      556.889     1043.179      364.941        0.199        0.098       43.062       16.138        0.140      343.822       20.205      862.059
10/22/2013  18:20:00       11.644       23.086       -8.528       18.830       31.400       14.868      354.565      985.963      221.059        0.115        0.078       25.857       12.229        0.224      343.799       20.165      862.061
10/22/2013  18:21:00        5.110       65.135      -15.208       22.332       29.889       12.675      498.715      893.372      160.648        0.303        0.078       65.335       15.771        0.058      343.883       20.306      862.063
10/22/2013  18:22:00       18.930       61.689      -15.742       20.200       17.972       15.783      408.027      323.001      249.102        0.270        0.049       64.528       11.949        0.034      343.819       20.199      862.068
10/22/2013  18:23:00        1.812       40.869      -12.024       20.356       15.447        9.939      414.365      238.618       98.779        0.128        0.038       40.909        8.074        0.039      343.804       20.173      862.085
10/22/2013  18:24:00       17.507       44.213      -12.062       22.321       25.159       12.118      498.229      632.982      146.838        0.184        0.064       47.553       14.511        0.093      343.778       20.130      862.085
10/22/2013  18:25:00       11.499       42.290      -14.653       17.770       22.811       13.202      315.761      520.340      174.281        0.157        0.051       43.826       13.696        0.098      343.775       20.124      862.096
10/22/2013  18:26:00      -16.159       35.736      -14.425       26.440       32.799       17.438      699.065     1075.742      304.085        0.191        0.104       39.220       16.879        0.185      343.856       20.262      862.095
10/22/2013  18:27:00       -4.486       49.115      -10.491       20.150       15.150       10.911      406.009      229.526      119.045        0.165        0.038       49.320        6.643        0.018      343.862       20.272      862.106
10/22/2013  18:28:00        9.550       41.591       -7.596       26.746       15.540       15.356      715.361      241.490      235.792        0.154        0.060       42.674        9.694        0.052      343.813       20.190      862.115
10/22/2013  18:29:00        9.513       36.275      -14.588       17.754       14.932       11.414      315.198      222.959      130.284        0.114        0.033       37.501        6.660        0.032      343.817       20.195      862.130
10/22/2013  18:30:00        4.303       39.754       -6.923       20.946       20.805       10.418      438.720      432.834      108.534        0.131        0.049       39.986       12.421        0.096      343.774       20.124      862.132
10/22/2013  18:31:00      -12.834       30.967        1.817       14.090       14.579       11.221      198.521      212.538      125.903        0.083        0.027       33.522       10.344        0.095      343.732       20.051      862.142
10/22/2013  18:32:00      -30.974        7.954       -8.354       13.782       14.547        7.211      189.954      211.607       51.994        0.077        0.023       31.979        6.241        0.038      343.743       20.069      862.138
10/22/2013  18:33:00       -5.309       -2.098       -6.070        9.163       14.414        5.936       83.955      207.753       35.231        0.020        0.016        5.709        5.023        0.774      343.479       19.620      862.153
10/22/2013  18:34:00        2.313       37.079       -3.284       18.870       17.831       10.432      356.058      317.935      108.830        0.109        0.039       37.151        9.412        0.064      343.675       19.953      862.159
10/22/2013  18:35:00      -18.217       47.080      -10.437       21.839       13.739       11.296      476.959      188.770      127.610        0.173        0.040       50.481        9.107        0.033      343.758       20.094      862.171
10/22/2013  18:36:00       -6.069       41.064      -15.170       15.658       17.755        8.566      245.183      315.223       73.375        0.129        0.032       41.510        7.587        0.033      343.775       20.126      862.171
10/22/2013  18:37:00       -4.526       11.550       -4.194       10.562        8.386        8.250      111.555       70.325       68.063        0.021        0.012       12.405        5.416        0.191      343.745       20.070      862.192
10/22/2013  18:38:00      -17.244        2.657       -1.196       10.991       11.444        7.018      120.810      130.976       49.251        0.030        0.015       17.447        6.018        0.119      343.725       20.039      862.196
10/22/2013  18:39:00      -14.723       27.123       -5.427       23.095       31.464        9.096      533.398      990.000       82.741        0.129        0.080       30.861        9.483        0.094      343.599       19.825      862.218
10/22/2013  18:40:00        2.920       45.692      -13.799       20.564        9.712        5.994      422.864       94.314       35.928        0.142        0.028       45.785        7.116        0.024      343.728       20.044      862.221
10/22/2013  18:41:00      -11.657        9.542      -10.697       21.316       25.241       11.882      454.363      637.117      141.193        0.079        0.062       15.064       14.197        0.888      343.540       19.721      862.226
10/22/2013  18:42:00      -63.239      -20.162      -13.750       11.840        9.029        7.835      140.196       81.519       61.381        0.244        0.014       66.375        5.788        0.008      343.038       18.869      862.226
10/22/2013  18:43:00      -72.480      -18.510      -13.003        9.911       10.028        6.139       98.236      100.556       37.690        0.300        0.012       74.806        2.853        0.001      343.084       18.946      862.244
10/22/2013  18:44:00      -88.869      -23.801      -21.738       11.000       12.505        8.181      120.991      156.371       66.926        0.464        0.017       92.001        6.588        0.005      342.947       18.713      862.244
10/22/2013  18:45:00      -94.899      -35.440      -19.247       11.889        9.417        8.786      141.359       88.680       77.185        0.547        0.015      101.301        4.971        0.002      342.969       18.752      862.251
10/22/2013  18:46:00      -99.912      -44.086      -13.221       14.444       16.676       11.384      208.641      278.081      129.585        0.636        0.031      109.206        6.692        0.004      342.721       18.329      862.269
10/22/2013  18:47:00      -89.624      -48.432      -24.082        9.753       13.785        8.905       95.128      190.027       79.305        0.566        0.018      101.872        6.790        0.004      342.701       18.294      862.290
10/22/2013  18:48:00      -68.491      -45.014       -9.646       26.495       18.609       21.227      701.969      346.294      450.574        0.415        0.075       81.959       11.309        0.019      342.613       18.146      862.303
10/22/2013  18:49:00      -56.371      -24.858       -7.590       56.708       39.798       21.206     3215.838     1583.882      449.701        0.455        0.262       61.609       18.243        0.088      342.606       18.134      862.337
10/22/2013  18:50:00      -45.867       -8.790        0.834       48.881       45.192       25.847     2389.304     2042.279      668.051        0.364        0.255       46.702       21.278        0.208      342.661       18.227      862.342
10/22/2013  18:51:00      -32.403       -8.484        4.721       41.810       39.797       24.880     1748.061     1583.791      619.032        0.255        0.198       33.495       21.327        0.405      342.612       18.143      862.360
10/22/2013  18:52:00      -76.988        9.110       -8.724       53.907       50.157       28.428     2905.981     2515.724      808.133        0.616        0.311       77.525       15.236        0.039      342.722       18.331      862.374
10/22/2013  18:53:00     -108.491       38.799        0.437       50.024       42.269       33.964     2502.437     1786.660     1153.550        0.936        0.272      115.220       30.574        0.070      342.781       18.432      862.401
10/22/2013  18:54:00     -123.589        7.142      -16.961       50.369       37.396       24.879     2536.989     1398.450      618.986        1.008        0.228      123.795       11.243        0.008      342.722       18.330      862.409
10/22/2013  18:55:00      -45.548       -8.304       -3.450       38.054       41.761       27.980     1448.085     1743.943      782.853        0.306        0.199       46.298       21.343        0.213      342.553       18.043      862.423
10/22/2013  18:56:00      -56.020        3.219      -10.293       54.130       28.218       28.163     2930.099      796.266      793.173        0.389        0.226       56.112       27.162        0.234      342.505       17.962      862.434
10/22/2013  18:57:00     -106.138      -27.665      -12.645       34.801       30.984       19.877     1211.130      959.991      395.103        0.738        0.128      109.684       13.480        0.015      342.524       17.992      862.449
10/22/2013  18:58:00     -119.750      -46.290      -10.151       26.013       25.039       17.542      676.673      626.928      307.707        0.910        0.081      128.386        9.299        0.005      342.170       17.393      862.463
10/22/2013  18:59:00     -105.611      -48.735      -14.477       35.698       31.784       16.702     1274.377     1010.218      278.945        0.815        0.128      116.313        5.481        0.002      342.172       17.395      862.473
10/22/2013  19:00:00      -50.619      -21.263      -17.546       28.980       31.097       23.595      839.857      967.012      556.743        0.284        0.118       54.903       16.166        0.087      342.485       17.926      862.483
10/22/2013  19:01:00      -39.148      -13.748      -14.871       23.806       26.857       19.467      566.710      721.295      378.963        0.180        0.083       41.492        8.789        0.045      342.475       17.910      862.483
10/22/2013  19:02:00      -46.480      -26.329      -13.285       27.689       24.585       16.330      766.708      604.440      266.656        0.233        0.082       53.419       14.511        0.074      342.396       17.777      862.481
10/22/2013  19:03:00      -48.361       -8.069      -11.397       27.661       17.635       12.728      765.147      310.976      161.990        0.189        0.062       49.029        8.433        0.030      342.320       17.648      862.477
10/22/2013  19:04:00      -60.271       28.373      -11.438       31.062       27.332       19.436      964.846      747.044      377.777        0.333        0.104       66.616       11.385        0.029      342.733       18.349      862.476
10/22/2013  19:05:00      -57.575       16.806      -12.971       20.104       33.111       14.616      404.153     1096.318      213.614        0.274        0.086       59.978       10.293        0.029      342.743       18.367      862.489
10/22/2013  19:06:00      -47.994      -19.082      -11.534       30.792       17.822       14.978      948.146      317.625      224.332        0.215        0.075       51.649       12.487        0.058      342.284       17.586      862.496
10/22/2013  19:07:00      -59.226       -1.890      -10.879       25.059       22.676       18.170      627.933      514.190      330.137        0.255        0.074       59.257        4.216        0.005      342.447       17.862      862.500
10/22/2013  19:08:00      -38.617       15.798       -6.310       21.853       27.742       15.375      477.547      769.644      236.405        0.163        0.074       41.723       13.094        0.098      342.664       18.231      862.521
10/22/2013  19:09:00      -38.132       52.352      -11.922       24.998       21.973       12.685      624.876      482.808      160.897        0.280        0.063       64.767       11.457        0.031      342.978       18.765      862.532
10/22/2013  19:10:00      -44.816       49.873      -12.354       22.260       38.427       14.894      495.488     1476.631      221.825        0.342        0.110       67.051       17.281        0.066      342.929       18.682      862.537
10/22/2013  19:11:00      -52.501      -14.629       -8.281       21.016       26.422       15.040      441.658      698.124      226.206        0.220        0.068       54.501        8.862        0.026      342.241       17.512      862.538
10/22/2013  19:12:00      -66.288      -35.734      -19.090       16.714       11.968       10.427      279.373      143.228      108.729        0.328        0.027       75.306        8.334        0.012      341.894       16.924      862.546
10/22/2013  19:13:00      -56.430      -22.574      -12.282       24.685       26.413       16.611      609.340      697.634      275.941        0.271        0.079       60.778        9.300        0.023      342.100       17.274      862.558
10/22/2013  19:14:00      -51.858      -20.397       -8.767       31.655       25.098       18.301     1002.019      629.921      334.932        0.257        0.098       55.725       14.868        0.071      342.060       17.205      862.560
10/22/2013  19:15:00      -60.419      -13.822      -17.303       20.170       24.337       11.693      406.815      592.307      136.721        0.264        0.057       61.980       10.690        0.030      342.169       17.392      862.573
10/22/2013  19:16:00      -71.001      -20.219      -13.762       27.697       22.647       14.378      767.149      512.898      206.734        0.356        0.074       73.824        6.940        0.009      341.975       17.062      862.575
10/22/2013  19:17:00      -80.777       15.057      -19.890       28.017       38.091       23.836      784.971     1450.940      568.161        0.498        0.140       82.168       17.178        0.044      342.208       17.457      862.580
10/22/2013  19:18:00      -62.562       79.609      -20.700       25.090       52.517       20.167      629.500     2758.018      406.692        0.724        0.190      101.250       23.346        0.053      342.745       18.370      862.589
10/22/2013  19:19:00      -82.182       77.889      -22.723       30.400       22.310       17.637      924.169      497.748      311.046        0.753        0.087      113.228       14.819        0.017      342.778       18.426      862.590
10/22/2013  19:20:00      -57.273       26.018       -9.095       30.966       32.743       16.067      958.911     1072.128      258.139        0.316        0.114       62.906        7.322        0.014      342.549       18.038      862.594
10/22/2013  19:21:00      -57.301       28.729      -16.960       24.905       34.541       18.535      620.269     1193.062      343.534        0.328        0.108       64.100       15.254        0.057      342.570       18.072      862.602
10/22/2013  19:22:00      -63.778       30.866      -19.476       22.036       21.851       14.726      485.585      477.462      216.869        0.329        0.059       70.854        9.523        0.018      342.596       18.116      862.611
10/22/2013  19:23:00      -65.913       33.141      -15.550       26.767       27.309       17.728      716.493      745.806      314.276        0.373        0.089       73.776       15.675        0.045      342.592       18.109      862.602
10/22/2013  19:24:00      -69.854       52.509      -13.432       24.453       25.836       18.326      597.968      667.495      335.842        0.471        0.080       87.389        8.525        0.010      342.619       18.156      862.609
10/22/2013  19:25:00     -102.397       65.293      -23.503       28.402       24.620       17.459      806.667      606.166      304.830        0.851        0.086      121.442        8.711        0.005      342.825       18.506      862.611
10/22/2013  19:26:00      -68.090       82.681      -13.612       28.086       29.780       19.435      788.812      886.868      377.725        0.686        0.103      107.109       15.892        0.022      342.898       18.630      862.627
10/22/2013  19:27:00      -73.717       62.814      -19.312       22.853       17.891       14.301      522.246      320.096      204.529        0.540        0.052       96.850       10.358        0.011      342.848       18.544      862.628
10/22/2013  19:28:00      -67.074       19.046      -15.769       21.162       40.206       14.384      447.819     1616.534      206.890        0.369        0.114       69.726       17.979        0.066      342.498       17.948      862.635
10/22/2013  19:29:00      -35.697       17.753       -1.558       22.502       17.114       14.250      506.336      292.896      203.060        0.130        0.050       39.868       11.136        0.078      342.562       18.059      862.634
10/22/2013  19:30:00      -56.100       62.699      -12.752       26.832       39.064       20.649      719.930     1525.992      426.368        0.496        0.134       84.133       21.168        0.063      342.777       18.424      862.650
10/22/2013  19:31:00      -58.436       41.735       -9.965       28.081       31.599       19.452      788.565      998.501      378.364        0.371        0.108       71.810        9.491        0.017      342.607       18.135      862.647
10/22/2013  19:32:00      -63.953       48.454      -15.022       22.518       25.897       21.637      507.056      670.669      468.153        0.415        0.082       80.236       16.222        0.041      342.610       18.140      862.656
10/22/2013  19:33:00      -60.282       45.245      -16.373       23.283       34.507       14.973      542.113     1190.741      224.201        0.395        0.098       75.373       11.912        0.025      342.684       18.265      862.645
10/22/2013  19:34:00      -43.155       21.436       -9.954       21.563       24.544       19.837      464.944      602.430      393.522        0.194        0.073       48.185       17.119        0.126      342.448       17.865      862.657
10/22/2013  19:35:00      -45.334       30.469      -13.712       27.662       28.231       19.672      765.190      796.972      386.983        0.256        0.097       54.621       17.432        0.102      342.414       17.807      862.650
10/22/2013  19:36:00      -74.954       28.210      -16.227       23.164       34.223       16.185      536.591     1171.224      261.956        0.432        0.098       80.087       15.206        0.036      342.282       17.583      862.654
10/22/2013  19:37:00      -71.820       61.995      -16.130       23.996       37.673       20.399      575.823     1419.292      416.108        0.584        0.121       94.876       21.253        0.050      342.553       18.043      862.651
10/22/2013  19:38:00      -72.461       69.690      -18.097       19.668       29.905       16.822      386.814      894.293      282.987        0.600        0.078      100.535        8.633        0.007      342.452       17.871      862.659
10/22/2013  19:39:00      -70.543       63.005      -20.094       27.989       29.639       18.391      783.386      878.472      338.224        0.567        0.100       94.583        8.961        0.009      342.547       18.032      862.658
10/22/2013  19:40:00      -72.636       39.466       -8.643       30.561       29.767       23.743      933.983      886.064      563.707        0.465        0.119       82.665       20.051        0.059      342.465       17.894      862.660
10/22/2013  19:41:00      -80.702       65.929      -15.701       31.993       27.006       17.904     1023.576      729.316      320.549        0.659        0.104      104.209       13.971        0.018      342.501       17.954      862.672
10/22/2013  19:42:00      -72.270       52.079      -14.099       23.902       31.957       23.773      571.296     1021.231      565.162        0.515        0.108       89.080       21.353        0.057      342.463       17.890      862.668
10/22/2013  19:43:00      -51.355       -3.098       -8.710       32.047       28.981       13.865     1027.024      839.917      192.252        0.239        0.103       51.449       12.046        0.055      341.851       16.852      862.672
10/22/2013  19:44:00      -73.137       19.906      -18.578       24.454       44.423       19.206      598.012     1973.380      368.862        0.451        0.147       75.797       18.294        0.058      342.041       17.175      862.666
10/22/2013  19:45:00      -58.004       14.451      -12.275       24.297       38.428       25.297      590.357     1476.702      639.915        0.322        0.135       59.777       16.935        0.080      341.953       17.024      862.668
10/22/2013  19:46:00      -62.520        3.034       -5.631       26.393       24.279       16.667      696.607      589.471      277.779        0.276        0.078       62.594       10.828        0.030      342.021       17.140      862.663
10/22/2013  19:47:00      -85.058       50.878      -14.499       30.749       38.850       17.630      945.516     1509.344      310.830        0.640        0.138       99.114       17.320        0.031      342.387       17.761      862.667
10/22/2013  19:48:00      -51.068       -1.036      -11.442       27.400       22.353       13.182      750.749      499.675      173.760        0.208        0.071       51.079       10.460        0.042      342.094       17.262      862.668
10/22/2013  19:49:00      -56.048       35.496      -10.014       25.583       43.863       23.546      654.501     1923.982      554.422        0.382        0.157       66.343       21.747        0.107      342.234       17.502      862.662
10/22/2013  19:50:00      -77.019       84.486      -25.438       36.895       49.235       23.862     1361.256     2424.082      569.415        0.904        0.218      114.324       20.071        0.031      342.464       17.892      862.665
10/22/2013  19:51:00      -56.606       18.408      -13.396       40.736       46.457       18.052     1659.430     2158.288      325.888        0.393        0.207       59.524       24.590        0.171      341.989       17.086      862.669
10/22/2013  19:52:00      -42.461       29.693       -6.907       31.279       39.382       15.291      978.394     1550.928      233.813        0.275        0.138       51.813       11.990        0.054      342.056       17.197      862.671
10/22/2013  19:53:00      -59.658       29.204      -14.069       24.423       33.470       16.305      596.501     1120.270      265.860        0.330        0.099       66.423       16.616        0.063      342.179       17.408      862.686
10/22/2013  19:54:00      -53.134      -13.269       -9.351       26.747       23.092       17.832      715.396      533.256      317.970        0.233        0.078       54.766       12.288        0.050      341.848       16.846      862.684
10/22/2013  19:55:00      -67.146      -16.106      -13.805       36.475       33.069       15.279     1330.437     1093.557      233.438        0.381        0.133       69.051       13.307        0.037      341.657       16.523      862.698
10/22/2013  19:56:00      -85.911       -0.513      -12.210       28.480       38.389       19.958      811.117     1473.683      398.307        0.511        0.134       85.912       14.038        0.027      341.808       16.779      862.708
10/22/2013  19:57:00     -105.893      -12.838      -15.855       40.054       28.708       20.183     1604.341      824.165      407.337        0.723        0.142      106.669       20.170        0.036      341.497       16.250      862.696
10/22/2013  19:58:00      -95.638      -26.853       -3.619       30.064       24.957       18.500      903.833      622.860      342.243        0.587        0.093       99.337        9.309        0.009      341.333       15.973      862.704
10/22/2013  19:59:00     -100.282       19.177      -21.674       37.557       52.552       21.236     1410.522     2761.718      450.960        0.776        0.231      102.099       23.778        0.054      341.844       16.839      862.699
10/22/2013  20:00:00      -78.589        5.998      -14.935       27.638       32.580       21.360      763.863     1061.477      456.231        0.436        0.114       78.818       10.914        0.019      341.726       16.639      862.704
10/22/2013  20:01:00      -97.620       10.731      -20.799       14.922       19.193       11.038      222.667      368.373      121.835        0.540        0.036       98.209        8.077        0.007      341.226       15.793      862.701
10/22/2013  20:02:00      -79.718       24.870      -13.423       37.880       27.172       24.377     1434.910      738.314      594.254        0.496        0.138       83.507       15.849        0.036      341.508       16.271      862.698
10/22/2013  20:03:00      -81.887       38.140      -17.270       24.739       24.734       18.214      612.028      611.781      331.733        0.501        0.078       90.333       16.080        0.032      341.629       16.475      862.703
10/22/2013  20:04:00      -78.578       28.184      -13.444       26.613       27.831       16.762      708.247      774.538      280.977        0.446        0.088       83.479       12.174        0.021      341.653       16.515      862.700
10/22/2013  20:05:00      -78.787       20.358      -14.025       19.461       32.431       13.743      378.711     1051.767      188.884        0.422        0.081       81.375        9.531        0.014      341.547       16.335      862.706
10/22/2013  20:06:00      -68.673       42.542      -11.211       23.538       35.352       13.477      554.058     1249.751      181.620        0.432        0.099       80.783        7.211        0.008      341.671       16.547      862.708
10/22/2013  20:07:00      -67.814       55.863      -10.222       23.403       40.177       20.542      547.695     1614.210      421.989        0.520        0.129       87.860       12.267        0.019      341.658       16.523      862.716
10/22/2013  20:08:00      -80.040       88.060      -17.635       28.613       44.027       21.399      818.690     1938.415      457.919        0.884        0.161      119.000       21.943        0.034      341.977       17.065      862.724
10/22/2013  20:09:00      -61.548       69.253      -15.763       40.406       49.295       25.414     1632.653     2429.978      645.852        0.677        0.235       92.651       25.296        0.075      341.914       16.959      862.726
10/22/2013  20:10:00      -58.436       90.935      -13.099       29.422       40.933       20.171      865.670     1675.495      406.869        0.740        0.147      108.092       10.761        0.010      342.021       17.139      862.739
10/22/2013  20:11:00      -76.867       75.219      -17.138       20.451       49.519       15.200      418.240     2452.142      231.026        0.748        0.155      107.547       15.894        0.022      342.002       17.107      862.735
10/22/2013  20:12:00      -78.037       32.999      -10.176       26.420       46.497       19.585      698.039     2161.966      383.572        0.526        0.162       84.727       21.700        0.066      341.655       16.519      862.745
10/22/2013  20:13:00      -66.361       66.951      -17.379       27.761       40.983       14.777      770.661     1679.612      218.347        0.593        0.133       94.267       10.546        0.013      341.994       17.093      862.750
10/22/2013  20:14:00      -84.556       28.999      -15.840       30.182       29.113       24.344      910.965      847.569      592.621        0.530        0.118       89.391       14.598        0.027      341.751       16.682      862.766
10/22/2013  20:15:00      -63.229       -3.954       -9.244       22.616       29.473       16.004      511.481      868.678      256.134        0.287        0.082       63.353       11.085        0.031      341.473       16.211      862.767
10/22/2013  20:16:00      -87.927      -37.946      -10.784       17.880       21.724       13.345      319.707      471.953      178.083        0.513        0.048       95.766       11.042        0.013      341.037       15.472      862.770
10/22/2013  20:17:00     -100.793      -44.443      -23.350       20.705       27.707       12.239      428.717      767.679      149.796        0.701        0.067      110.156        6.430        0.003      340.933       15.296      862.779
10/22/2013  20:18:00     -141.875      -71.416      -20.344       27.739       29.763       17.288      769.440      885.842      298.876        1.380        0.098      158.836        7.952        0.003      340.805       15.079      862.789
10/22/2013  20:19:00     -170.153      -62.997      -14.981       27.288       23.159       19.631      744.640      536.361      385.390        1.741        0.083      181.440       10.602        0.003      340.776       15.031      862.802
10/22/2013  20:20:00      -62.299      -53.090        6.487       53.738       32.377       27.066     2887.782     1048.259      732.563        0.570        0.233       81.852       25.189        0.095      340.778       15.033      862.815
10/22/2013  20:21:00      -90.293      -67.152        2.762       38.933       32.266       24.503     1515.796     1041.107      600.420        0.791        0.158      112.526       19.579        0.030      340.870       15.189      862.825
10/22/2013  20:22:00     -111.097      -72.779       -3.440       49.934       29.770       29.717     2493.430      886.275      883.128        1.096        0.213      132.813       26.610        0.040      340.843       15.143      862.836
10/22/2013  20:23:00     -114.807      -62.224        6.943       47.743       30.047       24.711     2279.440      902.840      610.650        1.045        0.190      130.586       25.577        0.038      340.764       15.011      862.838
10/22/2013  20:24:00     -137.257      -74.263      -13.947       35.113       25.241       20.107     1232.893      637.105      404.287        1.341        0.114      156.059       15.413        0.010      340.831       15.123      862.851
10/22/2013  20:25:00     -123.391      -86.780      -12.927       29.639       30.171       21.708      878.497      910.317      471.258        1.259        0.113      150.852       17.046        0.013      340.844       15.145      862.847
10/22/2013  20:26:00     -106.572      -61.881        2.310       38.458       26.137       19.898     1479.040      683.165      395.915        0.887        0.128      123.235       18.722        0.023      340.789       15.051      862.853
10/22/2013  20:27:00     -115.607      -54.848       -6.268       24.403       20.511       21.391      595.529      420.707      457.592        0.894        0.074      127.958       17.877        0.020      340.765       15.010      862.855
10/22/2013  20:28:00     -103.138      -61.858       -1.611       30.253       22.463       22.166      915.215      504.590      491.319        0.819        0.096      120.265       20.129        0.028      340.726       14.945      862.854
10/22/2013  20:29:00     -103.791      -49.555       -5.788       37.863       22.165       21.007     1433.597      491.287      441.280        0.781        0.118      115.014       18.310        0.025      340.731       14.952      862.856
10/22/2013  20:30:00     -101.780      -59.702       -5.756       23.540       19.692       14.408      554.142      387.756      207.585        0.755        0.057      117.998       10.537        0.008      340.697       14.898      862.853
10/22/2013  20:31:00      -89.303      -47.807       -0.084       36.888       19.098       18.115     1360.697      364.727      328.149        0.616        0.103      101.294       18.125        0.032      340.686       14.877      862.859
10/22/2013  20:32:00      -71.694      -49.125       -0.445       34.045       25.278       21.134     1159.066      638.993      446.636        0.490        0.112       86.910       20.944        0.058      340.651       14.818      862.866
10/22/2013  20:33:00      -48.306      -35.791        5.848       39.707       29.818       17.619     1576.655      889.137      310.438        0.321        0.139       60.121       15.507        0.067      340.588       14.712      862.874
10/22/2013  20:34:00      -44.377      -46.570        5.845       39.208       28.378       20.787     1537.278      805.322      432.080        0.347        0.139       64.327       22.867        0.126      340.683       14.874      862.885
10/22/2013  20:35:00      -66.004      -52.872        7.299       39.994       30.337       26.525     1599.536      920.315      703.597        0.521        0.161       84.570       23.406        0.077      340.653       14.822      862.894
10/22/2013  20:36:00      -95.395      -73.964       -6.839       39.941       34.450       22.228     1595.263     1186.783      494.088        0.895        0.164      120.710       22.808        0.036      340.758       14.998      862.913
10/22/2013  20:37:00      -81.824      -77.005        2.740       44.851       49.077       30.372     2011.583     2408.572      922.432        0.899        0.267      112.361       24.838        0.049      340.717       14.930      862.923
10/22/2013  20:38:00     -100.915      -79.576        3.772       52.228       25.435       23.315     2727.786      646.932      543.589        1.022        0.196      128.515       20.247        0.025      340.690       14.884      862.928
10/22/2013  20:39:00      -99.148      -72.306        6.777       38.838       31.574       22.769     1508.409      996.942      518.405        0.906        0.151      122.713       11.957        0.009      340.597       14.728      862.922
10/22/2013  20:40:00     -114.042      -79.460       -0.866       68.930       37.051       27.207     4751.413     1372.766      740.225        1.309        0.343      138.994       26.586        0.037      340.625       14.775      862.933
10/22/2013  20:41:00     -110.828      -95.465        1.149       49.243       46.955       24.072     2424.906     2204.765      579.467        1.330        0.260      146.275       22.156        0.023      340.638       14.796      862.933
10/22/2013  20:42:00     -120.463      -74.955       -1.897       46.664       32.763       28.108     2177.528     1073.388      790.050        1.209        0.202      141.878       29.526        0.043      340.691       14.886      862.934
10/22/2013  20:43:00     -111.901      -78.589        2.144       44.753       25.095       22.938     2002.855      629.755      526.146        1.093        0.158      136.741       16.567        0.015      340.722       14.938      862.941
10/22/2013  20:44:00     -125.204      -80.846       -9.137       26.622       33.542       15.063      708.710     1125.042      226.899        1.218        0.103      149.037       11.236        0.006      340.819       15.104      862.940
10/22/2013  20:45:00     -120.966      -65.696        6.699       58.490       37.948       28.188     3421.028     1440.029      794.560        1.232        0.283      137.655       33.633        0.060      340.765       15.010      862.953
10/22/2013  20:46:00     -118.925      -53.483       -5.040       46.029       26.559       21.589     2118.697      705.395      466.071        1.016        0.165      130.397       19.820        0.023      340.755       14.995      862.951
10/22/2013  20:47:00     -127.322      -73.075       -4.221       61.347       35.745       22.828     3763.460     1277.715      521.136        1.356        0.278      146.801       23.854        0.026      340.851       15.158      862.953
10/22/2013  20:48:00     -125.414      -62.898        2.111       44.836       31.010       23.726     2010.278      961.650      562.927        1.161        0.177      140.302       21.773        0.024      340.891       15.225      862.955
10/22/2013  20:49:00     -131.870      -64.579       -0.640       30.872       28.781       20.421      953.082      828.328      417.018        1.188        0.110      146.834       19.557        0.018      340.866       15.180      862.964
10/22/2013  20:50:00     -121.384      -64.031       -1.876       30.306       33.980       23.339      918.430     1154.627      544.732        1.073        0.131      137.238       20.865        0.023      340.825       15.114      862.958
10/22/2013  20:51:00     -113.604      -70.723       -0.989       37.336       25.300       20.211     1393.953      640.092      408.494        1.018        0.122      133.819       18.585        0.019      340.833       15.127      862.968
10/22/2013  20:52:00     -145.059      -49.104       -5.487       35.402       39.589       16.332     1253.329     1567.280      266.733        1.328        0.154      153.145       14.071        0.008      340.913       15.261      862.969
10/22/2013  20:53:00     -127.990      -52.162        2.653       44.219       28.105       19.822     1955.300      789.908      392.905        1.112        0.157      138.211       20.340        0.022      340.868       15.187      862.979
10/22/2013  20:54:00     -142.694      -64.304        2.217       39.933       28.282       23.156     1594.657      799.889      536.190        1.372        0.147      156.513       21.761        0.019      340.817       15.100      862.979
10/22/2013  20:55:00     -158.535      -37.871       -5.174       39.473       26.359       25.362     1558.145      694.777      643.251        1.474        0.145      162.995       21.422        0.017      340.677       14.864      862.982
10/22/2013  20:56:00     -145.764      -34.548       -5.054       50.726       38.441       23.474     2573.174     1477.732      551.018        1.353        0.230      149.802       25.301        0.029      340.685       14.876      862.996
10/22/2013  20:57:00     -152.277      -56.477        1.023       52.541       44.205       24.015     2760.571     1954.055      576.739        1.583        0.265      162.413       23.044        0.020      340.722       14.938      863.000
10/22/2013  20:58:00     -146.405      -63.407       -1.864       40.778       47.519       25.472     1662.863     2258.093      648.799        1.501        0.228      159.546       19.025        0.014      340.681       14.869      863.008
10/22/2013  20:59:00     -168.598      -57.662       -5.434       52.035       48.297       25.392     2707.681     2332.593      644.761        1.873        0.284      178.185       26.486        0.022      340.563       14.670      863.004
10/22/2013  21:00:00     -152.809      -30.345       -3.759       57.824       39.422       25.362     3343.609     1554.082      643.246        1.491        0.277      155.792       26.375        0.029      340.507       14.573      863.017
10/22/2013  21:01:00     -151.006      -28.549       -0.825       50.017       36.311       26.137     2501.715     1318.494      683.124        1.406        0.225      153.681       26.648        0.030      340.495       14.554      863.016
10/22/2013  21:02:00     -158.960      -14.783      -19.390       33.461       36.140       20.413     1119.666     1306.069      416.704        1.435        0.142      159.646       13.116        0.007      340.445       14.471      863.028
10/22/2013  21:03:00     -231.559       32.764      -18.731       42.622       30.450       22.151     1816.608      927.183      490.679        2.914        0.162      233.865       18.499        0.006      340.571       14.679      863.033
10/22/2013  21:04:00     -246.528       38.772      -17.641       54.711       33.793       29.877     2993.239     1141.990      892.609        3.381        0.251      249.558       31.355        0.016      340.679       14.863      863.029
10/22/2013  21:05:00     -277.056      -12.208      -29.246       50.603       49.826       31.355     2560.680     2482.629      983.143        4.189        0.301      277.325       26.854        0.009      340.703       14.902      863.037
10/22/2013  21:06:00     -205.538      -26.526      -24.314       42.829       51.903       34.937     1834.317     2693.935     1220.570        2.464        0.287      207.243       28.036        0.018      340.563       14.666      863.027
10/22/2013  21:07:00     -192.711      -19.742      -15.307       71.556       62.118       27.976     5120.192     3858.706      782.670        2.376        0.488      193.720       28.229        0.021      340.568       14.677      863.031
10/22/2013  21:08:00     -217.049       21.046      -15.105       42.232       34.208       28.752     1783.558     1170.175      826.696        2.578        0.189      218.067       25.275        0.013      340.684       14.872      863.042
10/22/2013  21:09:00     -146.098        4.195      -13.951       50.060       52.965       28.079     2506.036     2805.268      788.410        1.383        0.305      146.158       27.324        0.035      340.577       14.693      863.047
10/22/2013  21:10:00     -122.736      -18.802       -6.615       41.844       40.707       26.633     1750.948     1657.067      709.342        0.979        0.206      124.168       26.429        0.045      340.616       14.761      863.056
10/22/2013  21:11:00     -189.863       24.800      -19.384       50.353       37.534       23.869     2535.449     1408.809      569.715        2.078        0.226      191.476       21.276        0.012      340.659       14.831      863.052
10/22/2013  21:12:00     -146.087        6.594      -16.299       48.359       42.456       28.186     2338.547     1802.518      794.444        1.329        0.247      146.235       26.690        0.033      340.542       14.634      863.067
10/22/2013  21:13:00     -146.882       11.534      -13.867       56.877       38.610       27.804     3234.989     1490.701      773.040        1.370        0.275      147.334       16.618        0.013      340.619       14.765      863.068
10/22/2013  21:14:00      -91.746      -32.739       -8.458       40.248       45.537       23.784     1619.864     2073.586      565.691        0.691        0.213       97.413       21.210        0.047      340.464       14.501      863.084
10/22/2013  21:15:00      -54.673      -37.191        1.611       46.161       25.908       21.839     2130.862      671.224      476.946        0.383        0.164       66.123       18.744        0.080      340.309       14.241      863.092
10/22/2013  21:16:00      -39.253      -38.871        2.134       45.484       30.573       16.779     2068.789      934.686      281.536        0.317        0.164       55.243       11.865        0.046      340.227       14.103      863.091
10/22/2013  21:17:00      -46.328      -41.830       -1.569       42.510       28.051       17.787     1807.113      786.870      316.365        0.340        0.146       62.418       11.896        0.036      340.247       14.136      863.102
10/22/2013  21:18:00      -64.497      -48.592      -13.029       32.735       25.586       19.693     1071.565      654.666      387.819        0.440        0.106       80.753        6.528        0.007      340.199       14.055      863.103
10/22/2013  21:19:00     -123.991      -42.650       -7.945       23.837       19.007       15.404      568.203      361.273      237.288        0.921        0.058      131.121       12.413        0.009      340.165       13.997      863.104
10/22/2013  21:20:00     -110.270      -51.987      -15.097       23.161       17.177       16.035      536.432      295.056      257.129        0.809        0.054      121.911        9.784        0.006      340.119       13.920      863.113
10/22/2013  21:21:00      -81.790      -49.235      -14.404       24.862       27.110       13.639      618.119      734.953      186.014        0.543        0.077       95.465        7.240        0.006      340.156       13.982      863.107
10/22/2013  21:22:00      -88.821      -40.737      -18.498       24.438       20.687       14.638      597.227      427.955      214.276        0.556        0.062       97.717       10.503        0.012      340.210       14.072      863.117
10/22/2013  21:23:00      -41.323      -12.850       -2.799       32.228       29.046       18.770     1038.629      843.647      352.322        0.206        0.112       43.275       17.100        0.156      340.236       14.117      863.119
10/22/2013  21:24:00      -74.188      -33.274      -11.084       28.545       20.186       19.966      814.826      407.489      398.647        0.418        0.081       81.308       12.432        0.023      340.189       14.036      863.118
10/22/2013  21:25:00     -117.766      -54.231      -14.870       19.871       18.280       12.970      394.840      334.147      168.224        0.896        0.045      129.653        8.495        0.004      340.139       13.954      863.126
10/22/2013  21:26:00     -137.541      -47.545      -17.396       19.512       13.657       10.337      380.733      186.501      106.860        1.108        0.034      145.527        5.276        0.001      340.114       13.909      863.125
10/22/2013  21:27:00     -118.134      -44.876      -19.260       15.848       19.907       10.923      251.166      396.307      119.308        0.855        0.038      126.371        6.985        0.003      339.999       13.718      863.128
10/22/2013  21:28:00     -142.338      -43.198      -21.659       21.388       19.486       17.804      457.461      379.694      316.970        1.187        0.058      148.749       13.447        0.008      339.994       13.709      863.131
10/22/2013  21:29:00     -134.088      -23.675      -23.419       15.288       12.954       11.872      233.727      167.797      140.953        0.982        0.027      136.162        6.960        0.003      339.957       13.648      863.123
10/22/2013  21:30:00     -112.910      -64.640      -19.807       30.454       32.679       20.900      927.466     1067.928      436.828        0.988        0.122      130.104        8.728        0.005      340.012       13.741      863.126
10/22/2013  21:31:00      -92.126      -71.712        3.378       52.995       38.572       29.874     2808.474     1487.817      892.462        0.941        0.259      116.747       24.244        0.043      339.827       13.426      863.135
10/22/2013  21:32:00     -106.128      -81.541        5.938       46.668       52.301       26.367     2177.922     2735.421      695.229        1.178        0.280      133.836       30.095        0.051      339.849       13.463      863.131
10/22/2013  21:33:00     -130.755      -67.309        1.275       39.886       44.695       24.087     1590.885     1997.656      580.171        1.290        0.208      147.062       21.033        0.020      339.840       13.449      863.129
10/22/2013  21:34:00     -137.646      -80.736       -1.506       51.559       36.066       24.878     2658.320     1300.754      618.910        1.502        0.229      159.577       27.001        0.029      339.692       13.200      863.129
10/22/2013  21:35:00     -128.742      -75.532       -2.954       46.889       38.384       22.584     2198.610     1473.304      510.034        1.323        0.209      149.264       24.524        0.027      339.677       13.175      863.123
10/22/2013  21:36:00     -134.033      -86.641       -7.698       32.422       24.748       23.488     1051.208      612.441      551.685        1.387        0.111      159.598       18.965        0.014      339.702       13.216      863.133
10/22/2013  21:37:00     -118.193      -65.458      -10.727       23.281       24.716       16.989      542.018      610.892      288.632        0.991        0.072      135.108        7.517        0.003      339.733       13.268      863.129
10/22/2013  21:38:00     -127.960      -54.194      -12.024       18.328       20.183       14.465      335.931      407.344      209.230        1.020        0.048      138.963       10.398        0.006      339.655       13.136      863.123
10/22/2013  21:39:00     -150.409      -53.192       -5.053       28.374       28.549       19.461      805.107      815.028      378.715        1.374        0.100      159.538       16.644        0.011      339.618       13.075      863.121
10/22/2013  21:40:00     -162.656      -51.421       -4.367       35.796       32.538       17.911     1281.384     1058.693      320.807        1.589        0.133      170.590       18.191        0.011      339.716       13.239      863.115
10/22/2013  21:41:00     -143.954      -67.285       -2.425       35.617       22.464       23.915     1268.542      504.609      571.943        1.380        0.117      158.903       21.428        0.018      339.598       13.040      863.115
10/22/2013  21:42:00     -121.311      -72.794      -11.373       30.471       25.901       18.465      928.464      670.854      340.968        1.104        0.097      141.476       14.147        0.010      339.561       12.978      863.117
10/22/2013  21:43:00     -123.299      -55.873       -5.528       27.940       27.385       16.551      780.651      749.948      273.939        1.008        0.090      135.368       15.285        0.013      339.489       12.856      863.125
10/22/2013  21:44:00     -133.862      -20.034      -21.843       40.626       40.076       24.467     1650.446     1606.117      598.639        1.133        0.193      135.353       14.451        0.011      339.548       12.956      863.131
10/22/2013  21:45:00     -128.884        3.997       -9.880       67.902       47.165       26.376     4610.664     2224.506      695.686        1.213        0.377      128.946       27.468        0.045      339.646       13.121      863.135
10/22/2013  21:46:00     -183.162        4.934      -23.564       44.479       47.921       25.625     1978.356     2296.458      656.628        1.953        0.247      183.229       18.142        0.010      339.689       13.193      863.141
10/22/2013  21:47:00     -141.937       -0.298      -15.313       37.772       45.179       27.730     1426.730     2041.145      768.980        1.231        0.212      141.938       18.465        0.017      339.621       13.080      863.139
10/22/2013  21:48:00     -161.076      -10.812       -9.992       70.138       48.745       34.245     4919.345     2376.059     1172.688        1.731        0.423      161.438       35.010        0.047      339.598       13.040      863.157
10/22/2013  21:49:00      -82.239      -12.227        1.798       49.107       63.184       35.544     2411.484     3992.185     1263.404        0.729        0.383       83.143       29.603        0.127      339.528       12.922      863.160
10/22/2013  21:50:00     -116.230      -19.167      -11.657       41.019       46.055       25.949     1682.584     2121.089      673.371        0.924        0.224      117.800       15.197        0.017      339.512       12.895      863.165
10/22/2013  21:51:00      -81.457      -52.253       -3.670       42.443       42.261       26.105     1801.419     1785.972      681.490        0.682        0.213       96.777       20.362        0.044      339.481       12.843      863.168
10/22/2013  21:52:00      -60.971      -33.704        6.231       55.067       40.904       29.018     3032.411     1673.173      842.023        0.522        0.277       69.667       33.244        0.228      339.409       12.722      863.166
10/22/2013  21:53:00      -98.667      -64.785       -5.859       46.267       32.646       24.498     2140.593     1065.783      600.174        0.889        0.190      118.035       14.593        0.015      339.415       12.734      863.178
10/22/2013  21:54:00      -67.431      -33.793       -1.927       47.616       44.848       27.798     2267.300     2011.309      772.723        0.537        0.253       75.425       22.808        0.091      339.399       12.706      863.176
10/22/2013  21:55:00      -68.214      -46.898      -11.597       37.100       35.624       26.962     1376.435     1269.061      726.941        0.518        0.169       82.781       21.723        0.069      339.368       12.654      863.196
10/22/2013  21:56:00      -71.282      -53.239       -5.248       55.066       24.507       19.367     3032.315      600.603      375.068        0.597        0.200       88.969       17.355        0.038      339.405       12.716      863.197
10/22/2013  21:57:00      -79.716      -49.559       -9.657       34.383       35.537       23.039     1182.182     1262.907      530.789        0.594        0.149       93.866       11.669        0.015      339.356       12.634      863.211
10/22/2013  21:58:00     -102.998      -53.615       -8.425       22.077       20.116       17.184      487.402      404.636      295.281        0.737        0.059      116.117       10.750        0.009      339.348       12.619      863.212
10/22/2013  21:59:00      -87.964      -48.639       -9.871       25.972       27.411       16.228      674.526      751.359      263.362        0.594        0.084      100.516        8.053        0.006      339.321       12.574      863.215
10/22/2013  22:00:00      -88.538      -30.494       -8.615       21.316       22.618       17.087      454.358      511.552      291.966        0.505        0.063       93.642       11.060        0.014      339.348       12.620      863.226
10/22/2013  22:01:00     -107.847      -32.692      -14.933       24.395       17.388       14.405      595.128      302.346      207.502        0.701        0.055      112.693       12.312        0.012      339.366       12.650      863.221
10/22/2013  22:02:00     -120.483      -48.534      -14.867       12.945       17.215       10.774      167.566      296.358      116.088        0.884        0.029      129.891        9.724        0.006      339.323       12.577      863.222
10/22/2013  22:03:00     -105.544      -46.971      -13.301       13.432       20.606       12.392      180.412      424.588      153.570        0.714        0.038      115.524        8.628        0.006      339.327       12.584      863.221
10/22/2013  22:04:00     -116.114      -29.904      -16.313       10.262       12.542        9.039      105.302      157.313       81.700        0.749        0.017      119.903        5.459        0.002      339.284       12.511      863.227
10/22/2013  22:05:00     -118.429      -16.981      -19.821       10.363        9.417        9.197      107.393       88.672       84.583        0.749        0.014      119.640        6.310        0.003      339.337       12.601      863.240
10/22/2013  22:06:00     -114.482      -13.280      -24.121       14.054       15.015       11.730      197.509      225.441      137.590        0.721        0.028      115.250        7.499        0.004      339.359       12.636      863.236
10/22/2013  22:07:00     -112.897      -16.732      -20.005       10.858       10.029        9.367      117.904      100.579       87.736        0.687        0.015      114.130        4.692        0.002      339.259       12.470      863.239
10/22/2013  22:08:00     -108.176      -22.684      -17.598       12.539       12.363       11.165      157.216      152.846      124.656        0.648        0.022      110.528        5.887        0.003      339.225       12.412      863.244
10/22/2013  22:09:00      -97.243      -18.187      -11.335       10.911       13.068        8.719      119.053      170.770       76.015        0.514        0.018       98.929        5.645        0.003      339.251       12.456      863.244
10/22/2013  22:10:00      -70.927      -27.448      -15.502       21.511       18.355       14.617      462.721      336.895      213.643        0.352        0.051       76.053       11.329        0.022      339.276       12.498      863.255
10/22/2013  22:11:00      -84.008      -40.873      -19.297       17.201       16.205       12.494      295.886      262.601      156.094        0.491        0.036       93.423       10.501        0.013      339.248       12.451      863.252
10/22/2013  22:12:00      -87.531      -38.915      -17.547       12.665       11.446        9.877      160.410      131.011       97.546        0.494        0.019       95.792        8.184        0.007      339.220       12.403      863.245
10/22/2013  22:13:00      -88.716      -31.206      -16.259        5.601        8.521        9.636       31.372       72.601       92.849        0.465        0.010       94.044        3.059        0.001      339.337       12.601      863.250
10/22/2013  22:14:00      -82.462      -29.517      -12.167       18.110       13.638        9.659      327.962      186.005       93.296        0.421        0.030       87.586        7.870        0.008      339.386       12.683      863.257
10/22/2013  22:15:00      -78.117      -37.420      -15.439        8.510        7.387        8.299       72.417       54.562       68.869        0.397        0.010       86.617        5.610        0.004      339.262       12.474      863.260
10/22/2013  22:16:00     -107.884      -49.548      -13.423       13.139       12.676        9.537      172.624      160.683       90.958        0.735        0.021      118.718        6.034        0.003      339.313       12.560      863.267
10/22/2013  22:17:00      -96.598      -43.192      -12.222       12.909       11.594       10.123      166.639      134.415      102.483        0.587        0.020      105.814        6.735        0.004      339.180       12.336      863.274
10/22/2013  22:18:00     -104.321      -38.268       -8.310       15.716       17.563       10.341      246.992      308.460      106.942        0.654        0.033      111.118        5.267        0.002      339.053       12.124      863.277
10/22/2013  22:19:00     -125.567      -48.894      -12.832       13.448       16.536        9.885      180.841      273.427       97.706        0.944        0.028      134.750        6.531        0.002      338.939       11.931      863.293
10/22/2013  22:20:00     -117.723      -61.631       -6.156       26.150       20.711       17.490      683.805      428.946      305.915        0.956        0.071      132.880       13.549        0.010      338.925       11.908      863.298
10/22/2013  22:21:00      -89.876      -67.818       -6.257       45.396       33.592       27.398     2060.797     1128.396      750.639        0.833        0.197      112.592       25.131        0.050      338.996       12.027      863.299
10/22/2013  22:22:00     -112.716      -64.811       -8.090       28.306       34.889       16.828      801.249     1217.215      283.185        0.964        0.115      130.021       11.888        0.008      338.982       12.004      863.303
10/22/2013  22:23:00     -117.467      -48.210       -6.892       44.188       29.273       25.801     1952.536      856.909      665.701        0.982        0.174      126.976       21.988        0.030      339.032       12.088      863.306
10/22/2013  22:24:00     -106.625      -67.714       -5.834       36.359       24.381       20.985     1322.009      594.430      440.374        0.917        0.118      126.310       22.089        0.031      338.935       11.924      863.293
10/22/2013  22:25:00     -106.164      -50.649       -3.556       24.481       20.749       14.297      599.299      430.535      204.413        0.754        0.062      117.627       13.146        0.012      338.795       11.689      863.303
10/22/2013  22:26:00      -93.974      -39.214       -1.479       21.380       17.574       10.928      457.107      308.834      119.427        0.563        0.044      101.827        9.063        0.008      338.826       11.741      863.308
10/22/2013  22:27:00     -102.149      -53.076       -0.500       23.431       19.784       14.864      549.028      391.414      220.930        0.721        0.058      115.115       13.412        0.014      338.766       11.641      863.309
10/22/2013  22:28:00     -117.760      -48.721      -11.865       15.546       14.650        9.647      241.675      214.637       93.067        0.847        0.027      127.441        4.450        0.001      338.791       11.684      863.321
10/22/2013  22:29:00     -124.558      -57.668      -10.037       17.565       16.548       11.307      308.516      273.841      127.837        0.983        0.036      137.260        3.329        0.001      338.763       11.637      863.336
10/22/2013  22:30:00     -137.228      -54.016       -5.670       13.455       18.795       11.695      181.025      353.249      136.765        1.123        0.034      147.476        7.455        0.003      338.763       11.637      863.333
10/22/2013  22:31:00     -144.011      -55.347       -6.299       30.357       25.552       18.338      921.518      652.888      336.268        1.288        0.096      154.280       15.796        0.010      338.726       11.573      863.333
10/22/2013  22:32:00     -143.342      -40.819       -6.315       34.865       20.220       16.370     1215.568      408.853      267.993        1.207        0.095      149.041       12.152        0.007      338.673       11.484      863.339
10/22/2013  22:33:00     -125.318      -38.277       -2.946       25.409       24.927       15.355      645.613      621.371      235.764        0.934        0.075      131.034       13.546        0.011      338.652       11.448      863.343
10/22/2013  22:34:00     -136.862      -40.363       -5.634       27.183       22.384       14.213      738.891      501.058      202.013        1.092        0.072      142.690       11.473        0.006      338.643       11.434      863.349
10/22/2013  22:35:00     -120.297      -49.579        0.723       39.539       21.539       19.835     1563.327      463.927      393.434        0.967        0.121      130.113       16.261        0.016      338.640       11.429      863.360
10/22/2013  22:36:00     -158.925      -55.992       -9.889       25.174       20.385       11.672      633.740      415.563      136.236        1.484        0.059      168.499       10.034        0.004      338.625       11.402      863.360
10/22/2013  22:37:00     -150.511      -57.583        0.936       37.505       41.501       20.990     1406.642     1722.372      440.601        1.477        0.178      161.150       22.727        0.020      338.581       11.329      863.366
10/22/2013  22:38:00      -85.798      -59.806        6.586       47.740       34.179       24.392     2279.070     1168.217      594.989        0.751        0.202      104.585       18.101        0.030      338.568       11.307      863.370
10/22/2013  22:39:00      -91.606      -67.093       -3.319       37.549       28.406       18.516     1409.964      806.911      342.855        0.773        0.128      113.547       12.783        0.013      338.581       11.329      863.362
10/22/2013  22:40:00      -87.111      -63.364        1.995       40.281       34.481       21.754     1622.594     1188.961      473.251        0.745        0.164      107.719       23.165        0.046      338.550       11.276      863.372
10/22/2013  22:41:00      -47.637      -44.899       -3.324       39.574       28.204       21.797     1566.110      795.491      475.118        0.357        0.142       65.461       19.970        0.093      338.615       11.387      863.370
10/22/2013  22:42:00      -84.601      -52.588       -0.488       39.562       23.279       18.489     1565.140      541.932      341.834        0.619        0.122       99.613       19.073        0.037      338.648       11.442      863.368
10/22/2013  22:43:00     -110.065      -55.006      -15.392       15.553       17.801       16.970      241.905      316.893      287.966        0.811        0.042      123.045        9.496        0.006      338.533       11.249      863.378
10/22/2013  22:44:00     -121.310      -51.499       -7.246       22.438       25.760       13.920      503.467      663.603      193.757        0.939        0.068      131.789       11.148        0.007      338.564       11.303      863.370
10/22/2013  22:45:00     -137.840      -52.760      -13.249       15.279       17.910       13.792      233.441      320.781      190.208        1.135        0.037      147.592        7.036        0.002      338.575       11.320      863.374
10/22/2013  22:46:00     -148.713      -49.830       -8.062       19.047       20.171       12.445      362.776      406.852      154.868        1.279        0.046      156.839        8.869        0.003      338.572       11.316      863.360
10/22/2013  22:47:00     -148.282      -32.427      -11.864       27.959       22.381       18.037      781.682      500.910      325.319        1.239        0.080      151.786       15.530        0.010      338.397       11.020      863.354
10/22/2013  22:48:00     -120.516      -66.991       -1.975       41.235       30.167       22.738     1700.295      910.055      516.997        1.107        0.156      137.884       24.827        0.032      338.303       10.863      863.354
10/22/2013  22:49:00      -87.397      -19.809      -10.697       37.618       29.299       21.875     1415.104      858.422      478.517        0.545        0.138       89.613       18.829        0.044      338.254       10.782      863.360
10/22/2013  22:50:00      -48.980       -8.839        2.107       34.796       26.461       21.163     1210.780      700.159      447.865        0.242        0.118       49.771       15.313        0.095      338.359       10.958      863.370
10/22/2013  22:51:00      -54.684        5.066       -2.916       39.061       33.153       23.511     1525.765     1099.144      552.747        0.310        0.159       54.918       25.578        0.217      338.436       11.087      863.386
10/22/2013  22:52:00      -57.248      -14.092       -0.678       33.661       24.234       18.064     1133.095      587.273      326.317        0.276        0.102       58.957       19.717        0.112      338.462       11.129      863.379
10/22/2013  22:53:00     -113.544      -29.467       -9.369       27.341       28.314       15.741      747.508      801.706      247.793        0.782        0.090      117.305       10.816        0.009      338.553       11.281      863.375
10/22/2013  22:54:00     -131.712      -69.968       -6.834       24.068       22.326       14.693      579.254      498.446      215.890        1.179        0.065      149.143        8.658        0.003      338.427       11.071      863.368
10/22/2013  22:55:00     -113.422      -67.801       -8.698       35.121       25.784       21.106     1233.475      664.794      445.453        0.994        0.117      132.142       11.441        0.007      338.344       10.931      863.360
10/22/2013  22:56:00      -46.812      -17.457        3.208       51.484       32.154       23.192     2650.602     1033.891      537.847        0.336        0.211       49.961       28.499        0.325      338.277       10.821      863.369
10/22/2013  22:57:00     -121.838      -48.993      -13.224       41.770       24.581       20.465     1744.756      604.242      418.828        1.009        0.138      131.319       16.751        0.016      338.280       10.825      863.374
10/22/2013  22:58:00      -68.597      -46.272        3.498       40.227       40.169       26.844     1618.185     1613.588      720.609        0.540        0.198       82.744       23.317        0.079      338.282       10.829      863.393
10/22/2013  22:59:00      -66.500      -20.018        3.884       27.584       24.891       16.634      760.883      619.585      276.678        0.325        0.083       69.448       17.899        0.066      338.322       10.895      863.399
10/22/2013  23:00:00      -77.118      -44.082       -2.409       26.438       16.982       14.015      698.970      288.392      196.412        0.454        0.059       88.828       11.235        0.016      338.452       11.112      863.392
10/22/2013  23:01:00     -101.240      -50.961       -4.256       26.397       22.490       12.796      696.807      505.784      163.744        0.712        0.068      113.343        9.460        0.007      338.477       11.155      863.382
10/22/2013  23:02:00     -150.028      -56.681      -17.037       25.537       23.369       14.777      652.129      546.118      218.367        1.371        0.071      160.378        6.551        0.002      338.385       11.000      863.364
10/22/2013  23:03:00     -153.420      -46.539       -7.336       23.831       20.630       14.128      567.917      425.614      199.603        1.348        0.060      160.323       11.640        0.005      338.294       10.848      863.345
10/22/2013  23:04:00     -124.287      -55.861       -2.363       37.874       29.380       19.916     1434.419      863.156      396.634        1.063        0.135      136.263       21.033        0.024      338.255       10.780      863.340
10/22/2013  23:05:00     -129.775      -58.125       -5.106       23.396       29.373       17.086      547.390      862.758      291.944        1.097        0.085      142.197       13.797        0.009      338.323       10.896      863.347
10/22/2013  23:06:00     -134.134      -64.707       -9.405       21.517       20.398       16.577      462.968      416.095      274.813        1.171        0.058      148.926        9.883        0.004      338.265       10.800      863.340
10/22/2013  23:07:00     -109.434      -75.478        1.306       47.878       32.546       21.667     2292.283     1059.269      469.452        1.075        0.191      132.939       17.967        0.018      338.229       10.737      863.341
10/22/2013  23:08:00     -149.952      -85.340       -8.124       44.302       26.044       19.732     1962.659      678.309      389.364        1.643        0.152      172.535       14.439        0.007      338.242       10.760      863.338
10/22/2013  23:09:00     -127.483      -77.266      -10.256       38.779       24.213       21.238     1503.795      586.249      451.051        1.243        0.127      149.070       17.043        0.013      338.259       10.789      863.331
10/22/2013  23:10:00     -135.960      -65.603       -9.186       30.922       18.765       13.105      956.161      352.135      171.734        1.218        0.074      150.960       11.926        0.006      338.237       10.752      863.338
10/22/2013  23:11:00     -134.798      -61.129      -10.270       16.778       17.315        8.861      281.500      299.825       78.509        1.134        0.033      148.011        5.227        0.001      338.274       10.812      863.340
10/22/2013  23:12:00     -137.732      -64.348       -8.760       16.820       18.336       15.410      282.912      336.227      237.465        1.202        0.043      152.022       11.199        0.005      338.287       10.838      863.350
10/22/2013  23:13:00     -135.056      -55.558       -1.138       28.052       22.343       16.816      786.931      499.223      282.781        1.145        0.078      146.037       16.759        0.013      338.219       10.721      863.345
10/22/2013  23:14:00     -142.268      -66.883       -7.802       21.217       23.275       15.852      450.179      541.706      251.278        1.301        0.062      157.205       10.352        0.004      338.189       10.671      863.333
10/22/2013  23:15:00     -144.594      -62.173       -4.404       23.211       25.723       16.832      538.730      661.658      283.325        1.314        0.074      157.394       11.979        0.006      338.209       10.705      863.319
10/22/2013  23:16:00     -104.662      -65.047        3.842       38.198       22.252       18.685     1459.068      495.144      349.134        0.875        0.115      123.228       20.720        0.028      338.149       10.604      863.310
10/22/2013  23:17:00      -70.243      -50.164       -0.447       49.889       30.083       21.260     2488.930      904.973      451.980        0.565        0.192       86.316       20.022        0.054      338.083       10.494      863.298
10/22/2013  23:18:00      -63.895      -51.647        1.532       42.395       32.423       25.878     1797.321     1051.223      669.681        0.513        0.176       82.158       27.998        0.116      338.145       10.598      863.297
10/22/2013  23:19:00      -88.022      -72.478        3.422       39.705       33.425       23.839     1576.513     1117.217      568.310        0.814        0.163      114.021       21.705        0.036      338.236       10.750      863.298
10/22/2013  23:20:00      -43.029      -52.009        7.045       49.036       41.195       24.355     2404.578     1697.034      593.176        0.465        0.235       67.502       28.267        0.175      338.213       10.711      863.294
10/22/2013  23:21:00      -36.008      -40.232        1.529       35.851       38.902       26.502     1285.269     1513.394      702.368        0.321        0.175       53.993       20.669        0.147      338.221       10.725      863.293
10/22/2013  23:22:00      -50.462      -38.516        7.235       30.606       20.131       15.714      936.723      405.238      246.935        0.284        0.079       63.481       15.237        0.058      338.163       10.628      863.294
10/22/2013  23:23:00      -30.934      -34.196       10.079       28.904       17.977       16.615      835.432      323.166      276.047        0.183        0.072       46.112       12.723        0.076      338.240       10.757      863.290
10/22/2013  23:24:00      -55.366      -68.986        4.356       39.572       29.070       25.108     1565.979      845.084      630.408        0.544        0.152       88.456       24.515        0.077      338.276       10.817      863.294
10/22/2013  23:25:00     -108.649      -83.990       -6.086       45.015       46.782       26.096     2026.329     2188.522      680.994        1.190        0.245      137.328       28.141        0.042      338.246       10.767      863.285
10/22/2013  23:26:00      -79.444      -53.541        8.202       52.574       37.350       27.173     2764.047     1395.005      738.379        0.707        0.245       95.802       26.449        0.076      338.139       10.588      863.268
10/22/2013  23:27:00     -119.415      -57.375        5.910       58.061       38.171       29.147     3371.113     1457.017      849.537        1.163        0.284      132.483       29.240        0.049      338.126       10.566      863.270
10/22/2013  23:28:00      -71.761      -49.043        5.819       63.929       40.699       24.734     4086.900     1656.421      611.763        0.697        0.318       86.919       30.862        0.126      338.073       10.477      863.271
10/22/2013  23:29:00     -114.499      -63.628        1.322       37.890       33.932       23.453     1435.657     1151.398      550.056        1.015        0.157      130.991       13.904        0.011      338.017       10.383      863.275
10/22/2013  23:30:00      -93.480      -52.714        7.536       56.162       39.662       27.515     3154.127     1573.111      757.067        0.853        0.274      107.319       30.935        0.083      337.932       10.240      863.278
10/22/2013  23:31:00     -106.645      -68.743        0.757       62.453       46.889       30.372     3900.360     2198.565      922.444        1.156        0.351      126.881       34.826        0.075      337.994       10.343      863.284
10/22/2013  23:32:00     -111.351      -81.528        7.245       48.243       50.607       29.733     2327.423     2561.018      884.042        1.243        0.289      138.007       27.549        0.040      337.954       10.277      863.282
10/22/2013  23:33:00     -121.207      -85.716       -1.817       37.559       38.241       24.341     1410.684     1462.349      592.492        1.275        0.173      148.454       17.464        0.014      337.950       10.271      863.299
10/22/2013  23:34:00     -113.757      -66.318       -1.163       42.977       34.879       24.540     1847.052     1216.520      602.190        1.050        0.183      131.677       20.611        0.025      337.924       10.226      863.299
10/22/2013  23:35:00     -106.048      -75.393        0.456       42.038       33.803       22.330     1767.233     1142.675      498.646        1.017        0.170      130.116       19.220        0.022      338.004       10.360      863.290
10/22/2013  23:36:00      -91.288      -51.353        6.079       52.840       32.389       26.972     2792.103     1049.073      727.484        0.779        0.228      104.741       25.870        0.061      337.959       10.286      863.286
10/22/2013  23:37:00     -108.959      -57.686        4.788       48.744       31.842       23.634     2375.937     1013.901      558.578        0.958        0.197      123.287       23.932        0.038      337.887       10.165      863.274
10/22/2013  23:38:00      -93.065      -48.420        5.178       38.728       25.180       20.060     1499.865      634.013      402.416        0.678        0.127      104.908       17.873        0.029      337.862       10.124      863.265
10/22/2013  23:39:00     -106.779      -46.022       -7.460       22.425       17.980       14.755      502.894      323.282      217.714        0.731        0.052      116.274        9.626        0.007      337.855       10.111      863.270
10/22/2013  23:40:00      -98.622      -41.713       -1.869       20.035       16.209       17.177      401.390      262.719      295.065        0.621        0.048      107.080       13.534        0.016      337.889       10.168      863.262
10/22/2013  23:41:00      -89.160      -35.241       -1.117       28.224       25.054       15.195      796.575      627.694      230.880        0.542        0.083       95.872       17.252        0.032      337.918       10.217      863.255
10/22/2013  23:42:00      -87.964      -41.534       -2.413       33.662       19.453       14.753     1133.114      378.425      217.643        0.560        0.086       97.277       15.670        0.026      337.913       10.207      863.252
10/22/2013  23:43:00     -126.777      -50.092       -1.976       29.236       17.851       12.776      854.751      318.651      163.238        0.996        0.067      136.315       12.522        0.008      337.794       10.007      863.239
10/22/2013  23:44:00     -122.674      -55.909       -5.402       26.011       18.191       17.513      676.578      330.917      306.701        0.976        0.066      134.814       14.876        0.012      337.721        9.885      863.235
10/22/2013  23:45:00      -92.023      -50.849       -4.079       35.428       22.021       21.234     1255.152      484.942      450.869        0.663        0.110      105.137       14.694        0.020      337.626        9.728      863.236
10/22/2013  23:46:00      -76.958      -43.537        6.658       29.879       35.682       21.325      892.782     1273.203      454.759        0.524        0.131       88.419       18.699        0.045      337.586        9.659      863.226
10/22/2013  23:47:00     -111.572      -72.744        2.023       41.011       30.403       21.985     1681.926      924.333      483.351        1.042        0.154      133.192       15.731        0.014      337.610        9.701      863.232
10/22/2013  23:48:00      -94.957      -71.428        2.362       50.772       43.707       29.510     2577.826     1910.308      870.818        0.974        0.268      118.823       31.251        0.069      337.624        9.724      863.222
10/22/2013  23:49:00     -104.506      -58.616        4.325       46.688       40.948       22.934     2179.755     1676.742      525.958        0.938        0.219      119.822       19.202        0.026      337.616        9.711      863.216
10/22/2013  23:50:00      -96.328      -58.264        5.166       41.650       34.149       27.595     1734.762     1166.121      761.507        0.818        0.183      112.578       27.912        0.061      337.631        9.734      863.226
10/22/2013  23:51:00     -134.027      -80.713       -5.982       33.951       26.147       18.358     1152.702      683.654      337.034        1.334        0.109      156.454       16.307        0.011      337.679        9.816      863.222
10/22/2013  23:52:00     -132.426      -43.395       -1.678       29.802       26.744       17.578      888.172      715.224      308.995        1.067        0.096      139.355       14.618        0.011      337.630        9.735      863.220
10/22/2013  23:53:00     -120.460      -59.423       -1.098       37.815       23.845       19.809     1429.960      568.569      392.377        1.022        0.120      134.320       16.540        0.015      337.677        9.812      863.231
10/22/2013  23:54:00     -142.887      -54.049        0.316       24.878       21.518       18.262      618.898      463.010      333.515        1.238        0.071      152.768       12.875        0.007      337.647        9.760      863.230
10/22/2013  23:55:00      -92.815      -46.276        4.400       49.366       35.065       25.247     2436.986     1229.580      637.413        0.754        0.215      103.711       26.712        0.066      337.659        9.783      863.224
10/22/2013  23:56:00      -86.082      -52.465        4.820       46.156       28.261       22.578     2130.354      798.686      509.764        0.681        0.172      100.810       21.791        0.047      337.581        9.650      863.227
10/22/2013  23:57:00      -96.579      -50.729        5.644       43.538       27.358       20.179     1895.582      748.439      407.175        0.749        0.153      109.091       16.332        0.022      337.553        9.606      863.223
10/22/2013  23:58:00     -118.079      -56.230       -3.186       24.728       21.741       16.199      611.484      472.669      262.395        0.923        0.067      130.784       15.316        0.014      337.576        9.643      863.217
10/22/2013  23:59:00     -114.159      -48.263       -3.915       25.814       23.984       15.542      666.343      575.222      241.539        0.843        0.074      123.942       10.620        0.007      337.546        9.592      863.215
